[[{"header":{"parameterUnit":"m.s-1","parameterCategory":1,"la1":30.6,"la2":28.766,"lo1":-90.7593,"lo2":-88.6598,"dy":0.0162,"dx":0.0183,"nx":116,"ny":114,"refTime":"2023-10-07T06:00:00:Z","depth":0,"parameterNumber":2,"parameterNumberName":"U-component_of_WINDS"},"data":[0.0,0.0,0.0,0.0,0.0,0.0,0.0,0.0,0.0,0.0,0.0,0.0,0.0,0.0,0.0,0.0,0.0,0.0,0.0,0.0,0.0,0.0,0.0,0.0,0.0,0.0,0.0,0.0,0.0,0.0,0.0,0.0,0.0,0.0,0.0,0.0,0.0,0.0,0.0,0.0,0.0,0.0,0.0,0.0,0.0,0.0,0.0,0.0,0.0,0.0,0.0,0.0,0.0,0.0,0.0,0.0,0.0,0.0,0.0,0.0,0.0,0.0,0.0,0.0,0.0,0.0,0.0,0.0,0.0,0.0,0.0,0.0,0.0,0.0,0.0,0.0,0.0,0.0,0.0,0.0,0.0,0.0,0.0,0.0,0.0,0.0,0.0,0.0,0.0,0.0,0.0,0.0,0.0,0.0,0.0,0.0,0.0,0.0,0.0,0.0,0.0,0.0,0.0,0.0,0.0,0.0,0.0,0.0,0.0,0.0,0.0,0.0,0.0,0.0,0.0,0.0,0.0,0.0,0.0,0.0,0.0,0.0,0.0,0.0,0.0,0.0,0.0,0.0,0.0,0.0,0.0,0.0,0.0,0.0,0.0,0.0,0.0,0.0,0.0,0.0,0.0,0.0,0.0,0.0,0.0,0.0,0.0,0.0,0.0,0.0,0.0,0.0,0.0,0.0,0.0,0.0,0.0,0.0,0.0,0.0,0.0,0.0,0.0,0.0,0.0,0.0,0.0,0.0,0.0,0.0,0.0,0.0,0.0,0.0,0.0,0.0,0.0,0.0,0.0,0.0,0.0,0.0,0.0,0.0,0.0,0.0,0.0,0.0,0.0,0.0,0.0,0.0,0.0,0.0,0.0,0.0,0.0,0.0,0.0,0.0,0.0,0.0,0.0,0.0,0.0,0.0,0.0,0.0,0.0,0.0,0.0,0.0,0.0,0.0,0.0,0.0,0.0,0.0,0.0,0.0,0.0,0.0,0.0,0.0,0.0,0.0,0.0,0.0,0.0,0.0,0.0,0.0,0.0,0.0,0.0,0.0,0.0,0.0,0.0,0.0,0.0,0.0,0.0,0.0,0.0,0.0,0.0,0.0,0.0,0.0,0.0,0.0,0.0,0.0,0.0,0.0,0.0,0.0,0.0,0.0,0.0,0.0,0.0,0.0,0.0,0.0,0.0,0.0,0.0,0.0,0.0,0.0,0.0,0.0,0.0,0.0,0.0,0.0,0.0,0.0,0.0,0.0,0.0,0.0,0.0,0.0,0.0,0.0,0.0,0.0,0.0,0.0,0.0,0.0,0.0,0.0,0.0,0.0,0.0,0.0,0.0,0.0,0.0,0.0,0.0,0.0,0.0,0.0,0.0,0.0,0.0,0.0,0.0,0.0,0.0,0.0,0.0,0.0,0.0,0.0,0.0,0.0,0.0,0.0,0.0,0.0,0.0,0.0,0.0,0.0,0.0,0.0,0.0,0.0,0.0,0.0,0.0,0.0,0.0,0.0,0.0,0.0,0.0,0.0,0.0,0.0,0.0,0.0,0.0,0.0,0.0,0.0,0.0,0.0,0.0,0.0,0.0,0.0,0.0,0.0,0.0,0.0,0.0,0.0,0.0,0.0,0.0,0.0,0.0,0.0,0.0,0.0,0.0,0.0,0.0,0.0,0.0,0.0,0.0,0.0,0.0,0.0,0.0,0.0,0.0,0.0,0.0,0.0,0.0,0.0,0.0,0.0,0.0,0.0,0.0,0.0,0.0,0.0,0.0,0.0,0.0,0.0,0.0,0.0,0.0,0.0,0.0,0.0,0.0,0.0,0.0,0.0,0.0,0.0,0.0,0.0,0.0,0.0,0.0,0.0,0.0,0.0,0.0,0.0,0.0,0.0,0.0,0.0,0.0,0.0,0.0,0.0,0.0,0.0,0.0,0.0,0.0,0.0,0.0,0.0,0.0,0.0,0.0,0.0,0.0,0.0,0.0,0.0,0.0,0.0,0.0,0.0,0.0,0.0,0.0,0.0,0.0,0.0,0.0,0.0,0.0,0.0,0.0,0.0,0.0,0.0,0.0,0.0,0.0,0.0,0.0,0.0,0.0,0.0,0.0,0.0,0.0,0.0,0.0,0.0,0.0,0.0,0.0,0.0,0.0,0.0,0.0,0.0,0.0,0.0,0.0,0.0,0.0,0.0,0.0,0.0,0.0,0.0,0.0,0.0,0.0,0.0,0.0,0.0,0.0,0.0,0.0,0.0,0.0,0.0,0.0,0.0,0.0,0.0,0.0,0.0,0.0,0.0,0.0,0.0,0.0,0.0,0.0,0.0,0.0,0.0,0.0,0.0,0.0,0.0,0.0,0.0,0.0,0.0,0.0,0.0,0.0,0.0,0.0,0.0,0.0,0.0,0.0,0.0,0.0,0.0,0.0,0.0,0.0,0.0,0.0,0.0,0.0,0.0,0.0,0.0,0.0,0.0,0.0,0.0,0.0,0.0,0.0,0.0,0.0,0.0,0.0,0.0,0.0,0.0,0.0,0.0,0.0,0.0,0.0,0.0,0.0,0.0,0.0,0.0,0.0,0.0,0.0,0.0,0.0,0.0,0.0,0.0,0.0,0.0,0.0,0.0,0.0,0.0,0.0,0.0,0.0,0.0,0.0,0.0,0.0,0.0,0.0,0.0,0.0,0.0,0.0,0.0,0.0,0.0,0.0,0.0,0.0,0.0,0.0,0.0,0.0,0.0,0.0,0.0,0.0,0.0,0.0,0.0,0.0,0.0,0.0,0.0,0.0,0.0,0.0,0.0,0.0,0.0,0.0,0.0,0.0,0.0,0.0,0.0,0.0,0.0,0.0,0.0,0.0,0.0,0.0,0.0,0.0,0.0,0.0,0.0,0.0,0.0,0.0,0.0,0.0,0.0,0.0,0.0,0.0,0.0,0.0,0.0,0.0,0.0,0.0,0.0,0.0,0.0,0.0,0.0,0.0,0.0,0.0,0.0,0.0,0.0,0.0,0.0,0.0,0.0,0.0,0.0,0.0,0.0,0.0,0.0,0.0,0.0,0.0,0.0,0.0,0.0,0.0,0.0,0.0,0.0,0.0,0.0,0.0,0.0,0.0,0.0,0.0,0.0,0.0,0.0,0.0,0.0,0.0,0.0,0.0,0.0,0.0,0.0,0.0,0.0,0.0,0.0,0.0,0.0,0.0,0.0,0.0,0.0,0.0,0.0,0.0,0.0,0.0,0.0,0.0,0.0,0.0,0.0,0.0,0.0,0.0,0.0,0.0,0.0,0.0,0.0,0.0,0.0,0.0,0.0,0.0,0.0,0.0,0.0,0.0,0.0,0.0,0.0,0.0,0.0,0.0,0.0,0.0,0.0,0.0,0.0,0.0,0.0,0.0,0.0,0.0,0.0,0.0,0.0,0.0,0.0,0.0,0.0,0.0,0.0,0.0,0.0,0.0,0.0,0.0,0.0,0.0,0.0,0.0,0.0,0.0,0.0,0.0,0.0,0.0,0.0,0.0,0.0,0.0,0.0,0.0,0.0,0.0,0.0,0.0,0.0,0.0,0.0,0.0,0.0,0.0,0.0,0.0,0.0,0.0,0.0,0.0,0.0,0.0,0.0,0.0,0.0,0.0,0.0,0.0,0.0,0.0,0.0,0.0,0.0,0.0,0.0,0.0,0.0,0.0,0.0,0.0,0.0,0.0,0.0,0.0,0.0,0.0,0.0,0.0,0.0,0.0,0.0,0.0,0.0,0.0,0.0,0.0,0.0,0.0,0.0,0.0,0.0,0.0,0.0,0.0,0.0,0.0,0.0,0.0,0.0,0.0,0.0,0.0,0.0,0.0,0.0,0.0,0.0,0.0,0.0,0.0,0.0,0.0,0.0,0.0,0.0,0.0,0.0,0.0,0.0,0.0,0.0,0.0,0.0,0.0,0.0,0.0,0.0,0.0,0.0,0.0,0.0,0.0,0.0,0.0,0.0,0.0,0.0,0.0,0.0,0.0,0.0,0.0,0.0,0.0,0.0,0.0,0.0,0.0,0.0,0.0,0.0,0.0,0.0,0.0,0.0,0.0,0.0,0.0,0.0,0.0,0.0,0.0,0.0,0.0,0.0,0.0,0.0,0.0,0.0,0.0,0.0,0.0,0.0,0.0,0.0,0.0,0.0,0.0,0.0,0.0,0.0,0.0,0.0,0.0,0.0,0.0,0.0,0.0,0.0,0.0,0.0,0.0,0.0,0.0,0.0,0.0,0.0,0.0,0.0,0.0,0.0,0.0,0.0,0.0,0.0,0.0,0.0,0.0,0.0,0.0,0.0,0.0,0.0,0.0,0.0,0.0,0.0,0.0,0.0,0.0,0.0,0.0,0.0,0.0,0.0,0.0,0.0,0.0,0.0,0.0,0.0,0.0,0.0,0.0,0.0,0.0,0.0,0.0,0.0,0.0,0.0,0.0,0.0,0.0,0.0,0.0,0.0,0.0,0.0,0.0,0.0,0.0,0.0,0.0,0.0,0.0,0.0,0.0,0.0,0.0,0.0,0.0,0.0,0.0,0.0,0.0,0.0,0.0,0.0,0.0,0.0,0.0,0.0,0.0,0.0,0.0,0.0,0.0,0.0,0.0,0.0,0.0,0.0,0.0,0.0,0.0,0.0,0.0,0.0,0.0,0.0,0.0,0.0,0.0,0.0,0.0,0.0,0.0,0.0,0.0,0.0,0.0,0.0,0.0,0.0,0.0,0.0,0.0,0.0,0.0,0.0,0.0,0.0,0.0,0.0,0.0,0.0,0.0,0.0,0.0,0.0,0.0,0.0,0.0,0.0,0.0,0.0,0.0,0.0,0.0,0.0,0.0,0.0,0.0,0.0,0.0,0.0,0.0,0.0,0.0,0.0,0.0,0.0,0.0,0.0,0.0,0.0,0.0,0.0,0.0,0.0,0.0,0.0,0.0,0.0,0.0,0.0,0.0,0.0,0.0,0.0,0.0,0.0,0.0,0.0,0.0,0.0,0.0,0.0,0.0,0.0,0.0,0.0,0.0,0.0,0.0,0.0,0.0,0.0,0.0,0.0,0.0,0.0,0.0,0.0,0.0,0.0,0.0,0.0,0.0,0.0,0.0,0.0,0.0,0.0,0.0,0.0,0.0,0.0,0.0,0.0,0.0,0.0,0.0,0.0,0.0,0.0,0.0,0.0,0.0,0.0,0.0,0.0,0.0,0.0,0.0,0.0,0.0,0.0,0.0,0.0,0.0,0.0,0.0,0.0,0.0,0.0,0.0,0.0,0.0,0.0,0.0,0.0,0.0,0.0,0.0,0.0,0.0,0.0,0.0,0.0,0.0,0.0,0.0,0.0,0.0,0.0,0.0,0.0,0.0,0.0,0.0,0.0,0.0,0.0,0.0,0.0,0.0,0.0,0.0,0.0,0.0,0.0,0.0,0.0,0.0,0.0,0.0,0.0,0.0,0.0,0.0,0.0,0.0,0.0,0.0,0.0,0.0,0.0,0.0,0.0,0.0,0.0,0.0,0.0,0.0,0.0,0.0,0.0,0.0,0.0,0.0,0.0,0.0,0.0,0.0,0.0,0.0,0.0,0.0,0.0,0.0,0.0,0.0,0.0,0.0,0.0,0.0,0.0,0.0,0.0,0.0,0.0,0.0,0.0,0.0,0.0,0.0,0.0,0.0,0.0,0.0,0.0,0.0,0.0,0.0,0.0,0.0,0.0,0.0,0.0,0.0,0.0,0.0,0.0,0.0,0.0,0.0,0.0,0.0,0.0,0.0,0.0,0.0,0.0,0.0,0.0,0.0,0.0,0.0,0.0,0.0,0.0,0.0,0.0,0.0,0.0,0.0,0.0,0.0,0.0,0.0,0.0,0.0,0.0,0.0,0.0,0.0,0.0,0.0,0.0,0.0,0.0,0.0,0.0,0.0,0.0,0.0,0.0,0.0,0.0,0.0,0.0,0.0,0.0,0.0,0.0,0.0,0.0,0.0,0.0,0.0,0.0,0.0,0.0,0.0,0.0,0.0,0.0,0.0,0.0,0.0,0.0,0.0,0.0,0.0,0.0,0.0,0.0,0.0,0.0,0.0,0.0,0.0,0.0,-1.493,-1.6344,0.0,0.0,0.0,0.0,0.0,0.0,0.0,0.0,0.0,0.0,0.0,0.0,0.0,0.0,0.0,0.0,0.0,0.0,0.0,0.0,0.0,0.0,0.0,0.0,0.0,0.0,0.0,0.0,0.0,0.0,0.0,0.0,0.0,0.0,0.0,0.0,0.0,-1.0161,-1.0161,-1.008,-0.9869,-0.9856,-0.9822,-0.9822,0.0,0.0,0.0,0.0,0.0,0.0,0.0,0.0,0.0,0.0,0.0,0.0,0.0,0.0,0.0,0.0,0.0,0.0,0.0,0.0,0.0,0.0,0.0,0.0,0.0,0.0,0.0,0.0,0.0,0.0,0.0,0.0,0.0,0.0,0.0,0.0,0.0,0.0,0.0,0.0,0.0,0.0,0.0,0.0,0.0,0.0,0.0,0.0,0.0,0.0,0.0,0.0,0.0,0.0,0.0,0.0,0.0,0.0,0.0,0.0,0.0,0.0,0.0,0.0,0.0,0.0,0.0,0.0,0.0,0.0,-1.3006,-1.4796,0.0,0.0,0.0,0.0,0.0,0.0,0.0,0.0,0.0,0.0,0.0,0.0,0.0,0.0,0.0,0.0,0.0,0.0,0.0,0.0,0.0,0.0,0.0,-1.0717,-1.0717,-1.0717,-1.0717,-1.0717,0.0,0.0,0.0,0.0,0.0,0.0,-1.0358,-1.0358,-1.0344,-1.0317,-1.029,-1.0215,-1.0024,-0.9958,-0.9903,-0.9897,-0.9842,0.0,0.0,0.0,0.0,0.0,0.0,0.0,0.0,0.0,0.0,0.0,0.0,0.0,0.0,0.0,0.0,0.0,0.0,0.0,0.0,0.0,0.0,0.0,0.0,0.0,0.0,0.0,0.0,0.0,0.0,0.0,0.0,0.0,0.0,0.0,0.0,0.0,0.0,0.0,0.0,0.0,0.0,0.0,0.0,0.0,0.0,0.0,0.0,0.0,0.0,0.0,0.0,0.0,0.0,0.0,0.0,0.0,0.0,0.0,0.0,0.0,0.0,0.0,-1.1927,-1.124,-1.124,-1.124,-1.1314,-1.1423,-1.1321,-1.2981,-1.5611,-1.4379,0.0,0.0,0.0,0.0,0.0,0.0,0.0,0.0,0.0,0.0,0.0,0.0,0.0,0.0,0.0,0.0,0.0,0.0,0.0,0.0,0.0,-1.0717,-1.0717,-1.0717,-1.0717,-1.0717,-1.0717,0.0,0.0,0.0,0.0,0.0,-1.0663,-1.0663,-1.0595,-1.0466,-1.0337,-1.027,-1.0249,-1.0229,-1.0222,-1.0209,-0.9944,-0.9822,-0.9822,0.0,0.0,0.0,0.0,0.0,0.0,0.0,0.0,0.0,0.0,0.0,0.0,0.0,0.0,0.0,0.0,0.0,0.0,0.0,0.0,0.0,0.0,0.0,0.0,0.0,0.0,0.0,0.0,0.0,0.0,0.0,0.0,0.0,0.0,0.0,0.0,0.0,0.0,0.0,0.0,0.0,-1.1104,-1.1104,0.0,0.0,0.0,0.0,0.0,0.0,0.0,0.0,0.0,0.0,0.0,0.0,0.0,-1.1913,-1.205,-1.1846,-1.1776,-1.1909,-1.163,-1.1558,-1.1558,-1.1558,-1.1572,-1.1592,-1.1701,0.0,-1.2401,-1.3728,0.0,0.0,0.0,0.0,0.0,0.0,0.0,0.0,0.0,0.0,0.0,0.0,0.0,0.0,0.0,0.0,0.0,0.0,0.0,0.0,0.0,-1.0717,-1.0717,-1.0717,-1.0717,-1.0717,-1.0717,-1.0717,0.0,0.0,0.0,-1.0717,-1.0717,-1.0717,-1.0683,-1.0622,-1.0473,-1.0399,-1.0399,-1.0317,-1.0283,-1.0276,-1.0141,-1.0032,-0.9883,-0.9856,0.0,0.0,0.0,0.0,0.0,0.0,0.0,0.0,0.0,0.0,0.0,0.0,0.0,0.0,0.0,0.0,0.0,0.0,0.0,0.0,0.0,0.0,0.0,0.0,0.0,0.0,0.0,0.0,0.0,0.0,0.0,0.0,0.0,0.0,0.0,0.0,0.0,0.0,0.0,-1.1124,-1.1234,-1.1234,-1.1234,-1.1234,0.0,0.0,0.0,0.0,0.0,0.0,0.0,0.0,0.0,-1.1416,-1.1497,-1.1572,-1.164,-1.1721,-1.1803,-1.187,-1.187,-1.187,-1.187,-1.187,-1.187,-1.187,-1.1932,-1.1925,-1.1944,-1.2802,-1.547,-1.9135,0.0,0.0,0.0,0.0,-2.338,-2.338,0.0,0.0,0.0,0.0,0.0,0.0,0.0,0.0,0.0,0.0,0.0,0.0,-1.0717,-1.0717,-1.0717,-1.0717,-1.0717,-1.0717,-1.0717,-1.0717,-1.0717,-1.0717,-1.0717,-1.0717,-1.0717,-1.0717,-1.0717,-1.0717,-1.0609,-1.0548,-1.0548,-1.0439,-1.0392,-1.0392,-1.0351,-1.0249,-1.01,-0.9985,-0.9937,-0.9937,0.0,0.0,0.0,0.0,0.0,0.0,0.0,0.0,0.0,0.0,0.0,0.0,0.0,0.0,0.0,0.0,0.0,0.0,0.0,0.0,0.0,0.0,0.0,0.0,0.0,0.0,0.0,0.0,0.0,0.0,0.0,0.0,0.0,0.0,0.0,0.0,0.0,-1.1253,-1.128,-1.128,-1.128,-1.128,0.0,0.0,0.0,0.0,0.0,0.0,-1.1721,-1.1735,-1.1735,-1.1735,-1.187,-1.1952,-1.1952,-1.2101,-1.2176,-1.2176,-1.2176,-1.2176,-1.2176,-1.2176,-1.2176,-1.2176,-1.2216,-1.223,-1.2299,-1.27,-1.5653,-1.9876,-1.8996,-2.0754,-2.3768,-2.3768,-2.3768,-2.3768,0.0,0.0,0.0,0.0,0.0,0.0,0.0,0.0,0.0,0.0,0.0,-1.0717,-1.0717,-1.0717,-1.0717,-1.0717,-1.0717,-1.0717,-1.0717,-1.0717,-1.0717,-1.0717,-1.0717,-1.0717,-1.0717,-1.0717,-1.0717,-1.0717,-1.0711,-1.0711,-1.0711,-1.0704,-1.0697,-1.069,-1.0548,-1.0399,-1.027,-1.0263,-1.0256,-1.0243,-1.01,0.0,0.0,0.0,0.0,0.0,0.0,0.0,0.0,0.0,0.0,0.0,0.0,0.0,0.0,0.0,0.0,0.0,0.0,0.0,0.0,0.0,0.0,0.0,0.0,0.0,0.0,0.0,0.0,0.0,0.0,0.0,0.0,0.0,0.0,0.0,0.0,0.0,0.0,-1.1599,-1.1599,0.0,0.0,0.0,0.0,-1.1796,-1.1809,-1.1877,-1.2033,-1.204,-1.204,-1.204,-1.2189,-1.2264,-1.2264,-1.2406,-1.2481,-1.2481,-1.2481,-1.2481,-1.2481,-1.2481,-1.2481,-1.2488,-1.263,-1.2698,-1.2821,-1.4319,-1.6159,-1.8196,-2.001,-2.2001,-2.3768,-2.3768,-2.3768,-2.3768,0.0,0.0,0.0,0.0,0.0,0.0,0.0,0.0,-1.0717,-1.0717,-1.0717,-1.0717,-1.0717,-1.0717,-1.0717,-1.0717,-1.0717,-1.0717,-1.0717,-1.0717,-1.0717,-1.0717,-1.0717,-1.0717,-1.0717,-1.0717,-1.0717,-1.0717,-1.0717,-1.0717,-1.0717,-1.0717,-1.0717,-1.0717,-1.0663,-1.0609,-1.0555,-1.0365,-1.0283,-1.0276,-1.0222,-1.0202,0.0,0.0,0.0,0.0,0.0,0.0,0.0,0.0,0.0,0.0,0.0,0.0,0.0,0.0,0.0,0.0,0.0,0.0,0.0,0.0,0.0,0.0,0.0,0.0,0.0,0.0,0.0,0.0,0.0,0.0,0.0,0.0,0.0,0.0,0.0,0.0,0.0,-1.1742,-1.1755,0.0,-1.1891,-1.1904,-1.1925,-1.1979,-1.1979,-1.2047,-1.2203,-1.221,-1.225,-1.2338,-1.2494,-1.2576,-1.2576,-1.2725,-1.3497,-1.4892,-1.4892,-1.5668,-1.6979,-1.5512,-1.4892,-1.4892,-1.4956,-1.4987,-1.5208,-1.8471,-1.9451,-1.8917,-2.1121,-2.3117,-2.4877,-2.469,-2.4609,-2.4609,0.0,0.0,0.0,0.0,0.0,0.0,0.0,0.0,-1.0717,-1.0717,-1.0717,-1.0717,-1.0717,-1.0717,-1.0717,-1.0717,-1.0717,-1.0717,-1.0717,-1.0717,-1.0717,-1.0717,-1.0717,-1.0717,-1.0717,-1.0717,-1.0744,-1.0799,-1.0799,-1.0819,-1.0867,-1.0867,-1.0846,-1.0799,-1.0799,-1.0772,-1.0711,-1.0514,-1.0426,-1.0426,-1.0371,-1.0351,-1.0344,0.0,0.0,0.0,0.0,0.0,0.0,0.0,0.0,0.0,0.0,0.0,0.0,0.0,0.0,0.0,0.0,0.0,0.0,0.0,0.0,0.0,0.0,0.0,0.0,0.0,0.0,0.0,0.0,0.0,0.0,0.0,0.0,0.0,0.0,-1.1735,-1.1803,-1.1898,-1.1911,-1.1952,-1.2128,-1.2108,-1.2155,-1.2203,-1.2257,-1.2352,-1.2508,-1.2515,-1.2562,-1.2651,-1.28,-1.2881,-1.2881,-1.3748,-1.4942,-1.6364,-1.6364,-1.7474,-1.9541,-1.7315,-1.6764,-1.7483,-1.7483,-1.7483,-1.7723,-2.1278,-2.1839,-2.0716,-2.2746,-2.4329,-2.5491,-2.5291,-2.5224,-2.5224,0.0,0.0,0.0,0.0,0.0,0.0,0.0,-1.0717,-1.0717,-1.0717,-1.0717,-1.0717,-1.0717,-1.0717,-1.0717,-1.0717,-1.0717,-1.0717,-1.0717,-1.0717,-1.0717,-1.0717,-1.0717,-1.0724,-1.0724,-1.0724,-1.0806,-1.0887,-1.0887,-1.1029,-1.1234,-1.1234,-1.109,-1.0887,-1.0887,-1.0799,-1.0724,-1.0724,-1.0724,-1.0711,-1.0561,-1.05,-1.0487,0.0,0.0,0.0,0.0,0.0,0.0,0.0,0.0,0.0,0.0,0.0,0.0,0.0,0.0,0.0,0.0,0.0,0.0,0.0,0.0,0.0,0.0,0.0,0.0,0.0,0.0,0.0,0.0,0.0,0.0,0.0,0.0,0.0,-1.1857,-1.1965,-1.206,-1.2142,-1.2149,-1.2081,-1.2081,-1.2223,-1.2366,-1.2508,-1.2651,-1.2807,-1.3043,-1.305,-1.2969,-1.2983,-1.3112,-1.3186,-1.3193,-1.5443,-1.6664,-1.6746,-1.6828,-1.7964,-2.0089,-1.781,-1.7973,-2.0008,-2.0008,-2.0008,-2.017,-2.2361,-2.3244,-2.3357,-2.4894,-2.5545,-2.5545,-2.5531,-2.5531,-2.5531,0.0,0.0,0.0,0.0,0.0,0.0,0.0,-1.0717,-1.0717,-1.0717,-1.0717,-1.0717,-1.0717,-1.0717,-1.0717,-1.0717,-1.0717,-1.0717,-1.0717,-1.0717,-1.0717,-1.0717,-1.0717,-1.0772,-1.0813,-1.082,-1.0955,-1.1104,-1.1104,-1.1124,-1.1234,-1.1234,-1.1138,-1.1104,-1.1104,-1.1023,-1.082,-1.082,-1.0819,-1.0717,-1.0677,-1.0656,-1.0656,0.0,0.0,0.0,0.0,0.0,0.0,0.0,0.0,0.0,0.0,0.0,0.0,0.0,0.0,0.0,0.0,0.0,0.0,0.0,0.0,0.0,0.0,0.0,0.0,0.0,0.0,0.0,0.0,0.0,0.0,0.0,-1.2155,-1.2176,-1.202,-1.2033,-1.2176,-1.2216,-1.2318,-1.2427,-1.2535,-1.2684,-1.2793,-1.2834,-1.2874,-1.2963,-1.3105,-1.3112,-1.3214,-1.3437,-1.3485,-1.3553,-1.3654,-1.5945,-1.7882,-1.9541,-2.12,-2.3106,-2.5188,-2.2942,-2.2284,-2.2871,-2.2871,-2.2871,-2.3036,-2.5282,-2.619,-2.6138,-2.6136,-2.6146,-2.6119,-2.5919,-2.5838,-2.5838,0.0,0.0,0.0,0.0,0.0,0.0,0.0,-1.0717,-1.0717,-1.0717,-1.0717,-1.0717,-1.0717,-1.0717,-1.0717,-1.0717,-1.0717,-1.0717,-1.0717,-1.0717,-1.0717,-1.0717,-1.0778,-1.0793,-1.088,-1.1009,-1.1111,-1.126,-1.126,-1.1294,-1.1355,-1.1355,-1.1321,-1.126,-1.126,-1.1179,-1.1036,-1.0975,-1.0833,-1.0812,-1.0744,-1.0717,-1.0717,-1.0717,-1.0717,-1.0717,-1.0717,-1.0717,-1.0717,-1.0717,0.0,0.0,0.0,0.0,0.0,0.0,0.0,0.0,0.0,0.0,0.0,0.0,0.0,0.0,0.0,0.0,0.0,0.0,0.0,0.0,0.0,0.0,0.0,0.0,-1.2318,-1.2372,-1.2345,-1.2338,-1.2372,-1.2467,-1.2603,-1.2732,-1.282,-1.2963,-1.3051,-1.3051,-1.3166,-1.3275,-1.3356,-1.3417,-1.3532,-1.3709,-1.3715,-1.4174,-1.5275,-1.7544,-1.98,-2.2067,-2.3407,-2.5166,-2.7186,-2.5001,-2.4494,-2.5413,-2.5413,-2.5413,-2.5495,-2.6764,-2.7268,-2.7215,0.0,0.0,0.0,0.0,-2.6132,-2.6132,0.0,0.0,0.0,0.0,0.0,0.0,0.0,-1.0717,-1.0717,-1.0717,-1.0717,-1.0717,-1.0717,-1.0717,-1.0717,-1.0717,-1.0717,-1.0717,-1.0717,-1.0717,-1.0724,-1.0744,-1.0806,-1.0894,-1.0927,-1.1124,-1.126,-1.1416,-1.1416,-1.1484,-1.1619,-1.1619,-1.1545,-1.1416,-1.1416,-1.1335,-1.1179,-1.105,-1.0907,-1.0867,-1.0799,-1.0738,-1.0717,-1.0717,-1.0717,-1.0717,-1.0717,-1.0717,-1.0724,-1.0738,0.0,0.0,0.0,0.0,0.0,0.0,0.0,0.0,0.0,0.0,0.0,0.0,0.0,0.0,0.0,0.0,0.0,0.0,0.0,0.0,0.0,0.0,0.0,0.0,-1.2528,-1.2583,-1.2732,-1.2766,-1.2773,-1.2759,-1.2895,-1.2983,-1.2983,-1.3112,-1.3207,-1.322,-1.3478,-1.3634,-1.3654,-1.377,0.0,0.0,0.0,-1.5149,-1.7809,-1.9738,-2.1862,-2.4163,-2.4425,-2.56,-2.7468,-2.5434,-2.56,-2.7468,-2.7468,-2.7442,-2.7415,-2.7415,-2.7375,-2.7281,-2.6987,-2.6867,-2.6841,-2.6587,-2.6493,-2.6493,0.0,0.0,0.0,0.0,0.0,0.0,0.0,-1.0717,-1.0717,-1.0717,-1.0717,-1.0717,-1.0717,-1.0717,-1.0717,-1.0717,-1.0717,-1.0717,-1.0717,-1.0717,-1.0772,-1.0833,-1.0867,-1.1063,-1.1301,-1.1335,-1.1423,-1.1572,-1.1572,-1.1592,-1.1619,-1.1619,-1.1606,-1.1572,-1.1572,-1.1491,-1.1348,-1.1314,-1.1165,-1.088,-1.0847,-1.0833,-1.0717,-1.0717,-1.0717,-1.0717,-1.0717,-1.0717,-1.0738,-1.0793,-1.084,-1.086,-1.1077,-1.1206,0.0,0.0,0.0,0.0,0.0,0.0,0.0,0.0,0.0,0.0,0.0,0.0,0.0,0.0,0.0,0.0,0.0,0.0,0.0,-1.2664,-1.2684,-1.2739,-1.2895,-1.3017,-1.3044,-1.2929,-1.3044,-1.3132,-1.3132,-1.3268,-1.341,-1.3532,-1.3593,-1.3682,-1.379,-1.3824,-1.4743,-1.6755,-1.4967,-1.6206,-2.084,-2.1276,-2.2761,-2.5335,-2.7193,0.0,-2.8698,-2.8254,-2.8254,-2.8698,-2.8698,-2.8564,-2.835,-2.835,-2.8056,-2.7589,-2.7295,-2.7175,-2.7175,-2.7121,-2.7094,-2.7094,0.0,0.0,0.0,0.0,0.0,0.0,0.0,-1.0717,-1.0717,-1.0717,-1.0717,-1.0717,-1.0717,-1.0717,-1.0717,-1.0717,-1.0717,-1.0717,-1.0717,-1.0717,-1.0785,-1.0873,-1.1016,-1.1158,-1.1389,-1.1463,-1.1545,-1.1619,-1.1619,-1.1619,-1.1619,-1.1619,-1.1619,-1.1619,-1.1619,-1.1579,-1.1497,-1.1423,-1.126,-1.105,-1.0907,-1.0793,-1.0717,-1.0717,-1.0717,-1.0717,-1.0717,-1.0772,-1.0779,-1.0853,-1.0995,-1.1084,-1.1233,-1.1328,-1.1409,0.0,0.0,0.0,0.0,0.0,0.0,0.0,0.0,0.0,0.0,0.0,0.0,0.0,0.0,-1.2501,-1.2501,0.0,-1.2637,-1.2718,-1.2793,-1.2895,-1.3044,-1.3125,-1.3146,-1.3078,-1.32,-1.3315,-1.3397,-1.3471,-1.358,-1.3722,-1.3804,-1.3885,-1.3953,-1.4095,-1.525,-1.7763,-1.6808,-1.8602,-2.3578,-2.3666,-2.4887,-2.7334,-2.8496,-2.9045,-2.9045,-2.9045,-2.9045,-2.9045,-2.9045,-2.8951,-2.8818,-2.8818,-2.8644,-2.835,-2.8217,-2.7789,-2.7268,-2.7268,-2.7268,-2.7268,0.0,0.0,0.0,0.0,0.0,0.0,0.0,-1.0717,-1.0717,-1.0717,-1.0717,-1.0717,-1.0717,-1.0717,-1.0717,-1.0717,-1.0717,-1.0717,-1.0717,-1.0717,-1.0785,-1.0873,-1.1084,-1.1233,-1.1389,-1.1538,-1.1619,-1.1619,-1.1619,-1.1619,-1.1619,-1.1619,-1.1619,-1.1619,-1.1619,-1.1619,-1.1613,-1.1491,-1.1328,-1.122,-1.1036,-1.088,-1.0717,-1.0717,-1.0717,-1.0724,-1.0751,-1.0846,-1.0887,-1.0948,-1.1111,-1.1233,-1.1389,-1.1436,-1.1457,-1.1586,-1.1619,0.0,0.0,0.0,0.0,0.0,0.0,0.0,0.0,-1.2501,-1.2501,-1.2501,-1.2522,-1.2549,-1.2549,-1.2671,-1.2786,-1.2813,-1.2922,-1.3051,-1.32,-1.3214,-1.3227,-1.3261,-1.337,-1.3492,-1.3614,-1.3654,-1.3729,-1.3871,-1.4027,-1.4384,-1.4842,-1.5113,-1.6592,-1.9496,-1.9303,-2.1462,-2.6342,-2.589,-2.682,-2.9205,-2.9205,-2.9205,-2.9205,-2.9205,-2.9205,-2.9205,-2.9152,-2.9125,-2.9125,-2.9058,-2.9045,-2.9045,-2.9045,-2.8457,-2.7615,-2.7615,-2.7615,-2.7615,0.0,0.0,0.0,0.0,0.0,0.0,0.0,0.0,-1.0717,-1.0717,-1.0717,-1.0717,-1.0717,-1.0717,-1.0717,-1.0717,-1.0717,-1.0717,-1.0717,-1.0717,-1.0785,-1.0873,-1.1084,-1.1233,-1.1389,-1.1538,-1.1619,-1.1619,-1.1619,-1.1619,-1.1619,-1.1619,-1.1619,-1.1619,-1.1619,-1.1619,-1.1619,-1.1599,-1.1423,-1.1227,-1.1214,-1.0968,-1.0717,-1.0717,-1.0717,-1.0738,-1.0806,-1.0867,-1.0921,-1.1253,-1.1355,-1.1396,-1.1545,-1.1592,-1.1599,-1.1613,-1.1619,-1.1647,-1.1775,-1.2006,-1.2223,-1.2257,-1.2372,-1.2481,0.0,-1.2501,-1.2501,-1.2501,-1.261,-1.2705,-1.2705,-1.2834,-1.2976,-1.3105,-1.3139,-1.32,-1.3356,-1.3376,-1.3424,-1.3559,-1.3593,-1.3607,-1.3627,-1.3743,-1.3878,-1.4034,-1.419,-1.5285,-1.7612,-1.7909,-2.0064,-2.4615,-2.2757,-2.4041,-2.8978,-2.6977,-2.7278,-2.982,-2.982,-2.982,-2.982,-2.982,-2.982,-2.9806,-2.9553,-2.9432,-2.9419,-2.9152,-2.9045,-2.9045,-2.9045,-2.8965,-2.8845,-2.8845,-2.8845,-2.8845,0.0,0.0,0.0,0.0,0.0,0.0,0.0,0.0,0.0,-1.0717,-1.0717,-1.0717,-1.0717,-1.0717,-1.0717,-1.0717,-1.0717,-1.0717,-1.0717,-1.0717,-1.0785,-1.0873,-1.1002,-1.1151,-1.1389,-1.1457,-1.1531,-1.1619,-1.1619,-1.1619,-1.1619,-1.1619,-1.1619,-1.1619,-1.1619,-1.1619,-1.1613,-1.1525,-1.1362,-1.1158,-1.107,-1.0907,-1.0717,-1.0717,-1.0772,-1.0793,-1.086,-1.1002,0.0,-1.1321,-1.145,-1.1538,-1.1599,-1.1619,-1.1619,-1.1619,-1.1681,-1.1775,-1.1925,-1.2121,-1.2291,-1.2291,-1.2393,-1.2501,-1.2501,-1.2569,-1.2637,-1.2637,-1.2759,-1.2868,-1.2868,-1.2983,-1.3105,-1.3166,-1.3247,-1.3329,-1.339,-1.3478,-1.3559,-1.362,-1.3783,-1.3885,-1.3885,-1.513,-1.6129,-1.6481,-1.7794,-1.9149,-2.0406,-2.0615,-2.226,-2.5677,-2.4924,-2.6139,-2.9726,-2.8718,-2.8783,-2.9913,-2.9913,-2.9913,-2.9913,-2.9913,-2.9913,-2.9913,-2.978,-2.974,-2.9726,-2.9606,-2.9553,-2.9553,-2.9553,-2.9553,-2.9513,-2.9165,-2.9045,-2.9045,0.0,0.0,0.0,0.0,0.0,0.0,0.0,0.0,0.0,0.0,-1.0656,-1.0656,-1.0656,-1.0697,-1.0717,-1.0717,-1.0717,-1.0717,-1.0717,-1.0717,-1.0772,-1.0813,-1.086,-1.0981,-1.1267,-1.1307,-1.1382,-1.1491,-1.1491,-1.1491,-1.1491,-1.1491,-1.1491,-1.1491,-1.1491,-1.1491,-1.1484,-1.1375,-1.124,-1.1097,-1.0989,-1.0793,-1.0717,-1.0717,-1.0745,-1.0887,-1.0995,-1.1104,-1.1246,-1.1402,-1.1531,-1.1619,-1.1619,-1.1619,-1.1619,-1.1619,-1.1748,-1.1932,-1.2081,-1.2237,-1.2345,-1.2345,-1.2909,-1.3479,-1.3479,-1.361,-1.3648,-1.3648,-1.3307,-1.3097,-1.3097,-1.3619,-1.4119,-1.4119,-1.4257,-1.4365,-1.4365,-1.4503,-1.4619,-1.467,-1.5466,-1.6073,-1.6166,-1.6522,-1.7405,-1.907,-2.0163,-2.1541,-2.313,-2.3274,-2.4496,-2.7035,-2.714,-2.8076,-2.9913,-2.9993,-3.0034,-3.0034,-3.0127,-3.0154,-3.0154,-3.0154,-3.0154,-3.0154,-3.0154,-3.0154,-3.0154,-3.0154,-3.0154,-3.0154,-3.0154,-3.0154,-3.01,-2.9673,-2.9419,-2.9285,0.0,0.0,0.0,0.0,0.0,0.0,0.0,0.0,0.0,0.0,0.0,0.0,0.0,-1.0629,-1.0717,-1.0717,-1.0717,-1.0717,-1.0717,-1.0717,-1.0724,-1.0724,-1.0799,-1.0887,-1.0894,-1.1097,-1.1241,-1.1179,-1.1179,-1.1179,-1.1179,-1.1179,-1.1179,-1.1179,-1.1179,-1.1179,-1.1179,-1.1241,-1.1084,-1.0887,-1.088,-1.0793,-1.0717,-1.0717,-1.0745,-1.09,-1.1104,-1.1253,-1.1409,-1.1558,-1.1613,-1.1619,-1.1619,-1.1619,-1.1619,-1.1619,-1.1823,-1.2088,-1.2244,-1.2386,-1.2494,-1.2494,-1.4222,-1.5888,-1.5888,-1.6032,-1.6089,-1.6089,-1.4574,-1.3166,-1.3166,-1.4988,-1.6475,-1.6475,-1.6634,-1.676,-1.676,-1.7003,-1.7264,-1.7365,-1.9438,-2.0974,-2.1407,-1.7315,-1.653,-2.1204,-1.9806,-2.0752,-2.564,-2.5987,-2.7226,-2.9721,-2.9824,-2.9824,-2.9913,-3.0207,-3.0341,-3.0354,-3.0635,-3.0768,-3.0768,-3.0768,-3.0768,-3.0768,-3.0768,-3.0768,-3.0768,-3.0768,-3.0768,-3.0768,-3.0768,-3.0768,-3.0768,-3.0742,-3.0381,-2.9887,0.0,0.0,0.0,0.0,0.0,0.0,0.0,0.0,0.0,0.0,0.0,0.0,0.0,0.0,0.0,0.0,-1.0426,-1.0466,-1.0561,-1.0568,-1.0616,-1.0717,-1.0772,-1.0779,-1.088,-1.0995,-1.107,-1.1234,-1.1234,-1.1234,-1.1234,-1.1234,-1.1234,-1.1234,-1.1234,-1.1234,-1.1158,-1.1063,-1.0995,-1.0873,-1.0772,-1.0765,-1.0717,-1.0717,-1.0873,-1.1097,0.0,-1.126,-1.1416,-1.1565,-1.1619,-1.1619,-1.1619,-1.1619,-1.166,-1.1857,-1.3,-1.4243,-1.4425,-1.4436,-1.4883,-1.6454,-1.6311,-1.632,-1.792,-1.725,-1.6364,-1.6364,-1.5869,-1.5428,-1.5428,-1.4908,-1.5471,-1.854,-1.7962,-1.7636,-1.9266,-1.9635,-1.9788,-1.9856,-2.0806,-2.2078,-2.3816,-2.2518,-2.2381,-2.4385,-2.538,-2.6641,-2.8463,-2.8668,-2.9079,-2.9824,-3.0114,-3.0207,-3.0207,-3.0501,-3.0648,-3.0648,-3.0742,-3.0795,-3.0795,-3.0795,-3.0795,-3.0795,-3.0795,-3.0795,-3.0795,-3.0795,-3.0795,-3.0795,-3.0795,-3.0795,-3.0795,-3.0795,-3.0675,-3.0501,0.0,0.0,0.0,0.0,0.0,0.0,0.0,0.0,0.0,0.0,0.0,0.0,0.0,0.0,0.0,0.0,0.0,-1.0317,-1.0412,-1.0419,-1.046,-1.0561,-1.0609,-1.0683,-1.0785,-1.0772,-1.0914,-1.1002,-1.1002,-1.1002,-1.1002,-1.1002,-1.1002,-1.1002,-1.1002,-1.1002,-1.0995,-1.0907,-1.0799,-1.0793,-1.0758,-1.0717,-1.0717,-1.0717,-1.0907,0.0,-1.1234,-1.1294,-1.1491,-1.1586,-1.1619,-1.1691,-1.2395,-1.3141,-1.3818,-1.4106,-1.5191,-1.643,-1.6703,-1.6784,-1.7137,-1.8725,-1.8767,-1.871,-2.033,-1.9125,-1.7844,-1.865,-1.762,-1.6811,-1.7629,-1.7363,-1.8019,-2.1032,-2.0445,-2.0179,-2.1757,-2.2234,-2.2321,-2.2492,-2.3464,-2.4789,-2.6486,-2.6685,-2.6821,-2.7179,-2.794,-2.8808,-2.981,-2.9913,-2.9967,-3.0074,-3.0261,-3.0408,-3.0515,-3.0808,-3.0996,-3.1102,-3.1102,-3.1102,-3.1102,-3.1102,-3.1102,-3.1102,-3.1102,-3.1102,-3.1102,-3.1102,-3.1102,-3.1102,-3.1102,-3.1102,-3.1102,-3.1102,-3.1102,-3.1076,0.0,0.0,0.0,0.0,0.0,0.0,0.0,0.0,0.0,0.0,0.0,0.0,0.0,0.0,0.0,0.0,0.0,0.0,-1.027,-1.027,-1.027,-1.0283,-1.0412,-1.048,-1.048,-1.0622,-1.0704,-1.0711,-1.0711,-1.0711,-1.0717,-1.0717,-1.0717,-1.0717,-1.0717,-1.0717,-1.0717,-1.0717,-1.0717,-1.0717,-1.0717,-1.0717,-1.0717,-1.0717,-1.09,-1.122,-1.1227,-1.1355,-1.1613,-1.1685,-1.1828,-1.2187,-1.3872,-1.5988,-1.7857,-1.7917,-1.814,-1.8574,-1.9014,-1.9137,-1.9275,-1.9657,-2.1301,-2.291,-2.3079,-2.1519,-2.0635,-2.2659,-1.9816,-1.7538,-1.9664,-2.1882,-2.3528,-2.3714,-2.4057,-2.4219,-2.4399,-2.472,-2.4968,-2.5216,-2.7302,-2.8871,-2.9432,-2.9499,-2.9499,-2.9499,-2.7553,-2.7431,-2.985,-2.994,-3.0074,-3.0381,-3.0394,-3.0541,-3.0808,-3.1102,-3.1383,-3.1664,-3.1664,-3.1664,-3.1664,-3.1664,-3.1664,-3.1664,-3.1664,-3.1664,-3.1664,-3.1664,-3.1664,-3.1664,-3.1664,-3.1664,-3.1664,-3.1664,-3.1664,-3.1583,0.0,0.0,0.0,0.0,0.0,0.0,0.0,0.0,0.0,0.0,0.0,0.0,0.0,0.0,0.0,0.0,0.0,0.0,-1.01,-1.0107,-1.0161,-1.0276,-1.0317,-1.0337,-1.0337,-1.0371,-1.0446,-1.0548,-1.0548,-1.0609,-1.0717,-1.0717,-1.0717,-1.0717,-1.0717,-1.0717,-1.0717,-1.0717,-1.0717,-1.0717,-1.0717,-1.0717,-1.0717,-1.0717,-1.0839,-1.1016,-1.1124,-1.1287,-1.1676,-1.3191,-1.4645,-1.5637,-1.4716,-1.7011,-1.9786,-1.8321,-1.9414,-2.1046,-2.117,-2.1417,-2.202,-2.386,-2.3502,-2.3206,-2.5097,-2.3823,-2.2419,-2.298,-2.2247,-2.1592,-2.2166,-2.1638,-2.2266,-2.5778,-2.5268,-2.5047,-2.6883,-2.7421,-2.7641,-2.7719,-2.863,-2.9325,-2.9472,-2.9673,-2.9806,-2.9806,-2.9322,-2.9363,-3.0234,-3.0247,-3.0381,-3.0675,-3.0889,-3.1036,-3.1116,-3.141,-3.1597,-3.1664,-3.1664,-3.1664,-3.1664,-3.1664,-3.1664,-3.1664,-3.1664,-3.1664,-3.1664,-3.1664,-3.1664,-3.1664,-3.1664,-3.1664,-3.1664,-3.1664,-3.1664,-3.165,0.0,0.0,0.0,0.0,0.0,0.0,0.0,0.0,0.0,0.0,0.0,0.0,0.0,0.0,0.0,0.0,0.0,0.0,0.0,-0.9889,-0.9985,-1.0073,-1.0141,-1.0181,-1.0181,-1.0243,-1.0317,-1.0399,-1.0399,-1.0439,-1.0527,-1.0588,-1.0622,-1.0622,-1.069,-1.0717,-1.0717,-1.0717,-1.0717,0.0,0.0,-1.0717,-1.0717,-1.0717,-1.0745,-1.09,-1.1111,-1.2403,-1.3883,-1.3349,-1.5,-1.6916,-1.5096,-1.8062,-2.1798,-1.9927,-2.1238,-2.3404,-2.3516,-2.3753,-2.4351,-2.5831,-2.5256,-2.4651,-2.6109,-2.4681,-2.338,-2.435,-2.3792,-2.3416,-2.4511,-2.4016,-2.4279,-2.7073,-2.6684,-2.6618,-2.8127,-2.8497,-2.8698,-2.8965,-2.9285,-2.9539,-2.9659,-2.982,-2.9967,-3.01,-3.0114,-3.0181,-3.0354,-3.0474,-3.0688,-3.0969,-3.1142,-3.1289,-3.1423,-3.1583,-3.1664,-3.1664,-3.1664,-3.1664,-3.1664,-3.1664,-3.1664,-3.1664,-3.1664,-3.1664,-3.1664,-3.1664,-3.1664,-3.1664,-3.1664,-3.1664,-3.1664,-3.1664,-3.1664,-3.1664,0.0,0.0,0.0,0.0,0.0,0.0,0.0,0.0,0.0,0.0,0.0,0.0,0.0,0.0,0.0,0.0,0.0,0.0,0.0,0.0,-0.9822,-0.9822,-0.9883,-0.9957,-0.9957,-1.0148,-1.0229,-1.0249,-1.0249,-1.0263,-1.0283,-1.0405,-1.0466,-1.0473,-1.0622,-1.069,-1.069,-1.0711,-1.0717,-1.0717,-1.0717,-1.0717,-1.0717,0.0,-1.0806,-1.0873,-1.1104,-1.3501,-1.599,-1.2681,-1.4441,-1.764,-1.5731,-1.9112,-2.3535,-2.208,-2.3302,-2.5197,-2.5491,-2.5785,-2.6079,-2.6333,-2.6386,-2.6386,-2.6386,-2.492,-2.4111,-2.5977,-2.484,-2.4197,-2.6439,-2.7068,-2.7362,-2.7655,-2.7976,-2.8297,-2.8564,-2.8671,-2.8911,-2.9419,-2.9513,-2.9659,-2.994,-2.998,-3.01,-3.0394,-3.0448,-3.0474,-3.0474,-3.0715,-3.0982,-3.1276,-3.1289,-3.141,-3.1664,-3.1664,-3.1664,-3.1664,-3.1664,-3.1664,-3.1664,-3.1664,-3.1664,-3.1664,-3.1664,-3.1664,-3.1664,-3.1664,-3.1664,-3.1664,-3.1664,-3.1664,-3.1664,-3.1664,-3.1664,-3.1664,0.0,0.0,0.0,0.0,0.0,0.0,0.0,0.0,0.0,0.0,-0.9822,-0.9822,0.0,0.0,0.0,0.0,0.0,0.0,0.0,0.0,0.0,-0.9822,-0.9842,-0.9863,-0.9863,-0.9883,-0.9964,-1.0031,-1.0031,-1.0154,-1.0283,-1.0304,-1.0317,-1.0324,-1.0466,-1.0534,-1.0541,-1.0663,-1.0717,-1.0717,-1.0717,-1.0717,-1.0717,-1.0717,-1.0738,0.0,-1.1063,-1.1776,-1.2466,-1.1828,-1.6192,-2.1358,-1.8151,-2.0198,-2.3803,-2.3956,-2.4671,-2.5504,-2.5798,-2.6092,-2.6333,-2.6373,-2.6386,-2.6386,-2.6386,-2.607,-2.5898,-2.6307,-2.6056,-2.6069,-2.668,-2.7068,-2.7362,-2.7655,-2.8163,-2.8551,-2.8604,-2.9032,-2.9366,-2.9472,-2.97,-2.9953,-3.0247,-3.0287,-3.0408,-3.0702,-3.0942,-3.1076,-3.1076,-3.1129,-3.1289,-3.1583,-3.1597,-3.1623,-3.1664,-3.1664,-3.1664,-3.1664,-3.1664,-3.1664,-3.1664,-3.1664,-3.1664,-3.1664,-3.1664,-3.1664,-3.1664,-3.1664,-3.1664,-3.1664,-3.1664,-3.1664,-3.1664,-3.1664,-3.1664,-3.1664,0.0,0.0,0.0,0.0,0.0,0.0,0.0,-0.9822,-0.9822,-0.9822,-0.9822,-0.9822,-0.9822,-0.9822,-0.9822,0.0,0.0,0.0,0.0,0.0,0.0,-0.9822,-0.9822,-0.9822,-0.9822,-0.9822,-0.9856,-0.9869,0.0,-0.9971,-1.0046,-1.012,-1.0161,-1.0168,-1.0317,-1.0426,-1.0493,-1.0568,-1.0649,-1.0717,-1.0717,-1.0717,-1.0717,-1.0717,-1.0772,0.0,-1.1084,-1.1929,-1.298,-1.2993,-1.6122,-1.9483,-1.7139,-1.9055,-2.2425,-2.3054,-2.4313,-2.5585,-2.5879,-2.6172,-2.6386,-2.6386,-2.6386,-2.6386,-2.6386,-2.6386,-2.6386,-2.6386,-2.6507,-2.6707,-2.7001,-2.7295,-2.7589,-2.7883,-2.831,-2.8657,-2.8818,-2.9205,-2.9539,-2.9686,-2.9967,-3.0207,-3.0341,-3.0501,-3.0702,-3.0996,-3.1142,-3.1223,-3.1223,-3.137,-3.1517,-3.1664,-3.1664,-3.1664,-3.1664,-3.1664,-3.1664,-3.1664,-3.1664,-3.1664,-3.1664,-3.1664,-3.1664,-3.1664,-3.1664,-3.1664,-3.1664,-3.1664,-3.1664,-3.1664,-3.1664,-3.1664,-3.1664,-3.1664,-3.1664,-3.1664,0.0,0.0,0.0,0.0,0.0,0.0,0.0,-0.9822,-0.9822,-0.9822,-0.9822,-0.9822,-0.9822,-0.9822,-0.9822,0.0,0.0,0.0,0.0,0.0,0.0,0.0,0.0,0.0,-0.9822,0.0,0.0,-0.9822,-0.9822,0.0,0.0,0.0,0.0,0.0,-1.0161,-1.029,-1.0399,-1.0466,-1.0561,0.0,0.0,-1.0717,-1.0717,0.0,0.0,0.0,0.0,-1.2219,-1.3628,-1.3736,-1.4787,-1.5985,-1.5695,-1.8083,-2.1112,-2.228,-2.4036,-2.5585,-2.5879,-2.6172,-2.6386,-2.6386,-2.6386,-2.6386,-2.6386,-2.6386,-2.6386,-2.6386,-2.6613,-2.6907,-2.7215,-2.7509,-2.7816,-2.819,-2.8497,-2.8804,-2.9098,-2.9392,-2.9659,-2.9887,-3.0181,-3.0381,-3.0448,-3.0715,-3.1009,-3.1303,-3.1316,-3.1316,-3.1316,-3.1543,-3.1664,-3.1664,-3.1664,-3.1664,-3.1664,-3.1664,-3.1664,-3.1664,-3.1664,-3.1664,-3.1664,-3.1664,-3.1664,-3.1664,-3.1664,-3.1664,-3.1664,-3.1664,-3.1664,-3.1664,-3.1664,-3.1664,-3.1664,-3.1664,-3.1664,-3.1664,0.0,0.0,0.0,0.0,0.0,0.0,0.0,-0.9822,-0.9822,-0.9822,-0.9822,-0.9822,-0.9822,-0.9822,-0.9822,0.0,0.0,0.0,0.0,0.0,0.0,0.0,0.0,0.0,0.0,0.0,0.0,-0.9822,-0.9822,0.0,0.0,0.0,0.0,0.0,0.0,-1.0017,-1.0044,-1.0378,0.0,0.0,0.0,0.0,0.0,0.0,0.0,0.0,0.0,-1.1399,-1.1691,-1.178,-1.1972,-1.2711,-1.6324,-1.9051,-2.1414,-2.4052,-2.5126,-2.5585,-2.5879,-2.6172,-2.6386,-2.6386,-2.6386,-2.6386,-2.6386,-2.6386,-2.6386,-2.6386,-2.6613,-2.6907,-2.7215,-2.7509,-2.7883,-2.847,-2.8804,-2.9098,-2.9406,-2.9686,-2.9887,-2.9913,-3.0181,-3.0461,-3.0728,-3.1022,-3.1303,-3.161,-3.1623,-3.1623,-3.1623,-3.165,-3.1664,-3.1664,-3.1664,-3.1664,-3.1664,-3.1664,-3.1664,-3.1664,-3.1664,-3.1664,-3.1664,-3.1664,-3.1664,-3.1664,-3.1664,-3.1664,-3.1664,-3.1664,-3.1664,-3.1664,-3.1664,-3.1664,-3.1664,-3.1664,-3.1664,-3.1664,0.0,0.0,0.0,0.0,0.0,0.0,-0.9822,-0.9822,-0.9822,-0.9822,-0.9822,-0.9822,-0.9822,-0.9822,-0.9822,-0.9822,0.0,0.0,0.0,0.0,0.0,0.0,0.0,0.0,0.0,0.0,-0.9822,-0.9822,-0.9822,0.0,0.0,0.0,0.0,0.0,0.0,-0.9903,-1.0004,-1.0276,0.0,0.0,0.0,0.0,0.0,0.0,0.0,0.0,0.0,0.0,-1.1497,-1.2798,-1.2531,-1.2302,-1.6509,-1.7616,-1.8383,-2.3313,-2.4287,-2.3995,-2.5555,-2.6172,-2.6386,-2.6386,-2.6386,-2.6386,-2.6386,-2.6386,-2.6386,-2.6386,-2.676,-2.7121,-2.7241,-2.7642,-2.811,-2.8537,-2.8858,-2.9138,-2.9446,-2.9726,-2.9913,-2.9913,-3.0327,-3.0662,-3.0782,-3.1223,-3.1543,-3.1664,-3.1664,-3.1664,-3.1664,-3.1664,-3.1664,-3.1664,-3.1664,-3.1664,-3.1664,-3.1664,-3.1664,-3.1664,-3.1664,-3.1664,-3.1664,-3.1664,-3.1664,-3.1664,-3.1664,-3.1664,-3.1664,-3.1664,-3.1664,-3.1664,-3.1664,-3.1664,-3.1664,-3.1664,-3.1664,-3.1664,0.0,0.0,0.0,0.0,0.0,-0.9822,-0.9822,-0.9822,-0.9822,-0.9822,-0.9822,-0.9822,-0.9822,-0.9822,-0.9822,-0.9822,-0.9822,0.0,0.0,0.0,0.0,0.0,0.0,0.0,0.0,0.0,-0.9822,-0.9822,-0.9822,-0.9822,0.0,0.0,-0.9822,-0.9822,0.0,0.0,0.0,0.0,0.0,0.0,0.0,0.0,0.0,0.0,0.0,0.0,0.0,0.0,0.0,0.0,0.0,-1.223,-1.5813,-1.5674,-1.5428,-2.1819,-2.3115,-2.2877,-2.4494,-2.5623,-2.6228,-2.5581,-2.5898,-2.6386,-2.6386,-2.6386,-2.6386,-2.6386,-2.6854,-2.7268,-2.7268,-2.7832,-2.827,-2.8671,-2.8911,-2.9165,-2.9553,-2.978,-2.9953,-3.0034,-3.0488,-3.0822,-3.0915,-3.137,-3.1664,-3.1664,-3.1664,-3.1664,-3.1664,-3.1664,-3.1664,-3.1664,-3.1664,-3.1664,-3.1664,-3.1664,-3.1664,-3.1664,-3.1664,-3.1664,-3.1664,-3.1664,-3.1664,-3.1664,-3.1664,-3.1664,-3.1664,-3.1664,-3.1664,-3.1664,-3.1664,-3.1664,-3.1664,-3.1664,-3.1664,-3.1664,0.0,0.0,0.0,0.0,0.0,0.0,-0.9822,-0.9822,-0.9822,-0.9822,-0.9822,-0.9822,-0.9822,-0.9822,-0.9822,-0.9822,-0.9822,0.0,0.0,0.0,0.0,0.0,0.0,0.0,0.0,0.0,-0.9822,-0.9822,-0.9822,-0.9822,-0.9822,-0.9822,-0.9822,-0.9822,0.0,0.0,0.0,0.0,0.0,0.0,0.0,0.0,-1.0717,0.0,0.0,0.0,0.0,0.0,0.0,0.0,0.0,0.0,0.0,-1.3544,-1.3372,-1.9788,-2.2042,-2.2454,-2.2377,-2.4346,-2.5898,-2.3712,-2.4761,-2.6386,-2.6386,-2.6386,-2.6386,-2.6386,-2.6854,-2.7268,-2.7268,-2.7832,-2.8337,-2.8938,-2.9032,-2.9245,-2.9833,-2.9913,-3.002,-3.0314,-3.0621,-3.0902,-3.1196,-3.149,-3.1664,-3.1664,-3.1664,-3.1664,-3.1664,-3.1664,-3.1664,-3.1664,-3.1664,-3.1664,-3.1664,-3.1664,-3.1664,-3.1664,-3.1664,-3.1664,-3.1664,-3.1664,-3.1664,-3.1664,-3.1664,-3.1664,-3.1664,-3.1664,-3.1664,-3.1664,-3.1664,-3.1664,-3.1664,-3.1664,-3.1664,-3.1664,0.0,0.0,0.0,0.0,0.0,0.0,0.0,-0.9822,-0.9822,-0.9822,-0.9822,-0.9822,-0.9822,-0.9822,-0.9822,-0.9822,-0.9822,0.0,0.0,0.0,0.0,0.0,0.0,0.0,0.0,0.0,-0.9822,-0.9822,-0.9822,-0.9822,-0.9822,-0.9822,-0.9822,-0.9822,-0.9822,-0.9822,0.0,0.0,0.0,0.0,0.0,-1.0717,-1.0717,0.0,0.0,0.0,0.0,0.0,0.0,0.0,0.0,0.0,0.0,0.0,0.0,-1.6406,-1.8698,-2.012,-2.0135,-2.3092,-2.5662,-2.3584,-2.3632,-2.4522,-2.6056,-2.5251,-2.4602,-2.607,-2.6694,-2.7028,-2.7228,-2.7575,-2.8096,-2.8911,-2.9045,-2.9245,-2.9833,-2.9913,-3.002,-3.0327,-3.0795,-3.1209,-3.1503,-3.161,-3.1664,-3.1664,-3.1664,-3.1664,-3.1664,-3.1664,-3.1664,-3.1664,-3.1664,-3.1664,-3.1664,-3.1664,-3.1664,-3.1664,-3.1664,-3.1664,-3.1664,-3.1664,-3.1664,-3.1664,-3.1664,-3.1664,-3.1664,-3.1664,-3.1664,-3.1664,-3.1664,-3.1664,-3.1664,-3.1664,-3.0592,-2.9039,0.0,0.0,0.0,0.0,0.0,0.0,0.0,-0.9822,-0.9822,-0.9822,-0.9822,-0.9822,-0.9822,-0.9822,-0.9822,-0.9822,-0.9822,0.0,0.0,0.0,0.0,0.0,0.0,0.0,0.0,-0.9822,-0.9822,-0.9822,-0.9822,-0.9822,-0.9822,-0.9822,-0.9822,-0.9822,-0.9822,-0.9822,0.0,0.0,0.0,0.0,-1.0717,-1.0717,-1.0717,0.0,0.0,0.0,0.0,0.0,0.0,0.0,0.0,0.0,0.0,0.0,0.0,0.0,-1.5923,-1.7769,-1.7977,-2.0741,-2.3139,-2.1136,-2.127,-2.2247,-2.3632,-2.354,-2.346,-2.484,-2.5388,-2.5924,-2.712,-2.6822,-2.7052,-2.8711,-2.9045,-2.9245,-2.9833,-2.9913,-3.006,-3.0474,-3.0184,-3.0398,-3.1555,-3.0795,-3.0604,-3.1664,-3.1664,-3.1664,-3.1664,-3.1664,-3.1664,-3.1664,-3.1664,-3.1664,-3.1664,-3.1664,-3.1664,-3.1664,-3.1664,-3.1664,-3.1664,-3.1664,-3.1664,-3.1664,-3.1664,-3.1664,0.0,-3.1664,-3.1664,-3.1664,-3.1664,-3.108,-3.021,-3.021,-2.8548,-2.6312,0.0,0.0,0.0,0.0,0.0,0.0,0.0,-0.9822,-0.9822,-0.9822,-0.9822,-0.9822,-0.9822,-0.9822,-0.9822,-0.9822,0.0,0.0,0.0,0.0,0.0,0.0,0.0,0.0,-0.9822,-0.9822,-0.9822,-0.9822,-0.9822,-0.9822,-0.9822,-0.9822,-0.9822,-0.9822,-0.9822,-0.9836,-0.9869,0.0,0.0,0.0,-1.0717,-1.0717,0.0,0.0,0.0,0.0,0.0,0.0,0.0,0.0,0.0,0.0,0.0,0.0,0.0,0.0,0.0,0.0,0.0,-1.7649,-1.9194,-1.7069,-1.81,-1.9745,-1.9826,-2.1281,0.0,-2.306,-2.3259,-2.4181,-2.6793,-2.572,-2.541,-2.8265,-2.8857,-2.907,-2.9373,-2.9581,-3.0,-3.0728,-2.9004,-2.8847,-3.1474,-2.9338,-2.8847,-3.1474,-3.1664,-3.1664,-3.1664,-3.1664,-3.1664,-3.1664,-3.1664,-3.1664,-3.1664,-3.1664,-3.1664,-3.1664,-3.1664,-3.1664,-3.1664,-3.1664,-3.1664,-3.1664,-3.1664,-3.1664,-3.1664,-3.1664,-3.1664,-3.1664,-3.1664,-3.0115,-2.778,-2.778,-2.6023,-2.3578,0.0,0.0,0.0,0.0,0.0,0.0,0.0,0.0,0.0,0.0,-0.9822,-0.9822,-0.9822,-0.9822,-0.9822,0.0,0.0,0.0,0.0,0.0,0.0,0.0,0.0,0.0,-0.9822,-0.9822,-0.9822,-0.9822,-0.9822,-0.9822,-0.9822,-0.9822,-0.9822,-0.9822,-0.9822,-0.9951,-1.0181,-1.0365,0.0,0.0,-1.0717,-1.0717,0.0,0.0,0.0,0.0,-1.1294,-1.1457,0.0,0.0,0.0,0.0,0.0,0.0,0.0,0.0,-1.2804,-1.3254,-1.3576,0.0,-1.8897,-1.6958,-1.6953,-1.7783,0.0,-1.9004,-1.9076,-2.2407,-2.1952,-2.2195,-2.6535,-2.565,-2.472,-2.6037,-2.7785,-2.7888,-2.4696,-2.6294,-2.8464,-3.0584,-2.9004,-2.8847,-3.1474,-2.9338,-2.8847,-3.1474,-3.1664,-3.1664,-3.1664,-3.1664,-3.1664,-3.1664,-3.1664,-3.1664,-3.1664,-3.1664,-3.1664,-3.1664,-3.1664,-3.1664,-3.1664,-3.1664,-3.1664,-3.1664,-3.1664,-3.1664,-3.1664,-3.1664,-3.1664,-3.1664,-3.1664,-3.0115,-2.778,-2.778,-2.4851,-2.0951,0.0,0.0,0.0,0.0,0.0,0.0,0.0,0.0,0.0,0.0,0.0,0.0,0.0,0.0,0.0,0.0,0.0,0.0,0.0,0.0,0.0,0.0,0.0,-0.9822,-0.9822,-0.9822,-0.9822,-0.9822,-0.9822,-0.9822,-0.9822,-0.9822,-0.9822,-0.9822,-0.9897,-1.0059,-1.029,-1.0432,-1.0582,-1.0717,-1.0717,0.0,0.0,0.0,0.0,0.0,-1.1335,-1.1491,0.0,-1.1619,-1.1714,-1.1857,0.0,0.0,0.0,0.0,-1.2501,-1.2556,-1.2793,-1.4551,-1.6174,-1.5236,-1.5041,-1.5432,-1.6656,-1.6738,-1.7538,-2.0958,-1.9997,-2.0374,-2.6208,-2.3948,-2.2054,-2.4974,-2.6533,-2.6717,-2.4514,-2.686,-2.8892,-2.909,-2.7261,-2.6999,-2.9625,-2.7576,-2.7095,-2.9721,-3.0985,-3.1664,-3.1664,-3.1664,-3.1664,-3.1664,-3.1664,-3.1664,-3.1664,-3.1664,-3.1664,-3.1664,-3.1664,-3.1664,-3.1664,-3.1664,-3.1664,-3.1664,-3.1664,-3.1664,-3.1664,-3.1664,-3.1664,-3.1664,-3.1664,-3.0115,-2.7684,-2.6409,-2.3481,-1.9782,0.0,0.0,0.0,0.0,0.0,0.0,0.0,0.0,0.0,0.0,0.0,0.0,0.0,0.0,0.0,0.0,0.0,0.0,0.0,0.0,0.0,0.0,0.0,-0.9822,-0.9822,-0.9822,-0.9822,-0.9822,-0.9822,-0.9822,-0.9822,-0.9822,-0.9836,-0.9863,-0.9977,-1.0188,-1.0324,-1.0466,-1.0602,-1.0717,-1.0717,0.0,0.0,0.0,0.0,0.0,0.0,0.0,0.0,-1.1647,-1.1748,-1.1891,-1.2047,0.0,0.0,0.0,0.0,0.0,-1.2718,-1.2861,-1.3024,-1.3302,-1.3383,-1.3403,-1.3403,-1.4781,-1.6811,-1.942,-1.8064,-1.8514,-2.5457,-2.2042,-1.9519,-2.4107,-2.4717,-2.5089,-2.6533,-2.8411,-2.9132,-2.7844,-2.5395,-2.4905,-2.7576,-2.5045,-2.456,-2.7588,-2.9816,-3.1284,-3.1677,-3.1664,-3.1664,-3.1664,-3.1664,-3.1664,-3.1664,-3.1664,-3.1664,-3.1664,-3.1664,-3.1664,-3.1664,-3.1664,-3.1664,-3.1664,-3.1664,-3.1664,-3.1664,-3.1664,-3.1664,-3.1664,-3.1664,-3.0115,-2.7492,-2.5335,-2.2614,-1.9585,0.0,0.0,0.0,0.0,0.0,0.0,0.0,0.0,0.0,0.0,0.0,0.0,0.0,0.0,0.0,0.0,0.0,0.0,0.0,0.0,0.0,-0.9822,-0.9822,-0.9822,-0.9822,-0.9822,-0.9822,-0.9822,-0.9822,-0.9822,-0.9822,-0.9822,-0.989,-0.9963,-1.0304,-1.0439,-1.0466,-1.0622,-1.0697,-1.0717,-1.0717,0.0,0.0,0.0,0.0,0.0,0.0,0.0,0.0,-1.1755,-1.1898,-1.2054,-1.221,0.0,0.0,0.0,0.0,0.0,-1.2847,-1.2942,-1.3003,-1.3166,-1.3302,-1.3403,-1.3403,-1.3645,-1.5028,-1.9095,-1.6926,-1.6334,-2.3075,-2.234,-2.1072,-2.2261,-2.1025,-2.2099,-2.8424,-2.6396,-2.5727,-2.9726,-2.6201,-2.464,-2.7564,-2.3384,-2.2604,-2.748,-2.8164,-2.9338,-3.1569,-3.1664,-3.1664,-3.1664,-3.1664,-3.1664,-3.1664,-3.1664,-3.1664,-3.1664,-3.1664,-3.1664,-3.1664,-3.1664,-3.1664,-3.1664,-3.1664,-3.1664,-3.1664,-3.1664,-3.1664,-3.1664,-3.1664,-3.0115,-2.778,-2.7384,-2.4172,-1.9585,0.0,0.0,0.0,0.0,0.0,0.0,0.0,0.0,0.0,0.0,0.0,0.0,0.0,0.0,0.0,0.0,0.0,0.0,0.0,0.0,-0.9822,-0.9822,-0.9822,-0.9822,-0.9822,-0.9822,-0.9822,-0.9822,-0.9822,-0.9822,-0.9822,-0.9842,-1.0025,-1.0181,-1.0399,-1.0493,-1.05,-1.0656,-1.0717,-1.0724,0.0,0.0,0.0,0.0,0.0,0.0,0.0,0.0,0.0,0.0,-1.1932,-1.2088,-1.2244,0.0,0.0,0.0,0.0,0.0,-1.2901,-1.3017,-1.3112,-1.3261,-1.3349,-1.3403,-1.3403,-1.3403,-1.43,-1.7465,-1.579,-1.5523,-2.1066,-2.0577,-2.0327,-2.3412,-2.3348,-2.4021,-2.7431,-2.7378,-2.7461,-2.8669,-2.6839,-2.6141,-2.766,-2.5636,-2.5238,-2.7588,-2.9135,-3.0401,-3.1664,-3.1664,-3.1664,-3.1664,-3.1664,-3.1664,-3.1664,-3.1664,-3.1664,-3.1664,-3.1664,-3.1664,-3.1664,-3.1664,-3.1664,-3.1664,-3.1664,-3.1664,-3.1664,-3.1664,-3.1664,-3.1664,-3.1664,-3.0985,-2.9721,-2.8356,-2.5335,-2.193,0.0,0.0,0.0,0.0,0.0,0.0,0.0,0.0,0.0,0.0,0.0,0.0,0.0,0.0,0.0,0.0,0.0,0.0,0.0,0.0,-0.9822,-0.9822,-0.9822,-0.9822,-0.9822,-0.9822,-0.9822,-0.9822,-0.9822,-0.9836,-0.9876,-1.0004,-1.0215,-1.0337,-1.048,-1.0548,-1.0555,-1.067,-1.0717,-1.0731,0.0,0.0,0.0,0.0,0.0,0.0,0.0,0.0,0.0,0.0,0.0,0.0,0.0,0.0,0.0,-1.2501,-1.261,-1.2766,-1.2922,-1.3064,-1.3207,-1.3363,-1.3403,-1.3403,-1.3403,-1.3403,-1.3969,-1.6164,-1.5539,-1.5864,-1.9884,-2.0066,-2.1144,-2.5659,-2.6259,-2.6411,-2.6966,-2.8446,-2.9052,-2.8013,-2.7521,-2.7309,-2.7663,-2.7157,-2.7095,-2.778,-2.9625,-3.108,-3.1664,-3.1664,-3.1664,-3.1664,-3.1664,-3.1664,-3.1664,-3.1664,-3.1664,-3.1664,-3.1664,-3.1664,-3.1664,-3.1664,-3.1664,-3.1664,-3.1664,-3.1664,-3.1664,-3.1664,-3.1664,-3.1664,-3.1664,-3.1664,-3.1379,-2.8752,-2.6505,-2.4754,0.0,0.0,0.0,0.0,0.0,0.0,0.0,0.0,0.0,0.0,0.0,0.0,0.0,0.0,0.0,0.0,0.0,0.0,0.0,0.0,-0.9822,-0.9822,-0.9822,-0.9822,-0.9822,-0.9822,-0.9822,-0.9822,-0.9822,-0.989,-0.9977,-1.0324,-1.0466,-1.048,-1.0636,-1.0704,-1.0704,-1.0717,-1.0717,-1.0731,-1.082,0.0,0.0,0.0,0.0,0.0,0.0,0.0,0.0,0.0,0.0,0.0,0.0,0.0,-1.2501,-1.2501,-1.261,-1.2766,-1.2922,-1.3064,-1.3207,-1.3363,-1.3403,-1.3403,-1.3403,-1.3403,-1.3969,-1.6164,-1.6868,-1.7797,-2.0135,-2.2987,-2.5858,-2.8321,-2.7343,-2.6966,-2.9272,-2.7817,-2.7372,-2.9886,-2.8279,-2.7028,-2.7298,-2.5399,-2.5141,-2.7588,-2.7972,-2.9135,-3.1569,-3.1664,-3.1664,-3.1664,-3.1664,-3.1664,-3.1664,-3.1664,-3.1664,-3.1664,-3.1664,-3.1664,-3.1664,-3.1664,-3.1664,-3.1664,-3.1664,-3.1664,-3.1664,-3.1664,-3.1664,-3.1664,-3.1664,-3.1664,-3.1379,-2.8752,-2.7684,-2.7191,0.0,0.0,0.0,0.0,0.0,0.0,0.0,0.0,0.0,0.0,0.0,0.0,0.0,0.0,0.0,0.0,0.0,0.0,0.0,-0.9822,-0.9822,-0.9822,-0.9849,-0.9903,-0.9903,-0.9903,-0.9903,-0.9903,-1.0059,-1.0181,-1.0324,-1.0439,-1.0541,-1.0636,-1.0697,-1.0717,-1.0717,-1.0717,-1.0772,-1.0806,-1.1023,-1.1172,0.0,0.0,0.0,0.0,0.0,0.0,0.0,0.0,-1.2162,-1.2318,-1.2461,-1.2501,-1.2522,-1.2617,-1.2752,-1.2908,-1.3051,-1.32,-1.3329,-1.339,-1.3403,-1.3403,-1.3403,-1.3403,-1.3673,-1.459,-1.6121,-1.8461,-2.2457,-2.3183,-2.4467,-2.8382,-2.8559,-2.8616,-2.9707,-2.9092,-2.9003,-3.0223,-2.9612,-2.9279,-2.9644,-2.8909,-2.895,-3.0102,-3.021,-3.0687,-3.1664,-3.1664,-3.1664,-3.1664,-3.1664,-3.1664,-3.1664,-3.1664,-3.1664,-3.1664,-3.1664,-3.1664,-3.1664,-3.1664,-3.1664,-3.1664,-3.1664,-3.1664,-3.1664,-3.1664,-3.1664,-3.1664,-3.1664,-3.1664,-3.1569,-3.0592,-3.021,-3.0102,0.0,0.0,0.0,0.0,0.0,0.0,0.0,0.0,0.0,0.0,0.0,0.0,0.0,0.0,0.0,0.0,0.0,0.0,-0.97,-0.9869,-0.9645,-0.9087,-0.9722,-0.9807,-0.923,-0.9847,-1.0168,-1.0058,-1.027,-1.0399,-1.0493,-1.0541,-1.0622,-1.0717,-1.0717,-1.0744,-1.0792,-1.0792,-1.088,-1.1029,-1.1179,-1.1301,0.0,0.0,0.0,0.0,0.0,0.0,0.0,0.0,-1.2237,-1.2372,-1.2474,-1.2501,-1.2528,-1.2684,-1.284,-1.299,-1.3132,-1.3288,-1.3562,-1.421,-1.4375,-1.4623,-1.5275,-1.4383,-1.3694,-1.4503,-1.7298,-2.0861,-2.5034,-2.4718,-2.4975,-2.8456,-2.9285,-2.9579,-2.9873,-2.9913,-2.9993,-3.0194,-3.0301,-3.0515,-3.0915,-3.1116,-3.1316,-3.1517,-3.1623,-3.1664,-3.1664,-3.1664,-3.1664,-3.1664,-3.1664,-3.1664,-3.1664,-3.1664,-3.1664,-3.1664,-3.1664,-3.1664,-3.1664,-3.1664,-3.1664,-3.1664,-3.1664,-3.1664,-3.1664,-3.1664,-3.1664,-3.1664,-3.1664,-3.1664,-3.1664,-3.1664,-3.1664,-3.1664,0.0,0.0,0.0,0.0,0.0,0.0,0.0,0.0,0.0,0.0,0.0,0.0,0.0,0.0,0.0,0.0,0.0,0.0,-0.97,-0.9903,-0.9231,-0.7468,-0.9241,-0.9443,-0.764,-0.9503,-1.0426,-1.0283,-1.0426,-1.0493,-1.0493,-1.0649,-1.0717,-1.0717,-1.0724,-1.0806,-1.088,-1.088,-1.1036,-1.1179,-1.1328,-1.1389,-1.1409,0.0,0.0,0.0,0.0,0.0,0.0,0.0,-1.2386,-1.2501,-1.2501,-1.2501,-1.2535,-1.2684,-1.284,-1.3077,-1.3139,-1.3363,-1.3969,-1.6082,-1.6647,-1.722,-1.942,-1.6574,-1.4178,-1.6643,-2.1087,-2.5227,-2.7746,-2.839,-2.8698,-2.8991,-2.9285,-2.9579,-2.9873,-2.9913,-2.9913,-2.9913,-3.0181,-3.0354,-3.0354,-3.0875,-3.1223,-3.1223,-3.149,-3.1664,-3.1664,-3.1664,-3.1664,-3.1664,-3.1664,-3.1664,-3.1664,-3.1664,-3.1664,-3.1664,-3.1664,-3.1664,-3.1664,-3.1664,-3.1664,-3.1664,-3.1664,-3.1664,-3.1664,-3.1664,-3.1664,-3.1664,-3.1664,-3.1664,-3.1664,-3.1664,-3.1664,-3.1664,0.0,0.0,0.0,0.0,0.0,0.0,0.0,0.0,0.0,0.0,0.0,0.0,0.0,0.0,0.0,0.0,0.0,0.0,-0.9731,-0.8917,-0.8097,-0.7585,-0.8215,-0.828,-0.7757,-0.9645,-1.0629,-1.0588,-1.0629,-1.0649,-1.0656,-1.0697,-1.0717,-1.0724,-1.0833,-1.084,-1.0887,-1.1056,-1.1185,-1.1328,-1.1375,-1.1457,-1.1558,0.0,0.0,0.0,0.0,0.0,0.0,0.0,0.0,0.0,-1.2501,-1.2576,-1.2691,-1.2847,-1.4106,-1.5069,-1.3699,-1.5647,-1.771,-1.6811,-1.7792,-1.9095,-1.9745,-1.8933,-1.8702,-2.1376,-2.2085,-2.338,-2.7435,-2.6919,-2.646,-2.8426,-2.8978,-2.9272,-2.9566,-2.978,-2.9913,-2.9913,-2.9993,-3.0127,-3.0341,-3.0515,-3.0702,-3.0902,-3.1196,-3.1356,-3.1356,-3.1557,-3.1664,-3.1664,-3.1664,-3.1664,-3.1664,-3.1664,-3.1664,-3.1664,-3.1664,-3.1664,-3.1664,-3.1664,-3.1664,-3.1664,-3.1664,-3.1664,-3.1664,-3.1664,-3.1664,-3.1664,-3.1664,-3.1664,-3.1664,-3.1664,-3.1664,-3.1664,0.0,0.0,0.0,0.0,0.0,0.0,0.0,0.0,0.0,0.0,0.0,0.0,0.0,0.0,0.0,0.0,0.0,0.0,0.0,-0.7513,-0.6279,-0.5634,-0.7089,-0.8202,-0.893,-1.0075,-1.0717,-1.0717,-1.0717,-1.0717,-1.0724,-1.0778,-1.0812,-1.0819,-1.0968,-1.107,-1.1131,-1.1219,-1.1341,-1.1484,-1.1484,-1.1538,-1.1626,0.0,0.0,0.0,0.0,0.0,0.0,0.0,0.0,0.0,-1.2501,-1.261,-1.2759,-1.2915,-1.4574,-1.6185,-1.4982,-1.7229,-1.9745,-1.9329,-2.014,-2.1362,-2.2258,-2.2,-2.1976,-2.368,-2.3978,-2.485,-2.7701,-2.7012,-2.6604,-2.8294,-2.8858,-2.9138,-2.9446,-2.9726,-2.9913,-2.9913,-2.9913,-2.998,-3.0167,-3.0287,-3.0434,-3.0608,-3.0889,-3.1049,-3.1049,-3.133,-3.149,-3.149,-3.161,-3.1664,-3.1664,-3.1664,-3.1664,-3.1664,-3.1664,-3.1664,-3.1664,-3.1664,-3.1664,-3.1664,-3.1664,-3.1664,-3.1664,-3.1664,-3.1664,-3.1664,-3.1664,-3.1664,-3.1664,-3.1664,-3.1664,-3.1664,0.0,0.0,0.0,0.0,0.0,0.0,0.0,0.0,0.0,0.0,0.0,0.0,0.0,0.0,0.0,0.0,0.0,0.0,0.0,0.0,-0.4144,-0.2567,-0.5918,-0.8701,-1.0651,-1.0731,-1.0744,-1.0744,-1.0744,-1.0744,-1.0744,-1.0826,-1.09,-1.0975,-1.1118,-1.126,-1.1396,-1.1402,-1.1491,-1.1619,-1.1633,-1.164,-1.1653,-1.1796,0.0,0.0,0.0,0.0,0.0,0.0,0.0,0.0,-1.2501,-1.2617,-1.2779,-1.3155,-1.4903,-1.6768,-1.685,-1.8679,-2.0878,-2.2648,-2.322,-2.3952,-2.5898,-2.5256,-2.4293,-2.4317,-2.6363,-2.8221,-2.8221,-2.8221,-2.8315,-2.8524,-2.8804,-2.9098,-2.9406,-2.9686,-2.9887,-2.9913,-2.9913,-2.9913,-2.9913,-3.0167,-3.0314,-3.0314,-3.0595,-3.0755,-3.0755,-3.1022,-3.1183,-3.1183,-3.145,-3.1597,-3.1623,-3.1623,-3.1637,-3.1664,-3.1664,-3.1664,-3.1664,-3.1664,-3.1664,-3.1664,-3.1664,-3.1664,-3.1664,-3.1664,-3.1664,-3.1664,-3.1664,-3.1664,-3.1664,-3.1664,-3.1664,-3.1664,0.0,0.0,0.0,0.0,0.0,0.0,0.0,0.0,0.0,0.0,0.0,0.0,0.0,0.0,0.0,0.0,0.0,0.0,0.0,0.0,-0.3072,-0.2673,-0.4751,-0.7436,-1.0651,-1.0772,-1.0833,-1.0833,-1.0833,-1.0833,-1.0833,-1.105,-1.1118,-1.1124,-1.1274,-1.1362,-1.1396,-1.1518,-1.1592,-1.1633,-1.1742,-1.1782,-1.1803,-1.1952,-1.2088,0.0,0.0,0.0,0.0,0.0,0.0,0.0,-1.2501,-1.2691,-1.3228,-1.4995,-1.7217,-1.9118,-1.9167,-2.2006,-2.4681,-2.338,-2.443,-2.5819,-2.6307,-2.6334,-2.6232,-2.6548,-2.7473,-2.8221,-2.8221,-2.8221,-2.8248,-2.8315,-2.8497,-2.8804,-2.9098,-2.9392,-2.9659,-2.9887,-2.9913,-2.9913,-2.9913,-2.998,-3.0007,-3.0007,-3.0287,-3.0448,-3.0448,-3.0728,-3.0889,-3.0889,-3.0955,-3.1089,-3.1316,-3.1316,-3.1436,-3.1664,-3.1664,-3.1664,-3.1664,-3.1664,-3.1664,-3.1664,-3.1664,-3.1664,-3.1664,-3.1664,-3.1664,-3.1664,-3.1664,-3.1664,-3.1664,-3.1664,-3.1664,-3.1664,0.0,0.0,0.0,0.0,0.0,0.0,0.0,0.0,0.0,0.0,0.0,0.0,0.0,0.0,0.0,0.0,0.0,0.0,0.0,0.0,-0.2148,-0.389,-0.58,-0.805,-1.0759,-1.0975,-1.105,-1.105,-1.1124,-1.1124,-1.1056,-1.1206,-1.1274,-1.128,-1.143,-1.1497,-1.1504,-1.1586,-1.166,-1.1728,-1.1803,-1.1877,-1.1959,-1.2115,-1.2223,-1.2298,-1.2366,0.0,0.0,0.0,0.0,0.0,0.0,0.0,-1.4787,-1.5977,-1.8753,-2.1442,-2.1442,-2.3872,-2.6149,-2.4999,-2.5568,-2.6386,-2.6386,-2.6613,-2.6907,-2.7201,-2.7615,-2.7976,-2.8207,-2.8221,-2.8221,-2.8221,-2.8404,-2.8657,-2.8818,-2.9205,-2.9539,-2.9686,-2.9833,-2.9913,-2.9913,-2.9913,-2.9913,-2.9913,-3.006,-3.0154,-3.0154,-3.0421,-3.0581,-3.0581,-3.0715,-3.0862,-3.1022,-3.1022,-3.1169,-3.1463,-3.1463,-3.153,-3.1664,-3.1664,-3.1664,-3.1664,-3.1664,-3.1664,-3.1664,-3.1664,-3.1664,-3.1664,-3.1664,-3.1664,-3.1664,-3.1664,-3.1664,-3.1664,0.0,0.0,0.0,0.0,0.0,0.0,0.0,0.0,0.0,0.0,0.0,0.0,0.0,0.0,0.0,0.0,0.0,0.0,0.0,0.0,0.0,-0.5265,-0.7297,-0.9126,-1.0914,-1.1131,-1.1199,-1.1199,-1.1355,-1.1369,-1.1246,-1.1369,-1.143,-1.1436,-1.1565,-1.1633,-1.1653,-1.1653,-1.1742,-1.187,-1.1898,-1.1986,-1.2121,-1.2271,0.0,-1.2338,-1.2461,-1.2501,-1.2501,-1.2501,0.0,0.0,0.0,0.0,-1.5822,-1.6727,-1.9644,-2.274,-2.346,-2.5012,-2.6386,-2.6386,-2.6386,-2.6386,-2.6386,-2.6573,-2.6827,-2.7134,-2.7455,-2.7789,-2.8167,-2.8221,-2.8221,-2.8221,-2.8364,-2.8551,-2.8604,-2.9072,-2.9419,-2.9472,-2.974,-2.9913,-2.9913,-2.9913,-2.9913,-2.9913,-2.9913,-2.9913,-2.9913,-3.0154,-3.0287,-3.0287,-3.0515,-3.0662,-3.0715,-3.0715,-3.0862,-3.1156,-3.1196,-3.1356,-3.1597,-3.165,-3.1664,-3.1664,-3.1664,-3.1664,-3.1664,-3.1664,-3.1664,-3.1664,-3.1664,-3.1664,-3.1664,-3.1664,-3.1664,-3.1664,0.0,0.0,0.0,0.0,0.0,0.0,0.0,0.0,0.0,0.0,0.0,0.0,0.0,0.0,0.0,0.0,0.0,0.0,-0.0471,0.0,0.0,-0.548,-0.7438,-0.9325,-1.1131,-1.128,-1.1362,-1.1362,-1.1511,-1.1579,-1.1558,-1.1579,-1.1592,-1.1592,-1.1613,-1.1687,-1.1803,-1.1803,-1.1891,-1.204,-1.2176,-1.2244,-1.2277,0.0,0.0,-1.2474,-1.2494,-1.2501,-1.2501,-1.2501,-1.2501,0.0,0.0,0.0,-1.4178,-1.8079,-1.9805,-2.112,-2.492,-2.6149,-2.6386,-2.6386,-2.6386,-2.6386,-2.6386,-2.6413,-2.6533,-2.6814,-2.7321,-2.7789,-2.8167,-2.8221,-2.8221,-2.8221,-2.8261,-2.8297,-2.8564,-2.8898,-2.9192,-2.9459,-2.974,-2.9913,-2.9913,-2.9913,-2.9913,-2.9913,-2.9913,-2.9913,-2.9913,-2.9953,-2.998,-2.998,-3.0007,-3.0154,-3.0421,-3.0421,-3.0568,-3.0849,-3.1102,-3.1249,-3.1289,-3.1557,-3.1664,-3.1664,-3.1664,-3.1664,-3.1664,-3.1664,-3.1664,-3.1664,-3.1664,-3.1664,-3.1664,-3.1664,-3.1664,-3.1664,0.0,0.0,0.0,0.0,0.0,0.0,0.0,0.0,0.0,0.0,0.0,0.0,0.0,0.0,0.0,-0.0068,-0.0754,-0.0826,-0.0069,-0.1729,-0.3612,-0.551,-0.7445,-0.938,-1.1287,-1.1443,-1.1518,-1.1518,-1.1586,-1.166,-1.1735,-1.1735,-1.1735,-1.1735,-1.1735,-1.1823,-1.1959,-1.1959,-1.2047,-1.2196,-1.2264,-1.2338,-1.2413,0.0,0.0,0.0,0.0,0.0,-1.2501,-1.2501,-1.2556,-1.2657,-1.2813,0.0,0.0,0.0,-2.0712,-2.2419,-2.5581,-2.6386,-2.6386,-2.6386,-2.6386,-2.6386,-2.6386,-2.6386,-2.6466,-2.676,-2.7028,-2.7348,-2.7816,-2.803,-2.8221,-2.8221,-2.8221,-2.8274,-2.8323,-2.8604,-2.8911,-2.9205,-2.9499,-2.974,-2.99,-2.9913,-2.9913,-2.9913,-2.9913,-2.9913,-2.9913,-2.9913,-2.9913,-2.9913,-2.9913,-2.998,-3.0114,-3.0114,-3.0261,-3.0555,-3.0849,-3.0982,-3.0996,-3.1289,-3.1517,-3.1664,-3.1664,-3.1664,-3.1664,-3.1664,-3.1664,-3.1664,-3.1664,-3.1664,-3.1664,-3.1664,-3.1664,-3.1664,0.0,0.0,0.0,0.0,0.0,0.0,0.0,0.0,0.0,0.0,0.0,0.0,0.0,0.0,0.0,0.0,0.0,0.0,0.0,-0.176,-0.3588,-0.5568,-0.7535,-0.9433,-1.1379,-1.1558,-1.164,-1.1674,-1.1674,-1.1748,-1.1891,-1.1891,-1.1911,-1.1945,-1.1904,-1.1972,-1.2121,-1.2121,-1.2203,-1.2345,-1.2345,-1.2406,0.0,0.0,0.0,0.0,0.0,0.0,0.0,0.0,-1.2664,-1.2813,-1.2969,-1.4605,0.0,0.0,0.0,-2.4271,-2.5977,-2.6386,-2.6386,-2.6386,-2.6386,-2.6386,-2.6386,-2.6386,-2.6453,-2.6667,-2.6774,-2.6974,-2.7495,-2.7829,-2.814,-2.8221,-2.8221,-2.8221,-2.8221,-2.8417,-2.8684,-2.8898,-2.9259,-2.9566,-2.978,-2.9873,-2.9913,-2.9913,-2.9913,-2.9913,-2.9913,-2.9913,-2.9913,-2.9913,-2.9913,-2.9913,-2.9913,-2.9913,-3.0034,-3.0247,-3.0541,-3.0688,-3.0688,-3.0982,-3.1276,-3.1557,-3.1637,-3.1664,-3.1664,-3.1664,-3.1664,-3.1664,-3.1664,-3.1664,-3.1664,-3.1664,-3.1664,-3.1664,0.0,0.0,0.0,0.0,0.0,0.0,0.0,0.0,0.0,0.0,0.0,0.0,0.0,0.0,0.0,0.0,0.0,0.0,0.0,-0.1783,-0.3723,-0.5722,-0.7679,0.0,-1.1534,-1.1613,-1.1687,-1.1823,-1.1823,-1.1898,-1.2047,-1.2047,-1.2128,-1.2257,-1.2115,-1.2135,-1.2277,-1.2277,-1.2359,-1.2488,-1.2488,0.0,0.0,0.0,0.0,0.0,0.0,0.0,0.0,0.0,0.0,-1.2976,-1.3119,-1.4695,-1.6823,0.0,0.0,0.0,-2.6386,-2.6386,-2.6386,-2.6386,-2.6386,-2.6386,-2.6386,-2.6386,-2.6386,-2.6413,-2.6627,-2.6921,-2.7228,-2.7522,-2.7816,-2.8181,-2.8221,-2.8221,-2.8221,-2.8417,-2.8617,-2.8631,-2.9138,-2.9486,-2.9499,-2.9753,-2.9913,-2.9913,-2.9913,-2.9913,-2.9913,-2.9913,-2.9913,-2.9913,-2.9913,-2.9913,-2.9913,-2.9913,-2.9927,-2.994,-3.0247,-3.0381,-3.0394,-3.0688,-3.0969,-3.1263,-3.1543,-3.1664,-3.1664,-3.1664,-3.1664,-3.1664,-3.1664,-3.1664,-3.1664,-3.1664,-3.1664,-3.1664,0.0,0.0,0.0,0.0,0.0,0.0,0.0,0.0,0.0,0.0,0.0,0.0,0.0,0.0,0.0,0.0,0.0,-0.0504,-0.1806,-0.2527,-0.4353,-0.7637,-0.8445,-0.9804,-1.1904,-1.1904,-1.1932,-1.1979,-1.1979,-1.206,-1.221,-1.221,-1.2284,-1.242,-1.2271,-1.2291,-1.2427,-1.2427,-1.2454,-1.2508,-1.261,0.0,0.0,0.0,0.0,0.0,0.0,0.0,0.0,0.0,0.0,0.0,0.0,0.0,-1.7214,-2.0926,-2.4031,-2.6386,-2.6386,-2.6386,-2.6386,-2.6386,-2.6386,-2.6386,-2.6386,-2.6386,-2.6386,-2.6386,-2.6613,-2.6907,-2.7215,-2.7509,-2.7789,-2.8181,-2.8221,-2.8221,-2.8221,-2.8243,-2.8377,-2.8577,-2.8791,-2.8991,-2.9179,-2.9472,-2.9633,-2.9633,-2.9806,-2.9913,-2.9913,-2.9913,-2.9913,-2.9913,-2.9913,-2.9913,-2.9913,-2.9913,-2.9913,-2.9913,-3.002,-3.0074,-3.0087,-3.0381,-3.0568,-3.0702,-3.1183,-3.149,-3.1664,-3.1664,-3.1664,-3.1664,-3.1664,-3.1664,-3.1664,-3.1664,-3.1664,-3.1664,0.0,0.0,0.0,0.0,0.0,0.0,0.0,0.0,0.0,0.0,0.0,0.0,0.0,0.0,0.0,0.0,0.0,-0.0809,-0.2872,-0.2946,-0.4799,-0.8849,-0.9002,-1.0008,-1.206,-1.2135,-1.2088,-1.2142,-1.2142,-1.2216,-1.2359,-1.2359,-1.244,-1.2576,-1.2481,-1.2461,-1.2508,-1.2556,-1.2576,-1.2589,-1.2745,0.0,-1.282,0.0,0.0,0.0,0.0,0.0,0.0,0.0,0.0,0.0,0.0,0.0,0.0,-2.29,-2.5251,-2.6386,-2.6386,-2.6386,-2.6386,-2.6386,-2.6386,-2.6386,-2.6386,-2.6386,-2.6413,-2.652,-2.6694,-2.6947,-2.7335,-2.7562,-2.7789,-2.8181,-2.8221,-2.8221,-2.8221,-2.8221,-2.8301,-2.843,-2.8537,-2.8684,-2.8871,-2.9165,-2.9379,-2.9472,-2.9659,-2.982,-2.9913,-2.9913,-2.9913,-2.9913,-2.9913,-2.9913,-2.9913,-2.9913,-2.9913,-2.9913,-2.9913,-2.9913,-2.9927,-3.0114,-3.0261,-3.0381,-3.0875,-3.1249,-3.153,-3.1623,-3.1664,-3.1664,-3.1664,-3.1664,-3.1664,-3.1664,-3.1664,-3.1664,0.0,0.0,0.0,0.0,0.0,0.0,0.0,0.0,0.0,0.0,0.0,0.0,0.0,0.0,0.0,-0.0074,-0.0149,-0.1046,-0.317,-0.3247,-0.5054,-0.9115,-0.9265,-1.0174,-1.2074,-1.2074,-1.2149,-1.2298,-1.2298,-1.2372,-1.2508,-1.2508,-1.2589,-1.2739,-1.2739,-1.2657,-1.2522,-1.2671,-1.2739,-1.2752,0.0,-1.305,-1.305,0.0,0.0,0.0,-1.3024,-1.3159,0.0,-1.3227,0.0,0.0,0.0,0.0,0.0,0.0,-2.6386,-2.6386,0.0,0.0,0.0,-2.6386,-2.6386,-2.6386,-2.6386,-2.64,-2.648,-2.676,-2.6841,-2.7028,-2.7589,-2.7709,-2.7802,-2.8181,-2.8221,-2.8221,-2.8221,-2.8221,-2.8221,-2.8221,-2.8417,-2.8591,-2.8591,-2.8858,-2.9152,-2.9432,-2.9472,-2.9606,-2.9887,-2.9913,-2.9913,-2.9913,-2.9913,-2.9913,-2.9913,-2.9913,-2.9913,-2.9913,-2.9913,-2.9913,-2.9913,-2.9913,-3.0074,-3.0368,-3.0662,-3.0942,-3.1236,-3.1543,-3.1664,-3.1664,-3.1664,-3.1664,-3.1664,-3.1664,-3.1664,-3.1664,0.0,0.0,0.0,0.0,0.0,0.0,0.0,0.0,0.0,0.0,0.0,0.0,0.0,0.0,-0.2248,-0.2256,-0.3681,-0.5409,-0.7377,-0.7531,-0.8695,-1.1302,-1.146,-1.1732,-1.2379,-1.2379,-1.24,-1.244,-1.244,-1.2522,-1.2664,-1.2664,-1.2752,-1.2895,-1.2895,-1.2874,-1.284,-1.2881,-1.2895,-1.2908,-1.3057,-1.3112,0.0,0.0,0.0,0.0,0.0,-1.3336,-1.3397,0.0,-1.3363,-1.3645,0.0,0.0,0.0,0.0,0.0,0.0,-2.6386,0.0,0.0,0.0,0.0,0.0,-2.6386,-2.6547,-2.672,-2.68,-2.7161,-2.7509,-2.7669,-2.7883,-2.8127,-2.8207,-2.8221,-2.8221,-2.8221,-2.8221,-2.8221,-2.8221,-2.8301,-2.827,-2.827,-2.8551,-2.8764,-2.8845,-2.9245,-2.9526,-2.9606,-2.9806,-2.9913,-2.9913,-2.9913,-2.9913,-2.9913,-2.9913,-2.9913,-2.9913,-2.9913,-2.9913,-2.9913,-2.9913,-2.9967,-3.006,-3.0354,-3.0648,-3.0955,-3.1463,-3.1664,-3.1664,-3.1664,-3.1664,-3.1664,-3.1664,-3.1664,-3.1664,0.0,0.0,0.0,0.0,0.0,0.0,0.0,0.0,0.0,0.0,0.0,0.0,0.0,0.0,0.0,-0.3195,-0.4259,-0.5863,-0.7875,-0.7955,-0.9284,-1.2219,-1.2379,-1.2447,-1.2589,-1.2596,-1.263,-1.2691,-1.2691,-1.2739,-1.2827,-1.2827,-1.2908,-1.3051,-1.3051,-1.3085,-1.3146,-1.3146,-1.3105,-1.3064,-1.3207,0.0,0.0,-1.337,-1.3403,0.0,0.0,0.0,-1.3403,-1.3403,-1.3403,0.0,0.0,0.0,0.0,0.0,0.0,0.0,0.0,0.0,-2.6386,-2.6386,0.0,0.0,-2.6547,-2.6694,-2.6894,-2.7134,-2.7455,-2.7736,-2.7856,-2.8114,-2.8221,-2.8221,-2.8221,-2.8221,-2.8221,-2.8221,-2.8221,-2.8221,-2.8221,-2.8221,-2.8221,-2.831,-2.847,-2.8591,-2.8925,-2.9219,-2.9472,-2.9753,-2.9913,-2.9913,-2.9913,-2.9913,-2.9913,-2.9913,-2.9913,-2.9913,-2.9913,-2.9913,-2.9913,-2.9913,-2.9913,-2.9927,-3.0234,-3.0461,-3.0662,-3.1249,-3.1557,-3.1664,-3.1664,-3.1664,-3.1664,-3.1664,-3.1664,-3.1664,0.0,0.0,0.0,0.0,0.0,0.0,0.0,-0.0226,-0.0379,0.0,-0.1972,-0.3715,0.0,0.0,0.0,0.0,-0.3711,-0.4738,-0.69,-0.7064,-0.8705,-1.2393,-1.2556,-1.2617,-1.2752,-1.2752,-1.282,-1.2963,-1.2963,-1.2969,-1.2983,-1.2983,-1.3064,-1.32,-1.32,-1.3275,-1.3403,-1.3403,-1.3322,-1.3207,-1.3349,-1.3403,0.0,0.0,-1.3403,-1.3403,-1.3403,-1.3403,-1.3403,-1.3403,-1.3403,0.0,0.0,0.0,0.0,0.0,-2.4681,0.0,0.0,0.0,0.0,0.0,-2.644,0.0,-2.68,-2.6894,-2.7068,-2.7589,-2.7722,-2.7829,-2.8181,-2.8221,-2.8221,-2.8221,-2.8221,-2.8221,-2.8221,-2.8221,-2.8221,-2.8221,-2.8221,-2.8221,-2.8221,-2.8221,-2.8341,-2.8537,-2.8617,-2.8898,-2.9459,-2.9753,-2.9913,-2.9913,-2.9913,-2.9913,-2.9913,-2.9913,-2.9913,-2.9913,-2.9913,-2.9913,-2.9913,-2.9913,-2.9913,-2.9927,-3.0194,-3.0327,-3.0408,-3.0955,-3.1356,-3.1623,-3.1664,-3.1664,-3.1664,-3.1664,-3.1664,-3.1664,0.0,0.0,0.0,0.0,0.0,0.0,0.0,-0.1435,-0.2502,-0.2528,-0.2861,-0.2643,0.0,0.0,0.0,0.0,-0.733,-0.9302,-1.158,-1.166,-1.2064,-1.2874,-1.2874,-1.2888,-1.2915,-1.2915,-1.2929,-1.2963,-1.2963,-1.3097,-1.3132,-1.3132,-1.3214,-1.3356,-1.3356,-1.337,-1.3403,-1.3403,-1.3383,-1.3356,-1.339,-1.3403,-1.3403,-1.3403,-1.3403,-1.3403,-1.3403,-1.3403,-1.3403,-1.3403,-1.3403,-1.3811,0.0,0.0,0.0,0.0,0.0,0.0,0.0,0.0,0.0,0.0,0.0,0.0,-2.7108,-2.7362,-2.7562,-2.7682,-2.7896,-2.8154,-2.8221,-2.8221,-2.8221,-2.8221,-2.8221,-2.8221,-2.8221,-2.8221,-2.8221,-2.8221,-2.8221,-2.8221,-2.8221,-2.8221,-2.8248,-2.823,-2.8684,-2.9112,-2.9459,-2.9753,-2.9913,-2.9913,-2.9913,-2.9913,-2.9913,-2.9913,-2.9913,-2.9913,-2.9913,-2.9913,-2.9913,-2.9913,-2.9913,-2.9913,-2.998,-3.014,-3.0381,-3.0742,-3.1049,-3.133,-3.157,-3.1664,-3.1664,-3.1664,-3.1664,-3.1664,0.0,0.0,0.0,0.0,0.0,0.0,0.0,-0.0921,-0.1544,-0.1553,-0.3448,-0.4823,0.0,0.0,0.0,0.0,0.0,0.0,0.0,-1.1412,-1.19,-1.2963,-1.2963,-1.2996,-1.3064,-1.3064,-1.3105,-1.318,-1.318,-1.3214,-1.3288,-1.3288,-1.3329,-1.3403,-1.3403,-1.3403,-1.3403,-1.3403,-1.3403,-1.3403,-1.3403,-1.3403,-1.3403,-1.3403,-1.3403,-1.3403,-1.3403,-1.3403,-1.3403,-1.3403,-1.3403,0.0,0.0,-1.722,-2.015,0.0,-2.3792,-2.6426,0.0,0.0,0.0,-2.6974,0.0,0.0,0.0,-2.7589,-2.7736,-2.7896,-2.8043,-2.8221,-2.8221,-2.8221,-2.8221,-2.8221,-2.8221,-2.8221,-2.8221,-2.8221,-2.8221,-2.8221,-2.8221,-2.8221,-2.8221,-2.8221,-2.8288,-2.8364,-2.8925,-2.9325,-2.9472,-2.9753,-2.9913,-2.9913,-2.9913,-2.9913,-2.9913,-2.9913,-2.9913,-2.9913,-2.9913,-2.9913,-2.9913,-2.9913,-2.9913,-2.9913,-2.9913,-3.0007,-3.0154,-3.0461,-3.0755,-3.1049,-3.1503,-3.1664,-3.1664,-3.1664,-3.1664,-3.1664,-0.0532,0.0,-0.0458,-0.0076,0.0,0.0,0.0,-0.0313,-0.0788,-0.1184,-0.4683,-0.7605,0.0,0.0,0.0,0.0,0.0,0.0,0.0,0.0,-1.1242,-1.2963,-1.3044,-1.3098,-1.3214,-1.3214,-1.3275,-1.3403,-1.3403,-1.3403,-1.3403,-1.3403,-1.3403,-1.3403,-1.3403,-1.3403,-1.3403,-1.3403,-1.3403,-1.3403,-1.3403,-1.3403,-1.3403,-1.3403,-1.3403,-1.3403,-1.3403,-1.3403,-1.3403,-1.3403,-1.3403,-1.3562,-1.4383,-1.7065,0.0,0.0,0.0,0.0,0.0,0.0,0.0,0.0,0.0,-2.7428,0.0,0.0,0.0,-2.8181,-2.8221,-2.8221,-2.8221,-2.8221,-2.8207,-2.8154,-2.8194,-2.8207,-2.8154,-2.8194,-2.8221,-2.8221,-2.8221,-2.8221,-2.8221,-2.8274,-2.8364,-2.8671,-2.9179,-2.9486,-2.9486,-2.9753,-2.9913,-2.9913,-2.9913,-2.9913,-2.9913,-2.9913,-2.9913,-2.9913,-2.9913,-2.9913,-2.9913,-2.9913,-2.9913,-2.9913,-2.9913,-2.9913,-2.994,-3.0234,-3.0501,-3.0768,-3.1356,-3.1623,-3.1664,-3.1664,-3.1664,-3.1664,-0.2386,-0.2711,0.0,-0.0313,0.0,0.0,0.0,-0.1592,-0.351,-0.5477,-0.7906,-0.8804,0.0,0.0,0.0,0.0,0.0,0.0,-1.2847,0.0,0.0,-1.3349,-1.3349,-1.3356,-1.3376,-1.3376,-1.3383,-1.3403,-1.3403,-1.3403,-1.3403,-1.3403,-1.3403,-1.3403,-1.3403,-1.3403,-1.3403,-1.3403,-1.3403,-1.3403,-1.3403,-1.3403,-1.3403,-1.3403,-1.3403,-1.3403,-1.3403,-1.3403,-1.3403,0.0,-1.3403,-1.4052,0.0,-1.9501,-2.0677,0.0,0.0,0.0,0.0,0.0,0.0,0.0,-2.7642,0.0,0.0,0.0,-2.8181,-2.8221,0.0,-2.8221,-2.8221,0.0,0.0,-2.7789,-2.7963,-2.814,-2.7789,-2.7976,-2.8221,-2.8221,-2.8221,-2.8221,-2.8221,-2.839,-2.8671,-2.8965,-2.9299,-2.9486,-2.9486,-2.9753,-2.9913,-2.9913,-2.9913,-2.9913,-2.9913,-2.9913,-2.9913,-2.9913,-2.9913,-2.9913,-2.9913,-2.9913,-2.9913,-2.9913,-2.9913,-2.9913,-2.994,-3.0234,-3.0381,-3.0474,-3.1049,-3.1436,-3.1664,-3.1664,-3.1664,-3.1664,0.0,-0.1264,0.0,0.0,-0.1041,-0.1923,-0.1933,-0.3781,-0.5569,-0.653,-0.858,-0.9586,0.0,0.0,0.0,0.0,0.0,-1.2395,0.0,0.0,0.0,0.0,-1.3403,-1.3403,-1.3403,-1.3403,-1.3403,-1.3403,-1.3403,-1.3403,-1.3403,-1.3403,-1.3403,-1.3403,-1.3403,-1.3403,-1.3403,-1.3403,-1.3403,-1.3403,-1.3403,-1.3403,-1.3403,-1.3403,-1.3403,-1.3403,-1.3403,-1.3403,-1.3417,0.0,-1.4438,0.0,0.0,0.0,0.0,0.0,0.0,0.0,0.0,0.0,0.0,0.0,0.0,0.0,-2.8194,0.0,-2.8221,0.0,0.0,0.0,0.0,0.0,0.0,0.0,-2.814,-2.8181,-2.7976,-2.8154,-2.8221,-2.8221,-2.8221,-2.8301,-2.839,-2.8845,-2.9165,-2.9285,-2.9566,-2.974,-2.974,-2.9847,-2.9913,-2.9913,-2.9913,-2.9913,-2.9913,-2.9913,-2.9913,-2.9913,-2.9913,-2.9913,-2.9913,-2.9913,-2.9913,-2.9913,-2.9913,-2.9913,-2.994,-3.0234,-3.0461,-3.0648,-3.1062,-3.1303,-3.1436,-3.161,-3.1664,-3.1664,0.0,0.0,0.0,0.0,-0.2759,-0.4219,-0.4313,-0.6201,-0.7619,-0.76,-0.9593,0.0,-1.1042,-1.2478,0.0,0.0,-1.3403,-1.3403,0.0,0.0,-1.3403,0.0,0.0,0.0,0.0,-1.3403,-1.3403,-1.3403,-1.3403,-1.3403,-1.3403,-1.3403,-1.3403,-1.3403,-1.3403,-1.3403,-1.3403,-1.3403,-1.3403,-1.3403,-1.3444,-1.3485,-1.3512,-1.3431,-1.3424,-1.3464,-1.3464,-1.3492,-1.3623,-1.44,-1.5769,0.0,-1.8754,0.0,0.0,0.0,0.0,0.0,-2.7736,0.0,0.0,0.0,0.0,0.0,0.0,0.0,0.0,0.0,0.0,0.0,0.0,0.0,-2.8207,0.0,0.0,-2.8194,-2.8114,-2.8181,-2.8221,-2.8221,-2.8301,-2.8417,-2.8804,-2.9232,-2.9513,-2.9593,-2.9793,-2.9913,-2.9913,-2.9913,-2.9913,-2.9913,-2.9913,-2.9913,-2.9913,-2.9913,-2.9913,-2.9913,-2.9913,-2.9913,-2.9913,-2.9913,-2.9913,-2.9927,-3.0007,-3.0034,-3.006,-3.0354,-3.0595,-3.0822,-3.1116,-3.1223,-3.1263,-3.1557,-3.1664,-3.1664,-0.6485,-0.636,0.0,0.0,-0.5102,-0.658,-0.6574,-0.8471,-0.9951,-0.9956,0.0,0.0,0.0,0.0,0.0,0.0,0.0,-1.3403,-1.3403,0.0,-1.3403,0.0,0.0,-1.3403,0.0,0.0,-1.3403,-1.3403,-1.3403,-1.3403,-1.3403,-1.3403,-1.3403,-1.3403,-1.3403,-1.3403,-1.3403,-1.3403,-1.3403,-1.341,-1.3559,-1.3702,-1.3797,-1.3512,-1.3492,-1.362,-1.362,-1.3709,-1.4166,-1.6442,-1.7197,0.0,0.0,0.0,0.0,0.0,0.0,0.0,0.0,0.0,0.0,-2.8221,0.0,0.0,0.0,0.0,-2.8221,0.0,0.0,0.0,0.0,0.0,0.0,0.0,0.0,0.0,0.0,-2.7963,-2.8221,-2.8221,-2.8404,-2.8818,-2.9406,-2.9472,-2.9606,-2.9887,-2.9913,-2.9913,-2.9913,-2.9913,-2.9913,-2.9913,-2.9913,-2.9913,-2.9913,-2.9913,-2.9913,-2.9913,-2.9913,-2.9913,-2.9913,-2.9913,-2.9913,-2.9927,-3.0221,-3.0341,-3.0368,-3.0662,-3.0782,-3.0822,-3.1116,-3.1223,-3.1263,-3.1557,-3.1664,-3.1664,0.0,0.0,0.0,0.0,-0.7368,-0.9365,-1.0898,-1.1777,-1.2222,0.0,-1.2982,0.0,0.0,-1.3403,-1.3403,0.0,0.0,-1.3403,-1.3403,-1.3403,0.0,0.0,0.0,-1.3403,0.0,0.0,0.0,0.0,-1.3403,-1.3403,-1.3403,-1.3403,-1.3403,-1.3403,-1.3505,-1.3553,-1.3559,-1.3654,-1.3688,-1.3695,-1.3749,-1.3797,-1.3831,-1.3729,-1.3722,-1.377,-1.377,-1.3797,-1.4194,-1.6588,-1.8493,-2.0288,-2.3433,-2.5529,-2.6923,-2.7782,-2.7989,-2.81,0.0,0.0,-2.8221,-2.8221,0.0,0.0,0.0,0.0,0.0,0.0,0.0,0.0,0.0,0.0,0.0,0.0,0.0,0.0,0.0,-2.8671,-2.8804,-2.9005,-2.9125,-2.9259,-2.9459,-2.9659,-2.9806,-2.9913,-2.9913,-2.9913,-2.9913,-2.9913,-2.9913,-2.9913,-2.9913,-2.9913,-2.9913,-2.9913,-2.9913,-2.9913,-2.9913,-2.9913,-2.9927,-3.0114,-3.0207,-3.0221,-3.0515,-3.0648,-3.0675,-3.0955,-3.1076,-3.1102,-3.141,-3.1517,-3.153,-3.1637,-3.1664,-3.1664,-0.904,0.0,0.0,-0.829,-0.9711,-1.1718,-1.3148,-1.3403,-1.3403,0.0,-1.3403,0.0,-1.3403,0.0,-1.3403,0.0,-1.3403,-1.3403,-1.3403,-1.3403,0.0,-1.3403,-1.3403,0.0,0.0,0.0,0.0,0.0,-1.3485,-1.3505,-1.3559,-1.3559,-1.3559,-1.3559,-1.3661,-1.3702,-1.3709,-1.3804,-1.3838,-1.3844,-1.3899,-1.3953,-1.4087,-1.4938,-1.4643,-1.4005,-1.4858,-1.5145,-1.5721,-1.8999,-2.1094,-2.2747,-2.5155,-2.7012,-2.8221,-2.8221,-2.8221,-2.8221,-2.8221,-2.8221,0.0,-2.8221,-2.8221,0.0,-2.8283,0.0,-2.8337,0.0,0.0,0.0,0.0,0.0,0.0,0.0,0.0,0.0,0.0,-2.9125,-2.9272,-2.9459,-2.9486,-2.9526,-2.9633,-2.9806,-2.9913,-2.9913,-2.9913,-2.9913,-2.9913,-2.9913,-2.9913,-2.9913,-2.9913,-2.9913,-2.9913,-2.9913,-2.9913,-2.9913,-3.002,-3.0074,-3.0087,-3.0381,-3.0515,-3.0528,-3.0822,-3.0942,-3.0969,-3.1263,-3.1383,-3.1396,-3.1597,-3.1664,-3.1664,-3.1664,-3.1664,-3.1664,-1.3403,-1.3403,-1.2727,-1.0632,-1.1973,-1.3403,-1.3403,-1.3403,-1.3403,0.0,-1.3403,-1.3403,-1.3403,-1.3403,-1.3403,-1.3403,-1.3403,-1.3403,-1.3403,-1.341,0.0,0.0,-1.3417,-1.3424,-1.3424,0.0,0.0,0.0,0.0,-1.3709,-1.3838,-1.3838,-1.3838,-1.3838,-1.3851,-1.3851,-1.3851,-1.3858,-1.3779,-1.3878,-1.4194,-1.4345,-1.4734,-1.7071,-1.6538,-1.4771,-1.6906,-1.7784,-1.8627,-2.3212,-2.4691,-2.5117,-2.7448,-2.8221,-2.8221,-2.8221,-2.8234,-2.8248,-2.8248,-2.8261,-2.8274,-2.8274,-2.8274,0.0,0.0,0.0,-2.8711,0.0,0.0,0.0,0.0,0.0,0.0,0.0,0.0,0.0,0.0,-2.9325,-2.9499,-2.9499,-2.9499,-2.9619,-2.9887,-2.9913,-2.9913,-2.9913,-2.9913,-2.9913,-2.9913,-2.9913,-2.9913,-2.9913,-2.9913,-2.9913,-2.9913,-2.9927,-2.994,-2.994,-3.0234,-3.0381,-3.0394,-3.0675,-3.0808,-3.0822,-3.1116,-3.1249,-3.1276,-3.1557,-3.1664,-3.1664,-3.1664,-3.1664,-3.1664,-3.1664,-3.1664,-3.1664,-1.3403,-1.3403,-1.3231,-1.2644,-1.2982,-1.3403,-1.3403,-1.3403,0.0,0.0,-1.3403,-1.3403,-1.3403,-1.3403,-1.3403,-1.3403,-1.3403,0.0,0.0,0.0,0.0,-1.3573,-1.3675,-1.3729,-1.3729,-1.3729,0.0,-1.3783,0.0,-1.3804,-1.3838,-1.3838,-1.3838,-1.3844,-1.396,-1.4014,-1.4021,-1.4136,-1.4183,-1.4359,-1.6117,-1.6856,-1.7159,-1.9488,-1.9894,-1.9414,-2.0019,-2.0307,-2.0789,-2.3738,-2.4691,-2.5117,-2.7448,-2.8221,-2.8221,-2.8221,-2.831,-2.8484,-2.8484,-2.8644,-2.8804,-2.8804,-2.8804,-2.8831,0.0,0.0,0.0,0.0,0.0,0.0,0.0,0.0,0.0,0.0,0.0,0.0,0.0,0.0,-2.9806,-2.9806,-2.9806,-2.9833,-2.9913,-2.9913,-2.9913,-2.9913,-2.9913,-2.9913,-2.9913,-2.9913,-2.9913,-2.9913,-2.9913,-2.9913,-2.9913,-3.014,-3.0247,-3.0247,-3.0541,-3.0675,-3.0688,-3.0982,-3.1116,-3.1129,-3.1423,-3.1557,-3.1557,-3.1637,-3.1664,-3.1664,-3.1664,-3.1664,-3.1664,-3.1664,-3.1664,-3.1664,-1.3403,-1.3403,-1.3403,-1.3403,-1.3403,-1.3403,-1.3403,-1.3403,0.0,-1.3492,-1.3444,0.0,-1.3492,-1.3498,-1.3498,-1.3498,-1.3559,0.0,-1.3593,0.0,0.0,-1.3722,-1.3797,-1.3838,-1.3838,-1.3838,0.0,-1.3939,0.0,-1.3973,-1.4041,-1.4041,-1.4041,-1.4048,-1.4136,-1.417,-1.4177,-1.4265,-1.4911,-1.5946,-1.7238,-1.8366,0.0,-2.1825,-2.2837,-2.3021,-2.4069,-2.3742,-2.3126,-2.5458,-2.6323,-2.6607,-2.7997,-2.843,-2.8537,-2.8537,-2.8657,-2.8791,-2.8791,-2.8911,-2.9045,-2.9045,-2.9045,-2.9072,-2.9205,-2.9232,-2.9272,0.0,-2.9419,-2.9419,0.0,0.0,0.0,0.0,0.0,0.0,0.0,0.0,-2.9913,-2.9913,-2.9913,-2.9913,-2.9913,-2.9913,-2.9913,-2.9913,-2.9913,-2.9913,-2.9913,-2.9913,-2.9913,-2.9913,-2.9913,-2.998,-3.0114,-3.0274,-3.0421,-3.0555,-3.0849,-3.0982,-3.0996,-3.1289,-3.1423,-3.1423,-3.1597,-3.1664,-3.1664,-3.1664,-3.1664,-3.1664,-3.1664,-3.1664,-3.1664,-3.1664,-3.1664,-3.1664,-1.3403,-1.3417,-1.3431,-1.3431,-1.3444,-1.3458,-1.3458,-1.3444,-1.3478,-1.3614,0.0,-1.3512,-1.3641,-1.3654,-1.3654,-1.3654,0.0,-1.3838,-1.3838,-1.3858,-1.3871,-1.3871,-1.3892,-1.3899,-1.3899,-1.3899,0.0,0.0,0.0,-1.417,-1.4299,-1.4299,-1.4299,-1.4299,-1.4299,-1.4476,-1.4734,-1.4734,-1.6137,-1.8313,-1.8663,-1.9979,-2.2005,-2.4356,-2.5454,-2.5919,-2.7956,-2.7174,-2.5567,-2.765,-2.8444,-2.8671,-2.8671,-2.8831,-2.9045,-2.9045,-2.9072,-2.9098,-2.9098,-2.9125,-2.9152,-2.9152,-2.9152,-2.9219,-2.9486,-2.9539,-2.9619,-2.986,-2.9913,-2.9913,-2.9913,0.0,0.0,0.0,0.0,0.0,0.0,0.0,0.0,0.0,-2.9913,0.0,-2.9913,-2.9913,-2.9913,-2.9913,-2.9913,-2.9913,-2.9913,-2.9913,-2.994,-2.9967,-2.998,-3.0114,-3.0421,-3.0448,-3.0595,-3.0849,-3.1142,-3.1289,-3.1289,-3.1557,-3.1664,-3.1664,-3.1664,-3.1664,-3.1664,-3.1664,-3.1664,-3.1664,-3.1664,-3.1664,-3.1664,-3.1664,-3.1664,-3.1664,-1.3403,-1.3505,-1.3587,-1.3587,-1.3688,-1.3763,-1.3763,-1.3661,-1.36,-1.3627,-1.3709,-1.3777,-1.3797,-1.3718,-1.3718,-1.3718,-1.3824,0.0,0.0,0.0,0.0,-1.4034,-1.415,-1.4217,-1.4217,-1.4217,-1.4231,0.0,0.0,-1.4272,-1.4299,-1.4299,-1.4299,-1.4299,-1.4299,-1.5337,-1.7159,-1.7159,-1.8637,-2.1144,-2.3076,-2.4243,-2.505,-2.737,-2.8291,-2.833,-2.8791,-2.8664,-2.8351,-2.8711,-2.8911,-2.8965,-2.8965,-2.9005,-2.9045,-2.9045,-2.9219,-2.9406,-2.9406,-2.9579,-2.9766,-2.9766,-2.9766,-2.978,-2.9833,-2.9847,-2.986,-2.99,-2.9913,-2.9913,-2.9913,0.0,0.0,0.0,0.0,0.0,0.0,0.0,0.0,0.0,0.0,-2.9913,-2.9913,-2.9913,-2.9913,-2.9913,-2.9913,-2.9913,-2.9913,-2.9913,-3.0034,-3.0274,-3.0287,-3.0421,-3.0715,-3.0955,-3.1102,-3.1156,-3.145,-3.1597,-3.1597,-3.165,-3.1664,-3.1664,-3.1664,-3.1664,-3.1664,-3.1664,-3.1664,-3.1664,-3.1664,-3.1664,-3.1664,-3.1664,-3.1664,-3.1664,-1.3627,-1.3688,-1.3736,-1.3736,-1.3797,-1.3838,-1.3838,-1.3851,-1.3858,-1.3858,-1.3851,-1.3871,-1.3953,-1.396,-1.396,-1.396,-1.4034,-1.4082,-1.4082,-1.415,-1.419,-1.419,-1.4265,0.0,-1.4299,-1.4299,-1.4299,-1.4299,0.0,-1.4299,-1.4299,-1.4299,-1.4299,-1.4387,-1.569,-1.7,-1.8228,-1.9451,-2.1449,-2.3853,-2.4916,-2.6149,-2.7509,-2.8596,-2.9138,-2.9272,-2.9272,-2.9366,-2.9446,-2.9138,-2.9138,-2.9272,-2.9272,-2.9379,-2.9499,-2.9499,-2.9593,-2.9713,-2.9713,-2.9806,-2.9913,-2.9913,-2.9913,-2.9913,-2.9913,-2.9913,-2.9913,-2.9913,-2.9913,-2.9913,-2.9913,-2.9913,0.0,0.0,0.0,0.0,0.0,0.0,0.0,0.0,0.0,0.0,-2.9913,-2.9913,-2.9913,-2.9913,-2.9913,-2.998,-3.014,-3.014,-3.0287,-3.0581,-3.0581,-3.0728,-3.1009,-3.1156,-3.1303,-3.1463,-3.1597,-3.1664,-3.1664,-3.1664,-3.1664,-3.1664,-3.1664,-3.1664,-3.1664,-3.1664,-3.1664,-3.1664,-3.1664,-3.1664,-3.1664,-3.1664,-3.1664,-3.1664,-1.3838,-1.3865,-1.3892,-1.3892,-1.3919,-1.3939,-1.3939,-1.4041,-1.4109,-1.4075,-1.3994,-1.3987,-1.4109,-1.4122,-1.4122,-1.4122,-1.4231,-1.4299,-1.4299,-1.4299,-1.4299,-1.4299,-1.4299,-1.4299,-1.4299,-1.4299,-1.4299,0.0,0.0,-1.4312,-1.4251,-1.4346,-1.4654,-1.5276,-1.7331,-1.8884,-2.0101,-2.1967,-2.423,-2.6431,-2.6431,-2.7548,-2.9232,-2.9232,-2.9366,-2.9579,-2.9579,-2.9726,-2.9847,-2.9379,-2.9379,-2.9579,-2.9579,-2.9726,-2.9913,-2.9913,-2.9913,-2.9913,-2.9913,-2.9913,-2.9913,-2.9913,-2.9913,-2.9913,-2.9913,-2.9913,-2.9913,-2.9913,-2.9913,-2.9913,-2.9913,-2.9913,0.0,0.0,0.0,0.0,0.0,0.0,0.0,0.0,0.0,0.0,-3.0007,-3.0007,-3.0034,-3.01,-3.0047,-3.0114,-3.0354,-3.0421,-3.0581,-3.0875,-3.0889,-3.1022,-3.1316,-3.1316,-3.1436,-3.1664,-3.1664,-3.1664,-3.1664,-3.1664,-3.1664,-3.1664,-3.1664,-3.1664,-3.1664,-3.1664,-3.1664,-3.1664,-3.1664,-3.1664,-3.1664,-3.1664,-3.1664,-3.1664,-1.3838,-1.3953,-1.4048,-1.4048,-1.4163,-1.4258,-1.4258,-1.4272,-1.4231,-1.4089,-1.4183,-1.4265,-1.4278,-1.4278,-1.4278,-1.4278,-1.4292,-1.4299,-1.4299,-1.4299,-1.4299,-1.4299,-1.4299,-1.4299,-1.4299,-1.4299,-1.4299,0.0,0.0,-1.4353,-1.4102,-1.4509,-1.5858,-1.8001,-1.8279,-2.0798,-2.4914,-2.519,-2.6768,-2.9168,-2.9168,-2.9415,-2.9833,-2.9833,-2.9847,-2.9873,-2.9873,-2.99,-2.9913,-2.986,-2.986,-2.9873,-2.9873,-2.99,-2.9913,-2.9913,-2.9913,-2.9913,-2.9913,-2.9913,-2.9913,-2.9913,-2.9913,-2.9913,-2.9913,-2.9913,-2.9913,-2.9913,-2.9913,-2.9913,-2.9913,-2.9913,-2.9913,0.0,0.0,0.0,0.0,0.0,0.0,0.0,0.0,0.0,-3.0287,-3.0314,-3.0421,-3.0688,-3.0461,-3.0327,-3.0354,-3.0608,-3.0889,-3.1169,-3.1183,-3.133,-3.1623,-3.1623,-3.1637,-3.1664,-3.1664,-3.1664,-3.1664,-3.1664,-3.1664,-3.1664,-3.1664,-3.1664,-3.1664,-3.1664,-3.1664,-3.1664,-3.1664,-3.1664,-3.1664,-3.1664,-3.1664,-3.1664,-1.4116,-1.4163,-1.4211,-1.4211,-1.4258,-1.4299,-1.4299,-1.4299,-1.4278,-1.4217,-1.4265,-1.4299,-1.4299,-1.4299,-1.4299,-1.4299,-1.4299,-1.4299,-1.4299,-1.4299,-1.4299,-1.4299,-1.438,-1.4428,-1.4428,-1.4516,-1.4563,0.0,0.0,0.0,-1.4475,-1.6167,-1.829,-2.0829,-2.226,-2.4061,-2.6103,-2.7558,-2.8806,-2.974,-2.974,-2.9806,-2.9913,-2.9913,-2.9913,-2.9913,-2.9913,-2.9913,-2.9913,-2.9913,-2.9913,-2.9913,-2.9913,-2.9913,-2.9913,-2.9913,-2.9913,-2.9913,-2.9913,-2.9913,-2.9913,-2.9913,-2.9913,-2.9913,-2.9913,-2.9913,-2.9913,-2.9913,-2.9913,-2.9913,-2.9913,-2.9913,-2.9913,-2.9913,0.0,0.0,0.0,0.0,0.0,0.0,0.0,0.0,-3.0608,-3.0621,-3.0662,-3.0782,-3.0688,-3.0702,-3.0862,-3.0996,-3.1183,-3.1476,-3.149,-3.1543,-3.1664,-3.1664,-3.1664,-3.1664,-3.1664,-3.1664,-3.1664,-3.1664,-3.1664,-3.1664,-3.1664,-3.1664,-3.1664,-3.1664,-3.1664,-3.1664,-3.1664,-3.1664,-3.1664,-3.1664,-3.1664,-3.1664,-1.4299,-1.4299,-1.4299,-1.4299,-1.4299,-1.4299,-1.4299,-1.4299,-1.4299,-1.4299,-1.4299,-1.4299,-1.4299,-1.4299,-1.4299,-1.4299,-1.434,-1.436,-1.436,-1.4407,-1.4428,-1.4428,-1.4523,0.0,-1.4577,-1.4685,-1.474,-1.474,-1.4787,0.0,-1.5745,-1.8287,-2.0871,-2.3502,-2.5318,-2.6516,-2.7419,-2.9182,-2.9913,-2.9913,-2.9913,-2.9913,-2.9913,-2.9913,-2.9913,-2.9913,-2.9913,-2.9913,-2.9913,-2.9913,-2.9913,-2.9913,-2.9913,-2.9913,-2.9913,-2.9913,-2.9913,-2.9913,-2.9913,-2.9913,-2.9913,-2.9913,-2.9913,-2.9913,-2.9913,-2.9913,-2.994,-3.0034,-3.0047,-3.0074,-3.0154,-3.0181,-3.0181,-3.0181,0.0,0.0,0.0,-3.0662,0.0,0.0,-3.0795,-3.0822,-3.0915,-3.0915,-3.0955,-3.1049,-3.1049,-3.1102,-3.1223,-3.1303,-3.145,-3.1664,-3.1664,-3.1664,-3.1664,-3.1664,-3.1664,-3.1664,-3.1664,-3.1664,-3.1664,-3.1664,-3.1664,-3.1664,-3.1664,-3.1664,-3.1664,-3.1664,-3.1664,-3.1664,-3.1664,-3.1664,-3.1664,-3.1664,-3.1664,-3.1664,-1.4299,-1.4299,-1.4299,-1.4299,-1.4299,-1.4299,-1.4299,-1.4299,-1.4299,-1.4299,-1.4299,-1.4299,-1.4299,-1.4299,-1.4299,-1.4299,-1.4428,-1.4509,-1.4509,-1.4652,-1.4733,0.0,0.0,-1.4733,-1.4733,-1.474,-1.474,-1.474,0.0,0.0,-1.822,-2.08,-2.3558,-2.6139,-2.6229,-2.7521,-2.9824,-2.9913,-2.9913,-2.9913,-2.9913,-2.9913,-2.9913,-2.9913,-2.9913,-2.9913,-2.9913,-2.9913,-2.9913,-2.9913,-2.9913,-2.9913,-2.9913,-2.9913,-2.9913,-2.9913,-2.9913,-2.9913,-2.9913,-2.9913,-2.9913,-2.9913,-2.9913,-2.9913,-2.9913,-2.9913,-3.0007,-3.0301,-3.0354,-3.0448,-3.0728,-3.0782,-3.0782,-3.0782,0.0,0.0,0.0,0.0,0.0,-3.0795,-3.0795,-3.0902,-3.1196,-3.1223,-3.1343,-3.1637,-3.1664,-3.153,-3.1236,-3.1503,-3.1664,-3.1664,-3.1664,-3.1664,-3.1664,-3.1664,-3.1664,-3.1664,-3.1664,-3.1664,-3.1664,-3.1664,-3.1664,-3.1664,-3.1664,-3.1664,-3.1664,-3.1664,-3.1664,-3.1664,-3.1664,-3.1664,-3.1664,-3.1664,-3.1664,-3.1664,-1.4299,-1.4299,-1.4299,-1.4299,-1.4299,-1.4299,-1.4299,-1.4299,-1.4333,-1.4434,-1.4441,-1.4482,-1.459,-1.4509,-1.4489,-1.459,-1.4638,-1.4665,-1.4665,-1.4713,-1.474,-1.474,-1.4841,-1.4896,-1.4896,-1.4991,-1.5868,-1.7596,-1.766,-1.973,-2.3688,-2.4485,-2.6257,-2.8719,-2.8719,-2.9182,-2.9913,-2.9913,-2.9913,-2.9913,-2.9913,-2.9913,-2.9913,-2.9913,-2.9913,-2.9913,-2.9913,-2.9913,-2.9913,-2.9913,-3.0047,-3.0221,-3.0221,-3.0074,-2.9913,-2.9913,-2.9913,-2.9913,-2.9913,-2.9913,-2.9967,-3.0167,-3.0221,-3.0274,-3.0474,-3.0515,-3.0541,-3.0635,-3.0662,-3.0688,-3.0768,-3.0795,-3.0795,-3.0795,-3.0955,0.0,-3.1089,0.0,-3.1396,-3.1396,-3.1396,-3.1423,-3.1517,-3.153,-3.157,-3.1664,-3.1664,-3.1623,-3.153,-3.1623,-3.1664,-3.1664,-3.1664,-3.1664,-3.1664,-3.1664,-3.1664,-3.1664,-3.1664,-3.1664,-3.1664,-3.1664,-3.1664,-3.1664,-3.1664,-3.1664,-3.1664,-3.1664,-3.1664,-3.1664,-3.1664,-3.1664,-3.1664,-3.1664,-3.1664,-3.1664,-1.4299,-1.4299,-1.4299,-1.4299,-1.4299,-1.4319,-1.4373,-1.438,-1.4434,-1.4577,-1.4597,-1.4658,-1.4808,-1.474,-1.4699,-1.4733,-1.4794,-1.4828,-1.4828,-1.4875,-1.4909,-1.4909,-1.4997,-1.5052,-1.5052,-1.514,-1.6385,-1.8871,-2.0705,-2.3187,-2.6229,-2.7148,-2.8436,-2.9913,-2.9913,-2.9913,-2.9913,-2.9913,-2.9913,-2.9913,-2.9913,-2.9913,-2.9927,-3.0047,-3.0087,-3.01,-3.0207,-3.0247,-3.0247,-3.0247,-3.0368,-3.0528,-3.0528,-3.0394,-3.0247,-3.0247,-3.0247,-3.0247,-3.0247,-3.0247,-3.0287,-3.0474,-3.0528,-3.0568,-3.0755,-3.0795,-3.0822,-3.0929,-3.0955,-3.0982,-3.1102,-3.1116,-3.1116,-3.1116,-3.1276,-3.1396,-3.1396,0.0,-3.1664,0.0,0.0,-3.1664,-3.1664,-3.1664,-3.1664,-3.1664,-3.1664,-3.1664,-3.1664,-3.1664,-3.1664,-3.1664,-3.1664,-3.1664,-3.1664,-3.1664,-3.1664,-3.1664,-3.1664,-3.1664,-3.1664,-3.1664,-3.1664,-3.1664,-3.1664,-3.1664,-3.1664,-3.1664,-3.1664,-3.1664,-3.1664,-3.1664,-3.1664,-3.1664,-3.1664,-3.1664,-1.4299,-1.4299,-1.4299,-1.4299,-1.4306,-1.436,-1.4489,-1.4523,-1.4584,-1.4733,-1.4753,-1.4814,-1.497,-1.4984,-1.493,-1.478,-1.4903,-1.4984,-1.4984,-1.5106,-1.5181,-1.5181,-1.5181,-1.5181,-1.5181,-1.5181,-1.6471,-1.9149,-2.4021,-2.6411,-2.6502,-2.8809,-2.9913,-2.9913,-2.9913,-2.9913,-2.9913,-2.9913,-2.9927,-2.994,-2.994,-2.9967,-3.0007,-3.0287,-3.0394,-3.0421,-3.0702,-3.0795,-3.0795,-3.0795,-3.0808,-3.0822,-3.0822,-3.0835,-3.0849,-3.0808,-3.0795,-3.0795,-3.0795,-3.0795,-3.0795,-3.0822,-3.0835,-3.0849,-3.0849,-3.0849,-3.0929,-3.1196,-3.1249,-3.1343,-3.1623,-3.1664,-3.1664,-3.1664,-3.1664,-3.1664,-3.1664,-3.1664,-3.1664,-3.1664,-3.1664,-3.1664,-3.1664,-3.1664,-3.1664,-3.1664,-3.1664,-3.1664,-3.1664,-3.1664,-3.1664,-3.1664,-3.1664,-3.1664,-3.1664,-3.1664,-3.1664,-3.1664,-3.1664,-3.1664,-3.1664,-3.1664,-3.1664,-3.1664,-3.1664,-3.1664,-3.1664,-3.1664,-3.1664,-3.1664,-3.1664,-3.1664,-3.1664,-3.1664,-3.1664,-3.1664,-1.4299,-1.4299,-1.4299,-1.4299,-1.4387,-1.4475,-1.4509,-1.4611,-1.474,-1.4896,-1.4916,-1.497,-1.512,-1.5133,-1.512,-1.5079,-1.5113,-1.5133,-1.5133,-1.516,-1.5181,-1.5181,-1.5181,-1.5181,-1.5181,-1.5181,-1.7312,-2.1728,-2.6604,-2.8989,-2.9079,-2.9644,-2.9913,-2.9913,-2.9913,-2.9913,-2.9913,-2.9913,-3.0047,-3.0261,-3.0261,-3.0381,-3.0595,-3.0662,-3.0688,-3.0702,-3.0768,-3.0795,-3.0795,-3.0795,-3.0942,-3.1129,-3.1129,-3.1276,-3.137,-3.0929,-3.0795,-3.0795,-3.0795,-3.0795,-3.0849,-3.1062,-3.1289,-3.1463,-3.1463,-3.1463,-3.1476,-3.1557,-3.157,-3.1583,-3.165,-3.1664,-3.1664,-3.1664,-3.1664,-3.1664,-3.1664,-3.1664,-3.1664,-3.1664,-3.1664,-3.1664,-3.1664,-3.1664,-3.1664,-3.1664,-3.1664,-3.1664,-3.1664,-3.1664,-3.1664,-3.1664,-3.1664,-3.1664,-3.1664,-3.1664,-3.1664,-3.1664,-3.1664,-3.1664,-3.1664,-3.1664,-3.1664,-3.1664,-3.1664,-3.1664,-3.1664,-3.1664,-3.1664,-3.1664,-3.1664,-3.1664,-3.1664,-3.1664,-3.1664,-3.1664,-1.4299,-1.4353,-1.4394,-1.4394,-1.4516,-1.4638,-1.4713,-1.4794,-1.4903,-1.5052,-1.5065,-1.5099,-1.5174,-1.5181,-1.5181,-1.5181,-1.5181,-1.5181,-1.5181,-1.5181,-1.5181,-1.5181,-1.5181,-1.5181,-1.5181,-1.6292,-1.9335,-2.4215,-2.8076,-2.9913,-2.9913,-2.9913,-2.9993,-3.0114,-3.0114,-3.0194,-3.0314,-3.0314,-3.0408,-3.0555,-3.0555,-3.0648,-3.0808,-3.0942,-3.0996,-3.1009,-3.1142,-3.1196,-3.1196,-3.1196,-3.1303,-3.1423,-3.1423,-3.1543,-3.161,-3.1289,-3.1196,-3.1196,-3.1196,-3.1196,-3.1236,-3.1383,-3.1557,-3.1664,-3.1664,-3.1664,-3.1664,-3.1664,-3.1664,-3.1664,-3.1664,-3.1664,-3.1664,-3.1664,-3.1664,-3.1664,-3.1664,-3.1664,-3.1664,-3.1664,-3.1664,-3.1664,-3.1664,-3.1664,-3.1664,-3.1664,-3.1664,-3.1664,-3.1664,-3.1664,-3.1664,-3.1664,-3.1664,-3.1664,-3.1664,-3.1664,-3.1664,-3.1664,-3.1664,-3.1664,-3.1664,-3.1664,-3.1664,-3.1664,-3.1664,-3.1664,-3.1664,-3.1664,-3.1664,-3.1664,-3.1664,-3.1664,-3.1664,-3.1664,-3.1664,-3.1664,-1.4333,-1.4448,-1.455,-1.455,-1.4672,-1.4821,-1.495,-1.4991,-1.5045,-1.5167,-1.5181,-1.5181,-1.5181,-1.5181,-1.5181,-1.5181,-1.5181,-1.5181,-1.5181,-1.5181,-1.5181,-1.5181,-1.5181,-1.5368,-1.5737,-1.8592,-2.1994,-2.6229,-2.8758,-2.998,-2.998,-3.0034,-3.0181,-3.0421,-3.0421,-3.0568,-3.0795,-3.0795,-3.0822,-3.0862,-3.0862,-3.0889,-3.0955,-3.1196,-3.1289,-3.133,-3.1583,-3.1664,-3.1664,-3.1664,-3.1664,-3.1664,-3.1664,-3.1664,-3.1664,-3.1664,-3.1664,-3.1664,-3.1664,-3.1664,-3.1664,-3.1664,-3.1664,-3.1664,-3.1664,-3.1664,-3.1664,-3.1664,-3.1664,-3.1664,-3.1664,-3.1664,-3.1664,-3.1664,-3.1664,-3.1664,-3.1664,-3.1664,-3.1664,-3.1664,-3.1664,-3.1664,-3.1664,-3.1664,-3.1664,-3.1664,-3.1664,-3.1664,-3.1664,-3.1664,-3.1664,-3.1664,-3.1664,-3.1664,-3.1664,-3.1664,-3.1664,-3.1664,-3.1664,-3.1664,-3.1664,-3.1664,-3.1664,-3.1664,-3.1664,-3.1664,-3.1664,-3.1664,-3.1664,-3.1664,-3.1664,-3.1664,-3.1664,-3.1664,-3.1664,-3.1664,-1.4475,-1.4604,-1.4706,-1.4706,-1.4835,-1.4943,-1.497,-1.5072,-1.516,-1.5181,-1.5181,-1.5181,-1.5181,-1.5181,-1.5181,-1.5181,-1.5181,-1.5181,-1.5181,-1.5181,-1.5181,-1.5181,-1.5181,-1.6198,-1.8321,-2.2729,-2.54,-2.6229,-2.8963,-3.0287,-3.0301,-3.0541,-3.0675,-3.0728,-3.0728,-3.0755,-3.0795,-3.0795,-3.0929,-3.1156,-3.1156,-3.1303,-3.1543,-3.1583,-3.1597,-3.161,-3.165,-3.1664,-3.1664,-3.1664,-3.1664,-3.1664,-3.1664,-3.1664,-3.1664,-3.1664,-3.1664,-3.1664,-3.1664,-3.1664,-3.1664,-3.1664,-3.1664,-3.1664,-3.1664,-3.1664,-3.1664,-3.1664,-3.1664,-3.1664,-3.1664,-3.1664,-3.1664,-3.1664,-3.1664,-3.1664,-3.1664,-3.1664,-3.1664,-3.1664,-3.1664,-3.1664,-3.1664,-3.1664,-3.1664,-3.1664,-3.1664,-3.1664,-3.1664,-3.1664,-3.1664,-3.1664,-3.1664,-3.1664,-3.1664,-3.1664,-3.1664,-3.1664,-3.1664,-3.1664,-3.1664,-3.1664,-3.1664,-3.1664,-3.1664,-3.1664,-3.1664,-3.1664,-3.1664,-3.1664,-3.1664,-3.1664,-3.1664,-3.1664,-3.1664,-3.1664,-1.4631,-1.476,-1.4862,-1.4862,-1.4984,-1.5086,-1.5086,-1.514,-1.5181,-1.5181,-1.5181,-1.5181,-1.5181,-1.5181,-1.5181,-1.5181,-1.5181,-1.5181,-1.5181,-1.5181,-1.5181,-1.5181,-1.6471,-1.9006,-2.3005,-2.533,-2.7153,-2.8698,-2.9965,-3.0595,-3.0595,-3.0728,-3.0875,-3.1022,-3.1022,-3.1116,-3.1263,-3.1263,-3.1343,-3.1463,-3.1463,-3.1543,-3.1664,-3.1664,-3.1664,-3.1664,-3.1664,-3.1664,-3.1664,-3.1664,-3.1664,-3.1664,-3.1664,-3.1664,-3.1664,-3.1664,-3.1664,-3.1664,-3.1664,-3.1664,-3.1664,-3.1664,-3.1664,-3.1664,-3.1664,-3.1664,-3.1664,-3.1664,-3.1664,-3.1664,-3.1664,-3.1664,-3.1664,-3.1664,-3.1664,-3.1664,-3.1664,-3.1664,-3.1664,-3.1664,-3.1664,-3.1664,-3.1664,-3.1664,-3.1664,-3.1664,-3.1664,-3.1664,-3.1664,-3.1664,-3.1664,-3.1664,-3.1664,-3.1664,-3.1664,-3.1664,-3.1664,-3.1664,-3.1664,-3.1664,-3.1664,-3.1664,-3.1664,-3.1664,-3.1664,-3.1664,-3.1664,-3.1664,-3.1664,-3.1664,-3.1664,-3.1664,-3.1664,-3.1664,-3.1664,-3.1664,-1.4794,-1.4916,-1.5018,-1.5018,-1.5113,-1.5181,-1.5181,-1.5181,-1.5181,-1.5181,-1.5181,-1.5181,-1.5181,-1.5181,-1.5181,-1.5181,-1.5737,-1.6011,-1.6011,-1.6572,-1.6658,-1.6104,-1.9006,-2.2635,-2.6699,-2.7357,-2.8678,-3.0795,-3.0862,-3.0889,-3.0889,-3.0969,-3.1116,-3.133,-3.133,-3.145,-3.1664,-3.1664,-3.1664,-3.1664,-3.1664,-3.1664,-3.1664,-3.1664,-3.1664,-3.1664,-3.1664,-3.1664,-3.1664,-3.1664,-3.1664,-3.1664,-3.1664,-3.1664,-3.1664,-3.1664,-3.1664,-3.1664,-3.1664,-3.1664,-3.1664,-3.1664,-3.1664,-3.1664,-3.1664,-3.1664,-3.1664,-3.1664,-3.1664,-3.1664,-3.1664,-3.1664,-3.1664,-3.1664,-3.1664,-3.1664,-3.1664,-3.1664,-3.1664,-3.1664,-3.1664,-3.1664,-3.1664,-3.1664,-3.1664,-3.1664,-3.1664,-3.1664,-3.1664,-3.1664,-3.1664,-3.1664,-3.1664,-3.1664,-3.1664,-3.1664,-3.1664,-3.1664,-3.1664,-3.1664,-3.1664,-3.1664,-3.1664,-3.1664,-3.1664,-3.1664,-3.1664,-3.1664,-3.1664,-3.1664,-3.1664,-3.1664,-3.1664,-3.1664,-3.1664,-3.1664,-1.495,-1.5072,-1.5167,-1.5167,-1.5174,-1.5181,-1.5181,-1.5181,-1.5181,-1.5181,-1.5181,-1.5181,-1.5181,-1.5181,-1.5181,-1.5181,-1.7305,-1.8592,-1.8592,-2.0714,-2.0991,-1.8685,-2.3395,-2.6422,-2.7063,-2.933,-3.0584,-3.0795,-3.1062,-3.1196,-3.1196,-3.1476,-3.161,-3.1637,-3.1637,-3.165,-3.1664,-3.1664,-3.1664,-3.1664,-3.1664,-3.1664,-3.1664,-3.1664,-3.1664,-3.1664,-3.1664,-3.1664,-3.1664,-3.1664,-3.1664,-3.1664,-3.1664,-3.1664,-3.1664,-3.1664,-3.1664,-3.1664,-3.1664,-3.1664,-3.1664,-3.1664,-3.1664,-3.1664,-3.1664,-3.1664,-3.1664,-3.1664,-3.1664,-3.1664,-3.1664,-3.1664,-3.1664,-3.1664,-3.1664,-3.1664,-3.1664,-3.1664,-3.1664,-3.1664,-3.1664,-3.1664,-3.1664,-3.1664,-3.1664,-3.1664,-3.1664,-3.1664,-3.1664,-3.1664,-3.1664,-3.1664,-3.1664,-3.1664,-3.1664,-3.1664,-3.1664,-3.1664,-3.1664,-3.1664,-3.1664,-3.1664,-3.1664,-3.1664,-3.1664,-3.1664,-3.1664,-3.1664,-3.1664,-3.1664,-3.1664,-3.1664,-3.1664,-3.1664,-3.1664,-3.1664,-1.5099,-1.5147,-1.5181,-1.5181,-1.5181,-1.5181,-1.5181,-1.5181,-1.5737,-1.7305,-1.7491,-1.7491,-1.7491,-1.8879,-1.9149,-1.7678,-1.9798,-2.1232,-2.1449,-2.3775,-2.4708,-2.3775,-2.5774,-2.782,-2.9624,-3.0583,-3.1156,-3.1343,-3.145,-3.1503,-3.1503,-3.1623,-3.1664,-3.1664,-3.1664,-3.1664,-3.1664,-3.1664,-3.1664,-3.1664,-3.1664,-3.1664,-3.1664,-3.1664,-3.1664,-3.1664,-3.1664,-3.1664,-3.1664,-3.1664,-3.1664,-3.1664,-3.1664,-3.1664,-3.1664,-3.1664,-3.1664,-3.1664,-3.1664,-3.1664,-3.1664,-3.1664,-3.1664,-3.1664,-3.1664,-3.1664,-3.1664,-3.1664,-3.1664,-3.1664,-3.1664,-3.1664,-3.1664,-3.1664,-3.1664,-3.1664,-3.1664,-3.1664,-3.1664,-3.1664,-3.1664,-3.1664,-3.1664,-3.1664,-3.1664,-3.1664,-3.1664,-3.1664,-3.1664,-3.1664,-3.1664,-3.1664,-3.1664,-3.1664,-3.1664,-3.1664,-3.1664,-3.1664,-3.1664,-3.1664,-3.1664,-3.1664,-3.1664,-3.1664,-3.1664,-3.1664,-3.1664,-3.1664,-3.1664,-3.1664,-3.1664,-3.1664,-3.1664,-3.1664,-3.1664,-3.1664,-1.5181,-1.5181,-1.5181,-1.5181,-1.583,-1.6385,-1.6385,-1.7032,-1.8135,-1.9789,-2.0067,-2.0067,-2.0067,-2.1544,-2.182,-2.0159,-2.2432,-2.3939,-2.418,-2.6677,-2.8082,-2.8082,-2.8253,-2.9343,-3.1262,-3.137,-3.1463,-3.1664,-3.1664,-3.1664,-3.1664,-3.1664,-3.1664,-3.1664,-3.1664,-3.1664,-3.1664,-3.1664,-3.1664,-3.1664,-3.1664,-3.1664,-3.1664,-3.1664,-3.1664,-3.1664,-3.1664,-3.1664,-3.1664,-3.1664,-3.1664,-3.1664,-3.1664,-3.1664,-3.1664,-3.1664,-3.1664,-3.1664,-3.1664,-3.1664,-3.1664,-3.1664,-3.1664,-3.1664,-3.1664,-3.1664,-3.1664,-3.1664,-3.1664,-3.1664,-3.1664,-3.1664,-3.1664,-3.1664,-3.1664,-3.1664,-3.1664,-3.1664,-3.1664,-3.1664,-3.1664,-3.1664,-3.1664,-3.1664,-3.1664,-3.1664,-3.1664,-3.1664,-3.1664,-3.1664,-3.1664,-3.1664,-3.1664,-3.1664,-3.1664,-3.1664,-3.1664,-3.1664,-3.1664,-3.1664,-3.1664,-3.1664,-3.1664,-3.1664,-3.1664,-3.1664,-3.1664,-3.1664,-3.1664,-3.1664,-3.1664,-3.1664,-3.1664,-3.1664,-3.1664,-3.1664,-1.5181,-1.5181,-1.5275,-1.5275,-1.7305,-1.8964,-1.8964,-2.0991,-2.2464,-2.2556,-2.2556,-2.2556,-2.2658,-2.2566,-2.2556,-2.2556,-2.5076,-2.6709,-2.6721,-2.9576,-3.1223,-3.1223,-3.1223,-3.137,-3.1664,-3.1664,-3.1664,-3.1664,-3.1664,-3.1664,-3.1664,-3.1664,-3.1664,-3.1664,-3.1664,-3.1664,-3.1664,-3.1664,-3.1664,-3.1664,-3.1664,-3.1664,-3.1664,-3.1664,-3.1664,-3.1664,-3.1664,-3.1664,-3.1664,-3.1664,-3.1664,-3.1664,-3.1664,-3.1664,-3.1664,-3.1664,-3.1664,-3.1664,-3.1664,-3.1664,-3.1664,-3.1664,-3.1664,-3.1664,-3.1664,-3.1664,-3.1664,-3.1664,-3.1664,-3.1664,-3.1664,-3.1664,-3.1664,-3.1664,-3.1664,-3.1664,-3.1664,-3.1664,-3.1664,-3.1664,-3.1664,-3.1664,-3.1664,-3.1664,-3.1664,-3.1664,-3.1664,-3.1664,-3.1664,-3.1664,-3.1664,-3.1664,-3.1664,-3.1664,-3.1664,-3.1664,-3.1664,-3.1664,-3.1664,-3.1664,-3.1664,-3.1664,-3.1664,-3.1664,-3.1664,-3.1664,-3.1664,-3.1664,-3.1664,-3.1664,-3.1664,-3.1664,-3.1664,-3.1664,-3.1664,-3.1664,-1.5181,-1.6565,-1.7763,-1.7763,-1.9789,-2.1452,-2.1452,-2.2004,-2.3106,-2.4854,-2.5127,-2.5127,-2.5127,-2.6695,-2.713,-2.5559,-2.7787,-2.9493,-2.9801,-3.094,-3.153,-3.153,-3.153,-3.1583,-3.1664,-3.1664,-3.1664,-3.1664,-3.1664,-3.1664,-3.1664,-3.1664,-3.1664,-3.1664,-3.1664,-3.1664,-3.1664,-3.1664,-3.1664,-3.1664,-3.1664,-3.1664,-3.1664,-3.1664,-3.1664,-3.1664,-3.1664,-3.1664,-3.1664,-3.1664,-3.1664,-3.1664,-3.1664,-3.1664,-3.1664,-3.1664,-3.1664,-3.1664,-3.1664,-3.1664,-3.1664,-3.1664,-3.1664,-3.1664,-3.1664,-3.1664,-3.1664,-3.1664,-3.1664,-3.1664,-3.1664,-3.1664,-3.1664,-3.1664,-3.1664,-3.1664,-3.1664,-3.1664,-3.1664,-3.1664,-3.1664,-3.1664,-3.1664,-3.1664,-3.1664,-3.1664,-3.1664,-3.1664,-3.1664,-3.1664,-3.1664,-3.1664,-3.1664,-3.1664,-3.1664,-3.1664,-3.1664,-3.1664,-3.1664,-3.1664,-3.1664,-3.1664,-3.1664,-3.1664,-3.1664,-3.1664,-3.1664,-3.1664,-3.1664,-3.1664,-3.1664,-3.1664,-3.1664,-3.1664,-3.1664,-3.1474,-1.6658,-1.8693,-2.0344,-2.0344,-2.2372,-2.393,-2.393,-2.4763,-2.5957,-2.7431,-2.7702,-2.7702,-2.7702,-2.8989,-2.939,-2.8269,-2.9716,-3.0902,-3.137,-3.157,-3.1664,-3.1664,-3.1664,-3.1664,-3.1664,-3.1664,-3.1664,-3.1664,-3.1664,-3.1664,-3.1664,-3.1664,-3.1664,-3.1664,-3.1664,-3.1664,-3.1664,-3.1664,-3.1664,-3.1664,-3.1664,-3.1664,-3.1664,-3.1664,-3.1664,-3.1664,-3.1664,-3.1664,-3.1664,-3.1664,-3.1664,-3.1664,-3.1664,-3.1664,-3.1664,-3.1664,-3.1664,-3.1664,-3.1664,-3.1664,-3.1664,-3.1664,-3.1664,-3.1664,-3.1664,-3.1664,-3.1664,-3.1664,-3.1664,-3.1664,-3.1664,-3.1664,-3.1664,-3.1664,-3.1664,-3.1664,-3.1664,-3.1664,-3.1664,-3.1664,-3.1664,-3.1664,-3.1664,-3.1664,-3.1664,-3.1664,-3.1664,-3.1664,-3.1664,-3.1664,-3.1664,-3.1664,-3.1664,-3.1664,-3.1664,-3.1664,-3.1664,-3.1664,-3.1664,-3.1664,-3.1664,-3.1664,-3.1664,-3.1664,-3.1664,-3.1664,-3.1664,-3.1664,-3.1664,-3.1664,-3.1664,-3.1664,-3.1664,-3.1664,-3.108,-2.9911,-1.8871,-2.1083,-2.2933,-2.2831,-2.4854,-2.6502,-2.6502,-2.8436,-2.9913,-2.9913,-2.9913,-2.9913,-2.9913,-2.994,-3.0074,-3.0381,-3.0929,-3.1383,-3.165,-3.1664,-3.1664,-3.1664,-3.1664,-3.1664,-3.1664,-3.1664,-3.1664,-3.1664,-3.1664,-3.1664,-3.1664,-3.1664,-3.1664,-3.1664,-3.1664,-3.1664,-3.1664,-3.1664,-3.1664,-3.1664,-3.1664,-3.1664,-3.1664,-3.1664,-3.1664,-3.1664,-3.1664,-3.1664,-3.1664,-3.1664,-3.1664,-3.1664,-3.1664,-3.1664,-3.1664,-3.1664,-3.1664,-3.1664,-3.1664,-3.1664,-3.1664,-3.1664,-3.1664,-3.1664,-3.1664,-3.1664,-3.1664,-3.1664,-3.1664,-3.1664,-3.1664,-3.1664,-3.1664,-3.1664,-3.1664,-3.1664,-3.1664,-3.1664,-3.1664,-3.1664,-3.1664,-3.1664,-3.1664,-3.1664,-3.1664,-3.1664,-3.1664,-3.1664,-3.1664,-3.1664,-3.1664,-3.1664,-3.1664,-3.1664,-3.1664,-3.1664,-3.1664,-3.1664,-3.1664,-3.1664,-3.1664,-3.1664,-3.1664,-3.1664,-3.1664,-3.1664,-3.1664,-3.1664,-3.1664,-3.1664,-3.1664,-3.1664,-3.1664,-3.1474,-2.9816,-2.7684,-1.8871,-2.2454,-2.5412,-2.54,-2.7431,-2.9092,-2.9092,-2.9541,-2.9913,-2.9913,-2.9913,-2.9913,-2.9913,-3.0127,-3.0381,-3.0675,-3.1236,-3.1597,-3.1664,-3.1664,-3.1664,-3.1664,-3.1664,-3.1664,-3.1664,-3.1664,-3.1664,-3.1664,-3.1664,-3.1664,-3.1664,-3.1664,-3.1664,-3.1664,-3.1664,-3.1664,-3.1664,-3.1664,-3.1664,-3.1664,-3.1664,-3.1664,-3.1664,-3.1664,-3.1664,-3.1664,-3.1664,-3.1664,-3.1664,-3.1664,-3.1664,-3.1664,-3.1664,-3.1664,-3.1664,-3.1664,-3.1664,-3.1664,-3.1664,-3.1664,-3.1664,-3.1664,-3.1664,-3.1664,-3.1664,-3.1664,-3.1664,-3.1664,-3.1664,-3.1664,-3.1664,-3.1664,-3.1664,-3.1664,-3.1664,-3.1664,-3.1664,-3.1664,-3.1664,-3.1664,-3.1664,-3.1664,-3.1664,-3.1664,-3.1664,-3.1664,-3.1664,-3.1664,-3.1664,-3.1664,-3.1664,-3.1664,-3.1664,-3.1664,-3.1664,-3.1664,-3.1664,-3.1664,-3.1664,-3.1664,-3.1664,-3.1664,-3.1664,-3.1664,-3.1664,-3.1664,-3.1664,-3.1664,-3.1664,-3.1664,-3.1664,-3.1664,-3.1474,-2.9434,-2.826,-2.7191,-2.2178,-2.54,-2.7973,-2.7973,-2.9079,-2.9913,-2.9913,-2.9913,-2.9913,-2.9913,-2.9913,-2.9967,-3.0114,-3.0261,-3.0528,-3.0969,-3.141,-3.1664,-3.1664,-3.1664,-3.1664,-3.1664,-3.1664,-3.1664,-3.1664,-3.1664,-3.1664,-3.1664,-3.1664,-3.1664,-3.1664,-3.1664,-3.1664,-3.1664,-3.1664,-3.1664,-3.1664,-3.1664,-3.1664,-3.1664,-3.1664,-3.1664,-3.1664,-3.1664,-3.1664,-3.1664,-3.1664,-3.1664,-3.1664,-3.1664,-3.1664,-3.1664,-3.1664,-3.1664,-3.1664,-3.1664,-3.1664,-3.1664,-3.1664,-3.1664,-3.1664,-3.1664,-3.1664,-3.1664,-3.1664,-3.1664,-3.1664,-3.1664,-3.1664,-3.1664,-3.1664,-3.1664,-3.1664,-3.1664,-3.1664,-3.1664,-3.1664,-3.1664,-3.1664,-3.1664,-3.1664,-3.1664,-3.1664,-3.1664,-3.1664,-3.1664,-3.1664,-3.1664,-3.1664,-3.1664,-3.1664,-3.1664,-3.1664,-3.1664,-3.1664,-3.1664,-3.1664,-3.1664,-3.1664,-3.1664,-3.1664,-3.1664,-3.1664,-3.1664,-3.1664,-3.1664,-3.1664,-3.1664,-3.1664,-3.1569,-3.0306,-2.9816,-2.9529,-2.6902,-2.5141,-2.3491,-2.5775,-2.8166,-2.9913,-2.9913,-2.9913,-2.9913,-2.9913,-2.9913,-2.9913,-2.9913,-2.9967,-3.0087,-3.0341,-3.0448,-3.0715,-3.1249,-3.153,-3.1664,-3.1664,-3.1664,-3.1664,-3.1664,-3.1664,-3.1664,-3.1664,-3.1664,-3.1664,-3.1664,-3.1664,-3.1664,-3.1664,-3.1664,-3.1664,-3.1664,-3.1664,-3.1664,-3.1664,-3.1664,-3.1664,-3.1664,-3.1664,-3.1664,-3.1664,-3.1664,-3.1664,-3.1664,-3.1664,-3.1664,-3.1664,-3.1664,-3.1664,-3.1664,-3.1664,-3.1664,-3.1664,-3.1664,-3.1664,-3.1664,-3.1664,-3.1664,-3.1664,-3.1664,-3.1664,-3.1664,-3.1664,-3.1664,-3.1664,-3.1664,-3.1664,-3.1664,-3.1664,-3.1664,-3.1664,-3.1664,-3.1664,-3.1664,-3.1664,-3.1664,-3.1664,-3.1664,-3.1664,-3.1664,-3.1664,-3.1664,-3.1664,-3.1664,-3.1664,-3.1664,-3.1664,-3.1664,-3.1664,-3.1664,-3.1664,-3.1664,-3.1664,-3.1664,-3.1664,-3.1664,-3.1664,-3.1664,-3.1664,-3.1664,-3.1664,-3.1664,-3.1664,-3.1664,-3.1664,-3.1664,-3.1664,-3.1474,-2.8847,-2.778,-2.7395,-2.4366,-2.1539,-1.9002,-2.6139,-2.8166,-2.9913,-2.9913,-2.9913,-2.9913,-2.9913,-2.9913,-2.9913,-2.9913,-3.014,-3.0314,-3.0354,-3.0808,-3.1249,-3.1583,-3.165,-3.1664,-3.1664,-3.1664,-3.1664,-3.1664,-3.1664,-3.1664,-3.1664,-3.1664,-3.1664,-3.1664,-3.1664,-3.1664,-3.1664,-3.1664,-3.1664,-3.1664,-3.1664,-3.1664,-3.1664,-3.1664,-3.1664,-3.1664,-3.1664,-3.1664,-3.1664,-3.1664,-3.1664,-3.1664,-3.1664,-3.1664,-3.1664,-3.1664,-3.1664,-3.1664,-3.1664,-3.1664,-3.1664,-3.1664,-3.1664,-3.1664,-3.1664,-3.1664,-3.1664,-3.1664,-3.1664,-3.1664,-3.1664,-3.1664,-3.1664,-3.1664,-3.1664,-3.1664,-3.1664,-3.1664,-3.1664,-3.1664,-3.1664,-3.1664,-3.1664,-3.1664,-3.1664,-3.1664,-3.1664,-3.1664,-3.1664,-3.1664,-3.1664,-3.1664,-3.1664,-3.1664,-3.1664,-3.1664,-3.1664,-3.1664,-3.1664,-3.1664,-3.1664,-3.1664,-3.1664,-3.1664,-3.1664,-3.1664,-3.1664,-3.1664,-3.1664,-3.1664,-3.1664,-3.1664,-3.1664,-3.1664,-3.1664,-3.1474,-2.8847,-2.778,-2.7191,-2.2312,-1.8912,-1.6573,-2.7973,-2.9182,-2.9913,-2.9913,-2.9913,-2.9913,-2.9913,-2.9913,-2.998,-3.014,-3.0274,-3.0488,-3.0808,-3.1223,-3.153,-3.1664,-3.1664,-3.1664,-3.1664,-3.1664,-3.1664,-3.1664,-3.1664,-3.1664,-3.1664,-3.1664,-3.1664,-3.1664,-3.1664,-3.1664,-3.1664,-3.1664,-3.1664,-3.1664,-3.1664,-3.1664,-3.1664,-3.1664,-3.1664,-3.1664,-3.1664,-3.1664,-3.1664,-3.1664,-3.1664,-3.1664,-3.1664,-3.1664,-3.1664,-3.1664,-3.1664,-3.1664,-3.1664,-3.1664,-3.1664,-3.1664,-3.1664,-3.1664,-3.1664,-3.1664,-3.1664,-3.1664,-3.1664,-3.1664,-3.1664,-3.1664,-3.1664,-3.1664,-3.1664,-3.1664,-3.1664,-3.1664,-3.1664,-3.1664,-3.1664,-3.1664,-3.1664,-3.1664,-3.1664,-3.1664,-3.1664,-3.1664,-3.1664,-3.1664,-3.1664,-3.1664,-3.1664,-3.1664,-3.1664,-3.1664,-3.1664,-3.1664,-3.1664,-3.1664,-3.1664,-3.1664,-3.1664,-3.1664,-3.1664,-3.1664,-3.1664,-3.1664,-3.1664,-3.1664,-3.1664,-3.1664,-3.1664,-3.1664,-3.089,-2.923,-2.6602,-2.388,-2.096,-1.8722,-1.7055,-1.6083]},{"header":{"parameterUnit":"m.s-1","parameterCategory":1,"la1":30.6,"la2":28.766,"lo1":-90.7593,"lo2":-88.6598,"dy":0.0162,"dx":0.0183,"nx":116,"ny":114,"refTime":"2023-10-07T06:00:00:Z","depth":0,"parameterNumber":3,"parameterNumberName":"V-component_of_WINDS"},"data":[0.0,0.0,0.0,0.0,0.0,0.0,0.0,0.0,0.0,0.0,0.0,0.0,0.0,0.0,0.0,0.0,0.0,0.0,0.0,0.0,0.0,0.0,0.0,0.0,0.0,0.0,0.0,0.0,0.0,0.0,0.0,0.0,0.0,0.0,0.0,0.0,0.0,0.0,0.0,0.0,0.0,0.0,0.0,0.0,0.0,0.0,0.0,0.0,0.0,0.0,0.0,0.0,0.0,0.0,0.0,0.0,0.0,0.0,0.0,0.0,0.0,0.0,0.0,0.0,0.0,0.0,0.0,0.0,0.0,0.0,0.0,0.0,0.0,0.0,0.0,0.0,0.0,0.0,0.0,0.0,0.0,0.0,0.0,0.0,0.0,0.0,0.0,0.0,0.0,0.0,0.0,0.0,0.0,0.0,0.0,0.0,0.0,0.0,0.0,0.0,0.0,0.0,0.0,0.0,0.0,0.0,0.0,0.0,0.0,0.0,0.0,0.0,0.0,0.0,0.0,0.0,0.0,0.0,0.0,0.0,0.0,0.0,0.0,0.0,0.0,0.0,0.0,0.0,0.0,0.0,0.0,0.0,0.0,0.0,0.0,0.0,0.0,0.0,0.0,0.0,0.0,0.0,0.0,0.0,0.0,0.0,0.0,0.0,0.0,0.0,0.0,0.0,0.0,0.0,0.0,0.0,0.0,0.0,0.0,0.0,0.0,0.0,0.0,0.0,0.0,0.0,0.0,0.0,0.0,0.0,0.0,0.0,0.0,0.0,0.0,0.0,0.0,0.0,0.0,0.0,0.0,0.0,0.0,0.0,0.0,0.0,0.0,0.0,0.0,0.0,0.0,0.0,0.0,0.0,0.0,0.0,0.0,0.0,0.0,0.0,0.0,0.0,0.0,0.0,0.0,0.0,0.0,0.0,0.0,0.0,0.0,0.0,0.0,0.0,0.0,0.0,0.0,0.0,0.0,0.0,0.0,0.0,0.0,0.0,0.0,0.0,0.0,0.0,0.0,0.0,0.0,0.0,0.0,0.0,0.0,0.0,0.0,0.0,0.0,0.0,0.0,0.0,0.0,0.0,0.0,0.0,0.0,0.0,0.0,0.0,0.0,0.0,0.0,0.0,0.0,0.0,0.0,0.0,0.0,0.0,0.0,0.0,0.0,0.0,0.0,0.0,0.0,0.0,0.0,0.0,0.0,0.0,0.0,0.0,0.0,0.0,0.0,0.0,0.0,0.0,0.0,0.0,0.0,0.0,0.0,0.0,0.0,0.0,0.0,0.0,0.0,0.0,0.0,0.0,0.0,0.0,0.0,0.0,0.0,0.0,0.0,0.0,0.0,0.0,0.0,0.0,0.0,0.0,0.0,0.0,0.0,0.0,0.0,0.0,0.0,0.0,0.0,0.0,0.0,0.0,0.0,0.0,0.0,0.0,0.0,0.0,0.0,0.0,0.0,0.0,0.0,0.0,0.0,0.0,0.0,0.0,0.0,0.0,0.0,0.0,0.0,0.0,0.0,0.0,0.0,0.0,0.0,0.0,0.0,0.0,0.0,0.0,0.0,0.0,0.0,0.0,0.0,0.0,0.0,0.0,0.0,0.0,0.0,0.0,0.0,0.0,0.0,0.0,0.0,0.0,0.0,0.0,0.0,0.0,0.0,0.0,0.0,0.0,0.0,0.0,0.0,0.0,0.0,0.0,0.0,0.0,0.0,0.0,0.0,0.0,0.0,0.0,0.0,0.0,0.0,0.0,0.0,0.0,0.0,0.0,0.0,0.0,0.0,0.0,0.0,0.0,0.0,0.0,0.0,0.0,0.0,0.0,0.0,0.0,0.0,0.0,0.0,0.0,0.0,0.0,0.0,0.0,0.0,0.0,0.0,0.0,0.0,0.0,0.0,0.0,0.0,0.0,0.0,0.0,0.0,0.0,0.0,0.0,0.0,0.0,0.0,0.0,0.0,0.0,0.0,0.0,0.0,0.0,0.0,0.0,0.0,0.0,0.0,0.0,0.0,0.0,0.0,0.0,0.0,0.0,0.0,0.0,0.0,0.0,0.0,0.0,0.0,0.0,0.0,0.0,0.0,0.0,0.0,0.0,0.0,0.0,0.0,0.0,0.0,0.0,0.0,0.0,0.0,0.0,0.0,0.0,0.0,0.0,0.0,0.0,0.0,0.0,0.0,0.0,0.0,0.0,0.0,0.0,0.0,0.0,0.0,0.0,0.0,0.0,0.0,0.0,0.0,0.0,0.0,0.0,0.0,0.0,0.0,0.0,0.0,0.0,0.0,0.0,0.0,0.0,0.0,0.0,0.0,0.0,0.0,0.0,0.0,0.0,0.0,0.0,0.0,0.0,0.0,0.0,0.0,0.0,0.0,0.0,0.0,0.0,0.0,0.0,0.0,0.0,0.0,0.0,0.0,0.0,0.0,0.0,0.0,0.0,0.0,0.0,0.0,0.0,0.0,0.0,0.0,0.0,0.0,0.0,0.0,0.0,0.0,0.0,0.0,0.0,0.0,0.0,0.0,0.0,0.0,0.0,0.0,0.0,0.0,0.0,0.0,0.0,0.0,0.0,0.0,0.0,0.0,0.0,0.0,0.0,0.0,0.0,0.0,0.0,0.0,0.0,0.0,0.0,0.0,0.0,0.0,0.0,0.0,0.0,0.0,0.0,0.0,0.0,0.0,0.0,0.0,0.0,0.0,0.0,0.0,0.0,0.0,0.0,0.0,0.0,0.0,0.0,0.0,0.0,0.0,0.0,0.0,0.0,0.0,0.0,0.0,0.0,0.0,0.0,0.0,0.0,0.0,0.0,0.0,0.0,0.0,0.0,0.0,0.0,0.0,0.0,0.0,0.0,0.0,0.0,0.0,0.0,0.0,0.0,0.0,0.0,0.0,0.0,0.0,0.0,0.0,0.0,0.0,0.0,0.0,0.0,0.0,0.0,0.0,0.0,0.0,0.0,0.0,0.0,0.0,0.0,0.0,0.0,0.0,0.0,0.0,0.0,0.0,0.0,0.0,0.0,0.0,0.0,0.0,0.0,0.0,0.0,0.0,0.0,0.0,0.0,0.0,0.0,0.0,0.0,0.0,0.0,0.0,0.0,0.0,0.0,0.0,0.0,0.0,0.0,0.0,0.0,0.0,0.0,0.0,0.0,0.0,0.0,0.0,0.0,0.0,0.0,0.0,0.0,0.0,0.0,0.0,0.0,0.0,0.0,0.0,0.0,0.0,0.0,0.0,0.0,0.0,0.0,0.0,0.0,0.0,0.0,0.0,0.0,0.0,0.0,0.0,0.0,0.0,0.0,0.0,0.0,0.0,0.0,0.0,0.0,0.0,0.0,0.0,0.0,0.0,0.0,0.0,0.0,0.0,0.0,0.0,0.0,0.0,0.0,0.0,0.0,0.0,0.0,0.0,0.0,0.0,0.0,0.0,0.0,0.0,0.0,0.0,0.0,0.0,0.0,0.0,0.0,0.0,0.0,0.0,0.0,0.0,0.0,0.0,0.0,0.0,0.0,0.0,0.0,0.0,0.0,0.0,0.0,0.0,0.0,0.0,0.0,0.0,0.0,0.0,0.0,0.0,0.0,0.0,0.0,0.0,0.0,0.0,0.0,0.0,0.0,0.0,0.0,0.0,0.0,0.0,0.0,0.0,0.0,0.0,0.0,0.0,0.0,0.0,0.0,0.0,0.0,0.0,0.0,0.0,0.0,0.0,0.0,0.0,0.0,0.0,0.0,0.0,0.0,0.0,0.0,0.0,0.0,0.0,0.0,0.0,0.0,0.0,0.0,0.0,0.0,0.0,0.0,0.0,0.0,0.0,0.0,0.0,0.0,0.0,0.0,0.0,0.0,0.0,0.0,0.0,0.0,0.0,0.0,0.0,0.0,0.0,0.0,0.0,0.0,0.0,0.0,0.0,0.0,0.0,0.0,0.0,0.0,0.0,0.0,0.0,0.0,0.0,0.0,0.0,0.0,0.0,0.0,0.0,0.0,0.0,0.0,0.0,0.0,0.0,0.0,0.0,0.0,0.0,0.0,0.0,0.0,0.0,0.0,0.0,0.0,0.0,0.0,0.0,0.0,0.0,0.0,0.0,0.0,0.0,0.0,0.0,0.0,0.0,0.0,0.0,0.0,0.0,0.0,0.0,0.0,0.0,0.0,0.0,0.0,0.0,0.0,0.0,0.0,0.0,0.0,0.0,0.0,0.0,0.0,0.0,0.0,0.0,0.0,0.0,0.0,0.0,0.0,0.0,0.0,0.0,0.0,0.0,0.0,0.0,0.0,0.0,0.0,0.0,0.0,0.0,0.0,0.0,0.0,0.0,0.0,0.0,0.0,0.0,0.0,0.0,0.0,0.0,0.0,0.0,0.0,0.0,0.0,0.0,0.0,0.0,0.0,0.0,0.0,0.0,0.0,0.0,0.0,0.0,0.0,0.0,0.0,0.0,0.0,0.0,0.0,0.0,0.0,0.0,0.0,0.0,0.0,0.0,0.0,0.0,0.0,0.0,0.0,0.0,0.0,0.0,0.0,0.0,0.0,0.0,0.0,0.0,0.0,0.0,0.0,0.0,0.0,0.0,0.0,0.0,0.0,0.0,0.0,0.0,0.0,0.0,0.0,0.0,0.0,0.0,0.0,0.0,0.0,0.0,0.0,0.0,0.0,0.0,0.0,0.0,0.0,0.0,0.0,0.0,0.0,0.0,0.0,0.0,0.0,0.0,0.0,0.0,0.0,0.0,0.0,0.0,0.0,0.0,0.0,0.0,0.0,0.0,0.0,0.0,0.0,0.0,0.0,0.0,0.0,0.0,0.0,0.0,0.0,0.0,0.0,0.0,0.0,0.0,0.0,0.0,0.0,0.0,0.0,0.0,0.0,0.0,0.0,0.0,0.0,0.0,0.0,0.0,0.0,0.0,0.0,0.0,0.0,0.0,0.0,0.0,0.0,0.0,0.0,0.0,0.0,0.0,0.0,0.0,0.0,0.0,0.0,0.0,0.0,0.0,0.0,0.0,0.0,0.0,0.0,0.0,0.0,0.0,0.0,0.0,0.0,0.0,0.0,0.0,0.0,0.0,0.0,0.0,0.0,0.0,0.0,0.0,0.0,0.0,0.0,0.0,0.0,0.0,0.0,0.0,0.0,0.0,0.0,0.0,0.0,0.0,0.0,0.0,0.0,0.0,0.0,0.0,0.0,0.0,0.0,0.0,0.0,0.0,0.0,0.0,0.0,0.0,0.0,0.0,0.0,0.0,0.0,0.0,0.0,0.0,0.0,0.0,0.0,0.0,0.0,0.0,0.0,0.0,0.0,0.0,0.0,0.0,0.0,0.0,0.0,0.0,0.0,0.0,0.0,0.0,0.0,0.0,0.0,0.0,0.0,0.0,0.0,0.0,0.0,0.0,0.0,0.0,0.0,0.0,0.0,0.0,0.0,0.0,0.0,0.0,0.0,0.0,0.0,0.0,0.0,0.0,0.0,0.0,0.0,0.0,0.0,0.0,0.0,0.0,0.0,0.0,0.0,0.0,0.0,0.0,0.0,0.0,0.0,0.0,0.0,0.0,0.0,0.0,0.0,0.0,0.0,0.0,0.0,0.0,0.0,0.0,0.0,0.0,0.0,0.0,0.0,0.0,0.0,0.0,0.0,0.0,0.0,0.0,0.0,0.0,0.0,0.0,0.0,0.0,0.0,0.0,0.0,0.0,0.0,0.0,0.0,0.0,0.0,0.0,0.0,0.0,0.0,0.0,0.0,0.0,0.0,0.0,0.0,0.0,0.0,0.0,0.0,0.0,0.0,0.0,0.0,0.0,0.0,0.0,0.0,0.0,0.0,0.0,0.0,0.0,0.0,0.0,0.0,0.0,0.0,0.0,0.0,0.0,0.0,0.0,0.0,0.0,0.0,0.0,0.0,0.0,0.0,0.0,0.0,0.0,0.0,0.0,0.0,0.0,0.0,0.0,0.0,0.0,0.0,0.0,0.0,0.0,0.0,0.0,0.0,0.0,0.0,0.0,0.0,0.0,0.0,0.0,0.0,0.0,0.0,0.0,0.0,0.0,0.0,0.0,0.0,0.0,0.0,0.0,0.0,0.0,0.0,6.1012,6.073,0.0,0.0,0.0,0.0,0.0,0.0,0.0,0.0,0.0,0.0,0.0,0.0,0.0,0.0,0.0,0.0,0.0,0.0,0.0,0.0,0.0,0.0,0.0,0.0,0.0,0.0,0.0,0.0,0.0,0.0,0.0,0.0,0.0,0.0,0.0,0.0,0.0,5.7627,5.7627,5.7165,5.6329,5.5895,5.5703,5.5703,0.0,0.0,0.0,0.0,0.0,0.0,0.0,0.0,0.0,0.0,0.0,0.0,0.0,0.0,0.0,0.0,0.0,0.0,0.0,0.0,0.0,0.0,0.0,0.0,0.0,0.0,0.0,0.0,0.0,0.0,0.0,0.0,0.0,0.0,0.0,0.0,0.0,0.0,0.0,0.0,0.0,0.0,0.0,0.0,0.0,0.0,0.0,0.0,0.0,0.0,0.0,0.0,0.0,0.0,0.0,0.0,0.0,0.0,0.0,0.0,0.0,0.0,0.0,0.0,0.0,0.0,0.0,0.0,0.0,0.0,6.2529,6.1929,0.0,0.0,0.0,0.0,0.0,0.0,0.0,0.0,0.0,0.0,0.0,0.0,0.0,0.0,0.0,0.0,0.0,0.0,0.0,0.0,0.0,0.0,0.0,6.0781,6.0781,6.0781,6.0781,6.0781,0.0,0.0,0.0,0.0,0.0,0.0,5.8742,5.8742,5.8665,5.8511,5.8357,5.7934,5.7214,5.6472,5.6165,5.6126,5.5818,0.0,0.0,0.0,0.0,0.0,0.0,0.0,0.0,0.0,0.0,0.0,0.0,0.0,0.0,0.0,0.0,0.0,0.0,0.0,0.0,0.0,0.0,0.0,0.0,0.0,0.0,0.0,0.0,0.0,0.0,0.0,0.0,0.0,0.0,0.0,0.0,0.0,0.0,0.0,0.0,0.0,0.0,0.0,0.0,0.0,0.0,0.0,0.0,0.0,0.0,0.0,0.0,0.0,0.0,0.0,0.0,0.0,0.0,0.0,0.0,0.0,0.0,0.0,6.3578,6.3743,6.3743,6.3743,6.4166,6.4782,6.4205,6.3451,6.2614,6.2909,0.0,0.0,0.0,0.0,0.0,0.0,0.0,0.0,0.0,0.0,0.0,0.0,0.0,0.0,0.0,0.0,0.0,0.0,0.0,0.0,0.0,6.0781,6.0781,6.0781,6.0781,6.0781,6.0781,0.0,0.0,0.0,0.0,0.0,6.0473,6.0473,6.0089,5.9358,5.8627,5.8242,5.8127,5.8011,5.7973,5.7896,5.6395,5.5703,5.5703,0.0,0.0,0.0,0.0,0.0,0.0,0.0,0.0,0.0,0.0,0.0,0.0,0.0,0.0,0.0,0.0,0.0,0.0,0.0,0.0,0.0,0.0,0.0,0.0,0.0,0.0,0.0,0.0,0.0,0.0,0.0,0.0,0.0,0.0,0.0,0.0,0.0,0.0,0.0,0.0,0.0,6.2974,6.2974,0.0,0.0,0.0,0.0,0.0,0.0,0.0,0.0,0.0,0.0,0.0,0.0,0.0,6.3501,6.4231,6.4308,6.4718,6.5449,6.5538,6.5551,6.5551,6.5551,6.5628,6.5743,6.6359,0.0,6.5317,6.4932,0.0,0.0,0.0,0.0,0.0,0.0,0.0,0.0,0.0,0.0,0.0,0.0,0.0,0.0,0.0,0.0,0.0,0.0,0.0,0.0,0.0,6.0781,6.0781,6.0781,6.0781,6.0781,6.0781,6.0781,0.0,0.0,0.0,6.0781,6.0781,6.0781,6.0589,6.0242,5.9396,5.8973,5.8973,5.8511,5.8319,5.828,5.7511,5.6896,5.6406,5.5895,0.0,0.0,0.0,0.0,0.0,0.0,0.0,0.0,0.0,0.0,0.0,0.0,0.0,0.0,0.0,0.0,0.0,0.0,0.0,0.0,0.0,0.0,0.0,0.0,0.0,0.0,0.0,0.0,0.0,0.0,0.0,0.0,0.0,0.0,0.0,0.0,0.0,0.0,0.0,6.3089,6.3308,6.3308,6.3308,6.3308,0.0,0.0,0.0,0.0,0.0,0.0,0.0,0.0,0.0,6.4743,6.5205,6.5628,6.6013,6.6474,6.6936,6.7321,6.7321,6.7321,6.7321,6.7321,6.7321,6.7321,6.7667,6.7628,6.7308,6.703,6.6345,6.5382,0.0,0.0,0.0,0.0,6.4237,6.4237,0.0,0.0,0.0,0.0,0.0,0.0,0.0,0.0,0.0,0.0,0.0,0.0,6.0781,6.0781,6.0781,6.0781,6.0781,6.0781,6.0781,6.0781,6.0781,6.0781,6.0781,6.0781,6.0781,6.0781,6.0781,6.0781,6.0165,5.9819,5.9819,5.9204,5.8934,5.8934,5.8704,5.8127,5.728,5.6626,5.6357,5.6357,0.0,0.0,0.0,0.0,0.0,0.0,0.0,0.0,0.0,0.0,0.0,0.0,0.0,0.0,0.0,0.0,0.0,0.0,0.0,0.0,0.0,0.0,0.0,0.0,0.0,0.0,0.0,0.0,0.0,0.0,0.0,0.0,0.0,0.0,0.0,0.0,0.0,6.382,6.3974,6.3974,6.3974,6.3974,0.0,0.0,0.0,0.0,0.0,0.0,6.6474,6.6551,6.6551,6.6551,6.7321,6.7782,6.7782,6.8629,6.9052,6.9052,6.9052,6.9052,6.9052,6.9052,6.9052,6.9052,6.9283,6.936,6.9308,6.852,6.7466,6.6303,6.652,6.6075,6.5301,6.5301,6.5301,6.5301,0.0,0.0,0.0,0.0,0.0,0.0,0.0,0.0,0.0,0.0,0.0,6.0781,6.0781,6.0781,6.0781,6.0781,6.0781,6.0781,6.0781,6.0781,6.0781,6.0781,6.0781,6.0781,6.0781,6.0781,6.0781,6.0781,6.0742,6.0742,6.0742,6.0704,6.0666,6.0627,5.9819,5.8973,5.8242,5.8204,5.8165,5.8088,5.728,0.0,0.0,0.0,0.0,0.0,0.0,0.0,0.0,0.0,0.0,0.0,0.0,0.0,0.0,0.0,0.0,0.0,0.0,0.0,0.0,0.0,0.0,0.0,0.0,0.0,0.0,0.0,0.0,0.0,0.0,0.0,0.0,0.0,0.0,0.0,0.0,0.0,0.0,6.5782,6.5782,0.0,0.0,0.0,0.0,6.6898,6.6974,6.7359,6.8244,6.8282,6.8282,6.8282,6.9129,6.9552,6.9552,7.036,7.0783,7.0783,7.0783,7.0783,7.0783,7.0783,7.0783,7.0821,7.1629,7.2014,7.1794,6.8839,6.7306,6.6744,6.6223,6.5753,6.5301,6.5301,6.5301,6.5301,0.0,0.0,0.0,0.0,0.0,0.0,0.0,0.0,6.0781,6.0781,6.0781,6.0781,6.0781,6.0781,6.0781,6.0781,6.0781,6.0781,6.0781,6.0781,6.0781,6.0781,6.0781,6.0781,6.0781,6.0781,6.0781,6.0781,6.0781,6.0781,6.0781,6.0781,6.0781,6.0781,6.0473,6.0165,5.9858,5.8781,5.8319,5.828,5.7973,5.7857,0.0,0.0,0.0,0.0,0.0,0.0,0.0,0.0,0.0,0.0,0.0,0.0,0.0,0.0,0.0,0.0,0.0,0.0,0.0,0.0,0.0,0.0,0.0,0.0,0.0,0.0,0.0,0.0,0.0,0.0,0.0,0.0,0.0,0.0,0.0,0.0,0.0,6.659,6.6667,0.0,6.7436,6.7513,6.7628,6.7936,6.7936,6.8321,6.9206,6.9244,6.9475,6.9975,7.086,7.1321,7.1321,7.2168,7.2385,7.1991,7.1991,7.1786,7.1407,7.182,7.1991,7.1991,7.2297,7.245,7.2324,7.0471,6.9842,6.9988,6.9355,6.8839,6.8348,6.7834,6.7614,6.7614,0.0,0.0,0.0,0.0,0.0,0.0,0.0,0.0,6.0781,6.0781,6.0781,6.0781,6.0781,6.0781,6.0781,6.0781,6.0781,6.0781,6.0781,6.0781,6.0781,6.0781,6.0781,6.0781,6.0781,6.0781,6.0935,6.1243,6.1243,6.1358,6.1627,6.1627,6.1512,6.1243,6.1243,6.1089,6.0742,5.9627,5.9127,5.9127,5.8819,5.8704,5.8665,0.0,0.0,0.0,0.0,0.0,0.0,0.0,0.0,0.0,0.0,0.0,0.0,0.0,0.0,0.0,0.0,0.0,0.0,0.0,0.0,0.0,0.0,0.0,0.0,0.0,0.0,0.0,0.0,0.0,0.0,0.0,0.0,0.0,0.0,6.6551,6.6936,6.7475,6.7552,6.7782,6.8346,6.8667,6.8936,6.9206,6.9513,7.0052,7.0937,7.0975,7.1245,7.1745,7.2591,7.3053,7.3053,7.3729,7.3855,7.3433,7.3433,7.3137,7.2612,7.3175,7.3343,7.3175,7.3175,7.3175,7.3117,7.2122,7.1995,7.2245,7.1057,7.0407,7.0036,6.9486,6.9302,6.9302,0.0,0.0,0.0,0.0,0.0,0.0,0.0,6.0781,6.0781,6.0781,6.0781,6.0781,6.0781,6.0781,6.0781,6.0781,6.0781,6.0781,6.0781,6.0781,6.0781,6.0781,6.0781,6.0819,6.0819,6.0819,6.1281,6.2139,6.2139,6.2551,6.3308,6.3308,6.2897,6.2139,6.2139,6.1639,6.0819,6.0819,6.0819,6.0742,5.9896,5.955,5.9473,0.0,0.0,0.0,0.0,0.0,0.0,0.0,0.0,0.0,0.0,0.0,0.0,0.0,0.0,0.0,0.0,0.0,0.0,0.0,0.0,0.0,0.0,0.0,0.0,0.0,0.0,0.0,0.0,0.0,0.0,0.0,0.0,0.0,6.7244,6.7859,6.8398,6.8423,6.8462,6.8513,6.8513,6.9321,7.0129,7.0937,7.1745,7.2629,7.35,7.3538,7.3553,7.363,7.4361,7.4784,7.4822,7.5068,7.5167,7.5149,7.513,7.4827,7.4325,7.4904,7.4865,7.4347,7.4347,7.4347,7.4303,7.3714,7.3441,7.3241,7.1038,7.0183,7.0183,7.0146,7.0146,7.0146,0.0,0.0,0.0,0.0,0.0,0.0,0.0,6.0781,6.0781,6.0781,6.0781,6.0781,6.0781,6.0781,6.0781,6.0781,6.0781,6.0781,6.0781,6.0781,6.0781,6.0781,6.0781,6.1089,6.1716,6.1755,6.2127,6.2974,6.2974,6.3089,6.3308,6.3308,6.3166,6.2974,6.2974,6.2512,6.1755,6.1755,6.1358,6.0781,6.055,6.0435,6.0435,0.0,0.0,0.0,0.0,0.0,0.0,0.0,0.0,0.0,0.0,0.0,0.0,0.0,0.0,0.0,0.0,0.0,0.0,0.0,0.0,0.0,0.0,0.0,0.0,0.0,0.0,0.0,0.0,0.0,0.0,0.0,6.8936,6.9052,6.8167,6.8244,6.8615,6.9283,6.986,7.0475,7.1091,7.1937,7.2552,7.2783,7.3014,7.3514,7.4322,7.4361,7.4938,7.6207,7.6476,7.6861,7.7438,7.7079,7.6693,7.6246,7.5802,7.5284,7.4737,7.5334,7.5531,7.5396,7.5396,7.5396,7.5346,7.4746,7.4474,7.4327,7.2545,7.1835,7.1762,7.1211,7.0991,7.0991,0.0,0.0,0.0,0.0,0.0,0.0,0.0,6.0781,6.0781,6.0781,6.0781,6.0781,6.0781,6.0781,6.0781,6.0781,6.0781,6.0781,6.0781,6.0781,6.0781,6.0781,6.1127,6.1601,6.2101,6.2435,6.3012,6.3858,6.3858,6.4051,6.4397,6.4397,6.4205,6.3858,6.3858,6.3397,6.2589,6.2243,6.1831,6.132,6.0935,6.0781,6.0781,6.0781,6.0781,6.0781,6.0781,6.0781,6.0781,6.0781,0.0,0.0,0.0,0.0,0.0,0.0,0.0,0.0,0.0,0.0,0.0,0.0,0.0,0.0,0.0,0.0,0.0,0.0,0.0,0.0,0.0,0.0,0.0,0.0,6.986,7.0167,7.0014,6.9975,7.0167,7.0706,7.1475,7.2206,7.2706,7.3514,7.4014,7.4014,7.4668,7.5284,7.5745,7.6092,7.6746,7.7746,7.7784,7.79,7.813,7.7532,7.6906,7.6327,7.5968,7.5486,7.4948,7.554,7.5665,7.5403,7.5403,7.5403,7.5375,7.5058,7.4918,7.4771,0.0,0.0,0.0,0.0,7.1798,7.1798,0.0,0.0,0.0,0.0,0.0,0.0,0.0,6.0781,6.0781,6.0781,6.0781,6.0781,6.0781,6.0781,6.0781,6.0781,6.0781,6.0781,6.0781,6.0781,6.0819,6.0935,6.1678,6.2178,6.237,6.3089,6.3858,6.4743,6.4743,6.5128,6.5897,6.5897,6.5474,6.4743,6.4743,6.4282,6.3397,6.2666,6.2255,6.2024,6.1243,6.0896,6.0781,6.0781,6.0781,6.0781,6.0781,6.0781,6.0819,6.0896,0.0,0.0,0.0,0.0,0.0,0.0,0.0,0.0,0.0,0.0,0.0,0.0,0.0,0.0,0.0,0.0,0.0,0.0,0.0,0.0,0.0,0.0,0.0,0.0,7.1052,7.136,7.2206,7.2399,7.2437,7.236,7.3129,7.363,7.363,7.4361,7.4899,7.4976,7.6438,7.7323,7.7438,7.8092,0.0,0.0,0.0,7.8393,7.7912,7.7365,7.6874,7.6345,7.6303,7.5958,7.5469,7.6014,7.5958,7.5469,7.5469,7.5395,7.5322,7.5322,7.5212,7.4955,7.4147,7.3817,7.3744,7.3046,7.2789,7.2789,0.0,0.0,0.0,0.0,0.0,0.0,0.0,6.0781,6.0781,6.0781,6.0781,6.0781,6.0781,6.0781,6.0781,6.0781,6.0781,6.0781,6.0781,6.0781,6.1089,6.1831,6.2024,6.2743,6.4089,6.4282,6.4782,6.5628,6.5628,6.5743,6.5897,6.5897,6.582,6.5628,6.5628,6.5166,6.4359,6.4166,6.332,6.2101,6.1908,6.1435,6.0781,6.0781,6.0781,6.0781,6.0781,6.0781,6.0896,6.1601,6.187,6.1985,6.282,6.3551,0.0,0.0,0.0,0.0,0.0,0.0,0.0,0.0,0.0,0.0,0.0,0.0,0.0,0.0,0.0,0.0,0.0,0.0,0.0,7.1822,7.1937,7.2245,7.3129,7.3822,7.3976,7.3322,7.3976,7.4476,7.4476,7.5245,7.6053,7.6746,7.7092,7.7592,7.8207,7.84,7.859,7.8825,7.9303,7.9657,7.9865,7.975,7.9704,7.9744,7.9254,0.0,7.8846,7.8964,7.8964,7.8846,7.8846,7.8479,7.7892,7.7892,7.7084,7.5799,7.4992,7.4661,7.4661,7.4515,7.4441,7.4441,0.0,0.0,0.0,0.0,0.0,0.0,0.0,6.0781,6.0781,6.0781,6.0781,6.0781,6.0781,6.0781,6.0781,6.0781,6.0781,6.0781,6.0781,6.0781,6.1166,6.2062,6.2474,6.3281,6.4589,6.5013,6.5474,6.5897,6.5897,6.5897,6.5897,6.5897,6.5897,6.5897,6.5897,6.5667,6.5205,6.4782,6.3858,6.2666,6.2255,6.1601,6.0781,6.0781,6.0781,6.0781,6.0781,6.1089,6.1524,6.1947,6.2358,6.2858,6.3705,6.4243,6.4705,0.0,0.0,0.0,0.0,0.0,0.0,0.0,0.0,0.0,0.0,0.0,0.0,0.0,0.0,7.0898,7.0898,0.0,7.1668,7.2129,7.2552,7.3129,7.3976,7.4437,7.4553,7.4168,7.4861,7.5515,7.5976,7.6399,7.7015,7.7823,7.8284,7.8746,7.9131,7.9939,8.0323,8.0125,8.0809,8.0977,8.0566,8.054,8.0458,8.0237,7.9915,7.98,7.98,7.98,7.98,7.98,7.98,7.9543,7.9176,7.9176,7.8699,7.7892,7.7524,7.635,7.4918,7.4918,7.4918,7.4918,0.0,0.0,0.0,0.0,0.0,0.0,0.0,6.0781,6.0781,6.0781,6.0781,6.0781,6.0781,6.0781,6.0781,6.0781,6.0781,6.0781,6.0781,6.0781,6.1166,6.2062,6.2858,6.3705,6.4589,6.5436,6.5897,6.5897,6.5897,6.5897,6.5897,6.5897,6.5897,6.5897,6.5897,6.5897,6.5859,6.5166,6.4243,6.3231,6.2589,6.1704,6.0781,6.0781,6.0781,6.0819,6.0973,6.1512,6.2139,6.2486,6.3012,6.3705,6.4589,6.4859,6.4974,6.5705,6.5897,0.0,0.0,0.0,0.0,0.0,0.0,0.0,0.0,7.0898,7.0898,7.0898,7.1014,7.1168,7.1168,7.186,7.2514,7.2668,7.3283,7.4014,7.4861,7.4938,7.5014,7.5207,7.5822,7.6515,7.7207,7.7438,7.7861,7.8669,7.9554,8.0046,8.0081,8.1541,8.201,8.1208,8.1977,8.1882,8.0774,8.0879,8.074,8.0241,8.0241,8.0241,8.0241,8.0241,8.0241,8.0241,8.0094,8.0021,8.0021,7.9837,7.98,7.98,7.98,7.8185,7.5873,7.5873,7.5873,7.5873,0.0,0.0,0.0,0.0,0.0,0.0,0.0,0.0,6.0781,6.0781,6.0781,6.0781,6.0781,6.0781,6.0781,6.0781,6.0781,6.0781,6.0781,6.0781,6.1166,6.2062,6.2858,6.3705,6.4589,6.5436,6.5897,6.5897,6.5897,6.5897,6.5897,6.5897,6.5897,6.5897,6.5897,6.5897,6.5897,6.5782,6.4782,6.3269,6.3192,6.2204,6.0781,6.0781,6.0781,6.0896,6.1678,6.2024,6.2332,6.382,6.4397,6.4628,6.5474,6.5743,6.5782,6.5859,6.5897,6.6051,6.6782,6.809,6.9321,6.9513,7.0167,7.0783,0.0,7.0898,7.0898,7.0898,7.1514,7.2052,7.2052,7.2783,7.3591,7.4322,7.4514,7.4861,7.5745,7.5861,7.613,7.6899,7.7092,7.7169,7.7284,7.7938,7.8707,7.9592,8.0477,8.0992,8.1118,8.2052,8.1995,8.0827,8.137,8.1488,8.0987,8.1511,8.1823,8.1929,8.1929,8.1929,8.1929,8.1929,8.1929,8.1893,8.1195,8.0865,8.0828,8.0094,7.98,7.98,7.98,7.958,7.925,7.925,7.925,7.925,0.0,0.0,0.0,0.0,0.0,0.0,0.0,0.0,0.0,6.0781,6.0781,6.0781,6.0781,6.0781,6.0781,6.0781,6.0781,6.0781,6.0781,6.0781,6.1166,6.2062,6.2397,6.3243,6.4589,6.4974,6.5397,6.5897,6.5897,6.5897,6.5897,6.5897,6.5897,6.5897,6.5897,6.5897,6.5859,6.5359,6.4436,6.3281,6.2781,6.1858,6.0781,6.0781,6.1089,6.1601,6.1985,6.2397,0.0,6.4205,6.4936,6.5436,6.5782,6.5897,6.5897,6.5897,6.6244,6.6782,6.7628,6.8744,6.9706,6.9706,7.0283,7.0898,7.0898,7.1283,7.1668,7.1668,7.236,7.2976,7.2976,7.363,7.4322,7.4668,7.513,7.5592,7.5938,7.6438,7.6899,7.7246,7.8169,7.8746,7.8746,7.8755,7.9274,8.0558,8.0678,8.0929,8.1467,8.2301,8.2357,8.1438,8.2162,8.2276,8.1672,8.1949,8.2134,8.2186,8.2186,8.2186,8.2186,8.2186,8.2186,8.2186,8.1819,8.1709,8.1672,8.1342,8.1195,8.1195,8.1195,8.1195,8.1085,8.0131,7.98,7.98,0.0,0.0,0.0,0.0,0.0,0.0,0.0,0.0,0.0,0.0,6.0435,6.0435,6.0435,6.0666,6.0781,6.0781,6.0781,6.0781,6.0781,6.0781,6.1089,6.1716,6.1985,6.2678,6.3897,6.4128,6.4551,6.5166,6.5166,6.5166,6.5166,6.5166,6.5166,6.5166,6.5166,6.5166,6.5128,6.4512,6.3743,6.2935,6.232,6.1601,6.0781,6.0781,6.1331,6.2139,6.2358,6.2974,6.3782,6.4666,6.5397,6.5897,6.5897,6.5897,6.5897,6.5897,6.6628,6.7667,6.8513,6.9398,7.0014,7.0014,7.0508,7.0997,7.0997,7.1688,7.2317,7.2317,7.3135,7.3808,7.3808,7.4388,7.4812,7.4812,7.5541,7.6117,7.6117,7.6846,7.7461,7.7729,7.865,7.9445,7.9904,7.9871,8.0163,8.0988,8.1246,8.1458,8.1671,8.2523,8.2698,8.1986,8.2609,8.2708,8.2186,8.2406,8.2517,8.2517,8.2774,8.2847,8.2847,8.2847,8.2847,8.2847,8.2847,8.2847,8.2847,8.2847,8.2847,8.2847,8.2847,8.2847,8.27,8.1525,8.0828,8.0461,0.0,0.0,0.0,0.0,0.0,0.0,0.0,0.0,0.0,0.0,0.0,0.0,0.0,6.0281,6.0781,6.0781,6.0781,6.0781,6.0781,6.0781,6.0819,6.0819,6.1639,6.2139,6.2178,6.2935,6.3346,6.3397,6.3397,6.3397,6.3397,6.3397,6.3397,6.3397,6.3397,6.3397,6.3397,6.3346,6.2858,6.2139,6.2101,6.1601,6.0781,6.0781,6.1331,6.2216,6.2974,6.382,6.4705,6.5551,6.5859,6.5897,6.5897,6.5897,6.5897,6.5897,6.7051,6.8552,6.9436,7.0244,7.086,7.086,7.1091,7.1298,7.1298,7.1946,7.2574,7.2574,7.369,7.4668,7.4668,7.4922,7.5089,7.5089,7.5814,7.6386,7.6386,7.7092,7.7875,7.8733,7.8327,7.8617,8.024,8.1461,8.1704,8.0537,8.2499,8.3233,8.1941,8.2733,8.2869,8.2215,8.2219,8.2219,8.2186,8.2994,8.3361,8.3398,8.4168,8.4535,8.4535,8.4535,8.4535,8.4535,8.4535,8.4535,8.4535,8.4535,8.4535,8.4535,8.4535,8.4535,8.4535,8.4462,8.3471,8.2113,0.0,0.0,0.0,0.0,0.0,0.0,0.0,0.0,0.0,0.0,0.0,0.0,0.0,0.0,0.0,0.0,5.9127,5.9358,5.9896,5.9935,6.0204,6.0781,6.1089,6.1524,6.2101,6.2358,6.2781,6.3308,6.3308,6.3308,6.3308,6.3308,6.3308,6.3308,6.3308,6.3308,6.3281,6.2743,6.2358,6.2062,6.1485,6.105,6.0781,6.0781,6.1666,6.2935,0.0,6.3858,6.4743,6.559,6.5897,6.5897,6.5897,6.5897,6.6128,6.7244,6.8066,6.8855,6.9734,7.0171,7.0397,7.0568,7.1002,7.1401,7.154,7.2548,7.3433,7.3433,7.4261,7.4992,7.4992,7.5376,7.5621,7.541,7.5911,7.6389,7.6558,7.7311,7.7917,7.8182,7.9026,7.9612,7.9762,8.0179,8.0704,8.1345,8.1736,8.1991,8.208,8.2381,8.2402,8.2219,8.2737,8.2994,8.2994,8.3801,8.4205,8.4205,8.4462,8.4609,8.4609,8.4609,8.4609,8.4609,8.4609,8.4609,8.4609,8.4609,8.4609,8.4609,8.4609,8.4609,8.4609,8.4609,8.4278,8.3801,0.0,0.0,0.0,0.0,0.0,0.0,0.0,0.0,0.0,0.0,0.0,0.0,0.0,0.0,0.0,0.0,0.0,5.8511,5.905,5.9088,5.9319,5.9896,6.0165,6.0589,6.1166,6.1485,6.1897,6.2397,6.2397,6.2397,6.2397,6.2397,6.2397,6.2397,6.2397,6.2397,6.2358,6.1858,6.1639,6.1601,6.1012,6.0781,6.0781,6.0781,6.1858,0.0,6.3308,6.4051,6.5166,6.5705,6.5897,6.5885,6.5676,6.569,6.607,6.7447,6.8171,6.8767,6.9907,7.0249,7.0365,7.0808,7.1282,7.17,7.1786,7.2965,7.3972,7.3773,7.4467,7.5054,7.4866,7.5209,7.5416,7.52,7.5969,7.6646,7.6822,7.7539,7.8164,7.844,7.9215,7.9834,8.0028,8.0044,8.0451,8.1526,8.1723,8.1918,8.2182,8.2186,8.2333,8.2627,8.3141,8.3544,8.3838,8.4646,8.5159,8.5453,8.5453,8.5453,8.5453,8.5453,8.5453,8.5453,8.5453,8.5453,8.5453,8.5453,8.5453,8.5453,8.5453,8.5453,8.5453,8.5453,8.5453,8.538,0.0,0.0,0.0,0.0,0.0,0.0,0.0,0.0,0.0,0.0,0.0,0.0,0.0,0.0,0.0,0.0,0.0,0.0,5.8242,5.8242,5.8242,5.8319,5.905,5.9435,5.9435,6.0242,6.0704,6.0742,6.0742,6.0742,6.0781,6.0781,6.0781,6.0781,6.0781,6.0781,6.0781,6.0781,6.0781,6.0781,6.0781,6.0781,6.0781,6.0781,6.182,6.3231,6.3269,6.4397,6.5859,6.5846,6.5821,6.5755,6.5261,6.5338,6.5783,6.6576,6.7406,6.8422,7.0043,7.0495,7.0701,7.1487,7.1911,7.2112,7.2099,7.3232,7.4094,7.3541,7.4277,7.4848,7.4358,7.4469,7.4621,7.4644,7.601,7.7106,7.709,7.7808,7.859,7.9372,7.901,7.9323,8.0865,8.1048,8.1048,8.1048,8.2348,8.2883,8.2292,8.226,8.2627,8.3471,8.3508,8.3911,8.4646,8.5453,8.6224,8.6995,8.6995,8.6995,8.6995,8.6995,8.6995,8.6995,8.6995,8.6995,8.6995,8.6995,8.6995,8.6995,8.6995,8.6995,8.6995,8.6995,8.6995,8.6775,0.0,0.0,0.0,0.0,0.0,0.0,0.0,0.0,0.0,0.0,0.0,0.0,0.0,0.0,0.0,0.0,0.0,0.0,5.728,5.7319,5.7627,5.828,5.8511,5.8627,5.8627,5.8819,5.9242,5.9819,5.9819,6.0165,6.0781,6.0781,6.0781,6.0781,6.0781,6.0781,6.0781,6.0781,6.0781,6.0781,6.0781,6.0781,6.0781,6.0781,6.1473,6.2474,6.3089,6.4012,6.4975,6.5202,6.5051,6.482,6.5035,6.5483,6.6004,6.6628,6.7985,6.9378,6.9789,7.0327,7.0918,7.1309,7.1798,7.2223,7.2373,7.3049,7.3615,7.3442,7.3626,7.378,7.3651,7.454,7.517,7.4866,7.6069,7.7087,7.7253,7.7975,7.8601,7.8823,7.9742,8.0571,8.0975,8.1525,8.1893,8.1893,8.2233,8.2633,8.3067,8.3104,8.3471,8.4278,8.4866,8.527,8.549,8.6297,8.6811,8.6995,8.6995,8.6995,8.6995,8.6995,8.6995,8.6995,8.6995,8.6995,8.6995,8.6995,8.6995,8.6995,8.6995,8.6995,8.6995,8.6995,8.6995,8.6958,0.0,0.0,0.0,0.0,0.0,0.0,0.0,0.0,0.0,0.0,0.0,0.0,0.0,0.0,0.0,0.0,0.0,0.0,0.0,5.6445,5.6626,5.7126,5.7511,5.7742,5.7742,5.8088,5.8511,5.8973,5.8973,5.9204,5.9704,6.005,6.0242,6.0242,6.0627,6.0781,6.0781,6.0781,6.0781,0.0,0.0,6.0781,6.0781,6.0781,6.1331,6.2216,6.3012,6.3806,6.4619,6.525,6.4971,6.4538,6.5389,6.5687,6.5861,6.6737,6.8134,6.9443,6.9776,7.048,7.1226,7.17,7.207,7.2361,7.2471,7.297,7.3315,7.304,7.3224,7.3427,7.3522,7.4465,7.5283,7.5404,7.6412,7.7303,7.7806,7.8295,7.8846,7.958,8.0461,8.1158,8.1489,8.1929,8.2333,8.27,8.2737,8.292,8.3398,8.3728,8.4315,8.5086,8.5563,8.5967,8.6334,8.6775,8.6995,8.6995,8.6995,8.6995,8.6995,8.6995,8.6995,8.6995,8.6995,8.6995,8.6995,8.6995,8.6995,8.6995,8.6995,8.6995,8.6995,8.6995,8.6995,8.6995,0.0,0.0,0.0,0.0,0.0,0.0,0.0,0.0,0.0,0.0,0.0,0.0,0.0,0.0,0.0,0.0,0.0,0.0,0.0,0.0,5.5703,5.5703,5.6406,5.683,5.683,5.755,5.8011,5.8127,5.8127,5.8204,5.8319,5.9011,5.9358,5.9396,6.0242,6.0627,6.0627,6.0742,6.0781,6.0781,6.0781,6.0781,6.0781,0.0,6.1281,6.2062,6.2974,6.3862,6.4734,6.5622,6.5137,6.4425,6.5842,6.5837,6.5551,6.6961,6.8158,6.9229,7.0036,7.0844,7.1651,7.2349,7.2496,7.2496,7.2496,7.2889,7.3119,7.2602,7.2916,7.3379,7.3639,7.4368,7.5175,7.5983,7.6864,7.7745,7.8479,7.8772,7.9433,8.0828,8.1085,8.1489,8.226,8.237,8.27,8.3508,8.3654,8.3728,8.3728,8.4389,8.5123,8.593,8.5967,8.6297,8.6995,8.6995,8.6995,8.6995,8.6995,8.6995,8.6995,8.6995,8.6995,8.6995,8.6995,8.6995,8.6995,8.6995,8.6995,8.6995,8.6995,8.6995,8.6995,8.6995,8.6995,8.6995,0.0,0.0,0.0,0.0,0.0,0.0,0.0,0.0,0.0,0.0,5.5703,5.5703,0.0,0.0,0.0,0.0,0.0,0.0,0.0,0.0,0.0,5.5703,5.5818,5.5934,5.5934,5.6049,5.6511,5.7253,5.7253,5.7588,5.8319,5.8434,5.8511,5.855,5.9358,5.9742,5.9781,6.0473,6.0781,6.0781,6.0781,6.0781,6.0781,6.0781,6.0896,0.0,6.2743,6.4321,6.5663,6.5821,6.4643,6.3373,6.5176,6.5552,6.5621,6.7185,6.8713,7.0073,7.0881,7.1688,7.2349,7.2459,7.2496,7.2496,7.2496,7.261,7.263,7.2524,7.2573,7.2859,7.3553,7.4368,7.5175,7.5983,7.7378,7.8442,7.8589,7.9764,8.0681,8.0975,8.1599,8.2296,8.3104,8.3214,8.3544,8.4352,8.5013,8.538,8.538,8.5527,8.5967,8.6775,8.6811,8.6885,8.6995,8.6995,8.6995,8.6995,8.6995,8.6995,8.6995,8.6995,8.6995,8.6995,8.6995,8.6995,8.6995,8.6995,8.6995,8.6995,8.6995,8.6995,8.6995,8.6995,8.6995,8.6995,0.0,0.0,0.0,0.0,0.0,0.0,0.0,5.5703,5.5703,5.5703,5.5703,5.5703,5.5703,5.5703,5.5703,0.0,0.0,0.0,0.0,0.0,0.0,5.5703,5.5703,5.5703,5.5703,5.5703,5.5895,5.6329,0.0,5.6549,5.6973,5.7396,5.7627,5.7665,5.8511,5.9127,5.9511,5.9935,6.0396,6.0781,6.0781,6.0781,6.0781,6.0781,6.1089,0.0,6.2858,6.3975,6.4886,6.5322,6.4661,6.3974,6.5974,6.6178,6.6063,6.816,6.9379,7.0293,7.1101,7.1908,7.2496,7.2496,7.2496,7.2496,7.2496,7.2496,7.2496,7.2496,7.2826,7.3377,7.4184,7.4992,7.5799,7.6607,7.7781,7.8736,7.9176,8.0241,8.1158,8.1562,8.2333,8.2994,8.3361,8.3801,8.4352,8.5159,8.5563,8.5783,8.5783,8.6187,8.6591,8.6995,8.6995,8.6995,8.6995,8.6995,8.6995,8.6995,8.6995,8.6995,8.6995,8.6995,8.6995,8.6995,8.6995,8.6995,8.6995,8.6995,8.6995,8.6995,8.6995,8.6995,8.6995,8.6995,8.6995,8.6995,0.0,0.0,0.0,0.0,0.0,0.0,0.0,5.5703,5.5703,5.5703,5.5703,5.5703,5.5703,5.5703,5.5703,0.0,0.0,0.0,0.0,0.0,0.0,0.0,0.0,0.0,5.5703,0.0,0.0,5.5703,5.5703,0.0,0.0,0.0,0.0,0.0,5.7627,5.8357,5.8973,5.9358,5.9896,0.0,0.0,6.0781,6.0781,0.0,0.0,0.0,0.0,6.3602,6.4114,6.497,6.5019,6.5017,6.6654,6.6613,6.6453,6.8827,6.9806,7.0293,7.1101,7.1908,7.2496,7.2496,7.2496,7.2496,7.2496,7.2496,7.2496,7.2496,7.312,7.3927,7.4771,7.5579,7.6423,7.7451,7.8295,7.914,7.9947,8.0755,8.1489,8.2113,8.292,8.3471,8.3654,8.4389,8.5196,8.6004,8.604,8.604,8.604,8.6664,8.6995,8.6995,8.6995,8.6995,8.6995,8.6995,8.6995,8.6995,8.6995,8.6995,8.6995,8.6995,8.6995,8.6995,8.6995,8.6995,8.6995,8.6995,8.6995,8.6995,8.6995,8.6995,8.6995,8.6995,8.6995,8.6995,0.0,0.0,0.0,0.0,0.0,0.0,0.0,5.5703,5.5703,5.5703,5.5703,5.5703,5.5703,5.5703,5.5703,0.0,0.0,0.0,0.0,0.0,0.0,0.0,0.0,0.0,0.0,0.0,0.0,5.5703,5.5703,0.0,0.0,0.0,0.0,0.0,0.0,5.7176,5.733,5.8858,0.0,0.0,0.0,0.0,0.0,0.0,0.0,0.0,0.0,6.3834,6.4654,6.5551,6.5795,6.5775,6.5778,6.5895,6.6398,6.8394,6.9504,7.0293,7.1101,7.1908,7.2496,7.2496,7.2496,7.2496,7.2496,7.2496,7.2496,7.2496,7.312,7.3927,7.4771,7.5579,7.6607,7.8222,7.914,7.9947,8.0791,8.1562,8.2113,8.2186,8.292,8.3691,8.4425,8.5233,8.6004,8.6848,8.6885,8.6885,8.6885,8.6958,8.6995,8.6995,8.6995,8.6995,8.6995,8.6995,8.6995,8.6995,8.6995,8.6995,8.6995,8.6995,8.6995,8.6995,8.6995,8.6995,8.6995,8.6995,8.6995,8.6995,8.6995,8.6995,8.6995,8.6995,8.6995,8.6995,0.0,0.0,0.0,0.0,0.0,0.0,5.5703,5.5703,5.5703,5.5703,5.5703,5.5703,5.5703,5.5703,5.5703,5.5703,0.0,0.0,0.0,0.0,0.0,0.0,0.0,0.0,0.0,0.0,5.5703,5.5703,5.5703,0.0,0.0,0.0,0.0,0.0,0.0,5.6522,5.7099,5.828,0.0,0.0,0.0,0.0,0.0,0.0,0.0,0.0,0.0,0.0,6.3975,6.5082,6.5611,6.5972,6.6215,6.6616,6.7138,6.7948,6.9305,7.0687,7.1176,7.1908,7.2496,7.2496,7.2496,7.2496,7.2496,7.2496,7.2496,7.2496,7.3523,7.4515,7.4845,7.5946,7.7231,7.8405,7.9286,8.0057,8.0901,8.1672,8.2186,8.2186,8.3324,8.4242,8.4572,8.5783,8.6664,8.6995,8.6995,8.6995,8.6995,8.6995,8.6995,8.6995,8.6995,8.6995,8.6995,8.6995,8.6995,8.6995,8.6995,8.6995,8.6995,8.6995,8.6995,8.6995,8.6995,8.6995,8.6995,8.6995,8.6995,8.6995,8.6995,8.6995,8.6995,8.6995,8.6995,8.6995,0.0,0.0,0.0,0.0,0.0,5.5703,5.5703,5.5703,5.5703,5.5703,5.5703,5.5703,5.5703,5.5703,5.5703,5.5703,5.5703,0.0,0.0,0.0,0.0,0.0,0.0,0.0,0.0,0.0,5.5703,5.5703,5.5703,5.5703,0.0,0.0,5.5703,5.5703,0.0,0.0,0.0,0.0,0.0,0.0,0.0,0.0,0.0,0.0,0.0,0.0,0.0,0.0,0.0,0.0,0.0,6.5985,6.6505,6.722,6.7838,6.7909,6.9334,7.0933,7.1135,7.1857,7.2553,7.2742,7.263,7.2496,7.2496,7.2496,7.2496,7.2496,7.378,7.4918,7.4918,7.6209,7.7671,7.8772,7.9433,8.0131,8.1195,8.1819,8.2296,8.2517,8.3765,8.4682,8.4939,8.6187,8.6995,8.6995,8.6995,8.6995,8.6995,8.6995,8.6995,8.6995,8.6995,8.6995,8.6995,8.6995,8.6995,8.6995,8.6995,8.6995,8.6995,8.6995,8.6995,8.6995,8.6995,8.6995,8.6995,8.6995,8.6995,8.6995,8.6995,8.6995,8.6995,8.6995,8.6995,8.6995,0.0,0.0,0.0,0.0,0.0,0.0,5.5703,5.5703,5.5703,5.5703,5.5703,5.5703,5.5703,5.5703,5.5703,5.5703,5.5703,0.0,0.0,0.0,0.0,0.0,0.0,0.0,0.0,0.0,5.5703,5.5703,5.5703,5.5703,5.5703,5.5703,5.5703,5.5703,0.0,0.0,0.0,0.0,0.0,0.0,0.0,0.0,6.0781,0.0,0.0,0.0,0.0,0.0,0.0,0.0,0.0,0.0,0.0,6.7323,6.8392,6.8447,6.9642,7.0945,7.097,7.1722,7.263,7.325,7.2943,7.2496,7.2496,7.2496,7.2496,7.2496,7.378,7.4918,7.4918,7.6209,7.7855,7.9507,7.9764,8.0351,8.1966,8.2186,8.248,8.3287,8.4132,8.4903,8.571,8.6518,8.6995,8.6995,8.6995,8.6995,8.6995,8.6995,8.6995,8.6995,8.6995,8.6995,8.6995,8.6995,8.6995,8.6995,8.6995,8.6995,8.6995,8.6995,8.6995,8.6995,8.6995,8.6995,8.6995,8.6995,8.6995,8.6995,8.6995,8.6995,8.6995,8.6995,8.6995,8.6995,0.0,0.0,0.0,0.0,0.0,0.0,0.0,5.5703,5.5703,5.5703,5.5703,5.5703,5.5703,5.5703,5.5703,5.5703,5.5703,0.0,0.0,0.0,0.0,0.0,0.0,0.0,0.0,0.0,5.5703,5.5703,5.5703,5.5703,5.5703,5.5703,5.5703,5.5703,5.5703,5.5703,0.0,0.0,0.0,0.0,0.0,6.0781,6.0781,0.0,0.0,0.0,0.0,0.0,0.0,0.0,0.0,0.0,0.0,0.0,0.0,6.9335,7.0088,7.0749,7.1394,7.1603,7.1968,7.3127,7.3275,7.3024,7.2573,7.2816,7.2997,7.261,7.334,7.4258,7.4808,7.5763,7.7194,7.9433,7.98,8.0351,8.1966,8.2186,8.248,8.3324,8.4609,8.5747,8.6554,8.6848,8.6995,8.6995,8.6995,8.6995,8.6995,8.6995,8.6995,8.6995,8.6995,8.6995,8.6995,8.6995,8.6995,8.6995,8.6995,8.6995,8.6995,8.6995,8.6995,8.6995,8.6995,8.6995,8.6995,8.6995,8.6995,8.6995,8.6995,8.6995,8.6995,8.6995,8.7295,8.7741,0.0,0.0,0.0,0.0,0.0,0.0,0.0,5.5703,5.5703,5.5703,5.5703,5.5703,5.5703,5.5703,5.5703,5.5703,5.5703,0.0,0.0,0.0,0.0,0.0,0.0,0.0,0.0,5.5703,5.5703,5.5703,5.5703,5.5703,5.5703,5.5703,5.5703,5.5703,5.5703,5.5703,0.0,0.0,0.0,0.0,6.0781,6.0781,6.0781,0.0,0.0,0.0,0.0,0.0,0.0,0.0,0.0,0.0,0.0,0.0,0.0,0.0,7.0369,7.0611,7.1767,7.2034,7.2285,7.3709,7.3874,7.3626,7.3275,7.3264,7.329,7.2916,7.3471,7.4236,7.4764,7.5743,7.7194,7.9423,7.98,8.0351,8.1966,8.2186,8.259,8.3728,8.5533,8.6742,8.6993,8.7265,8.7332,8.6995,8.6995,8.6995,8.6995,8.6995,8.6995,8.6995,8.6995,8.6995,8.6995,8.6995,8.6995,8.6995,8.6995,8.6995,8.6995,8.6995,8.6995,8.6995,8.6995,8.6995,0.0,8.6995,8.6995,8.6995,8.6995,8.7163,8.7427,8.7427,8.7861,8.8475,0.0,0.0,0.0,0.0,0.0,0.0,0.0,5.5703,5.5703,5.5703,5.5703,5.5703,5.5703,5.5703,5.5703,5.5703,0.0,0.0,0.0,0.0,0.0,0.0,0.0,0.0,5.5703,5.5703,5.5703,5.5703,5.5703,5.5703,5.5703,5.5703,5.5703,5.5703,5.5703,5.578,5.5972,0.0,0.0,0.0,6.0781,6.0781,0.0,0.0,0.0,0.0,0.0,0.0,0.0,0.0,0.0,0.0,0.0,0.0,0.0,0.0,0.0,0.0,0.0,7.2813,7.3229,7.4676,7.4673,7.4336,7.4315,7.3911,0.0,7.3417,7.405,7.4699,7.4882,7.6041,7.7627,7.9541,7.9827,8.0414,8.2091,8.2389,8.2986,8.4425,8.6683,8.7804,8.7064,8.7683,8.7804,8.7064,8.6995,8.6995,8.6995,8.6995,8.6995,8.6995,8.6995,8.6995,8.6995,8.6995,8.6995,8.6995,8.6995,8.6995,8.6995,8.6995,8.6995,8.6995,8.6995,8.6995,8.6995,8.6995,8.6995,8.6995,8.6995,8.746,8.8107,8.8107,8.856,8.9161,0.0,0.0,0.0,0.0,0.0,0.0,0.0,0.0,0.0,0.0,5.5703,5.5703,5.5703,5.5703,5.5703,0.0,0.0,0.0,0.0,0.0,0.0,0.0,0.0,0.0,5.5703,5.5703,5.5703,5.5703,5.5703,5.5703,5.5703,5.5703,5.5703,5.5703,5.5703,5.6434,5.7742,5.8781,0.0,0.0,6.0781,6.0781,0.0,0.0,0.0,0.0,6.4051,6.4974,0.0,0.0,0.0,0.0,0.0,0.0,0.0,0.0,7.0805,7.1079,7.2807,0.0,7.2419,7.3819,7.4542,7.479,0.0,7.4489,7.443,7.3578,7.4407,7.5232,7.4932,7.6106,7.7808,8.0134,8.0124,8.0708,8.3372,8.4356,8.4762,8.4602,8.6683,8.7804,8.7064,8.7683,8.7804,8.7064,8.6995,8.6995,8.6995,8.6995,8.6995,8.6995,8.6995,8.6995,8.6995,8.6995,8.6995,8.6995,8.6995,8.6995,8.6995,8.6995,8.6995,8.6995,8.6995,8.6995,8.6995,8.6995,8.6995,8.6995,8.6995,8.746,8.8107,8.8107,8.8856,8.9855,0.0,0.0,0.0,0.0,0.0,0.0,0.0,0.0,0.0,0.0,0.0,0.0,0.0,0.0,0.0,0.0,0.0,0.0,0.0,0.0,0.0,0.0,0.0,5.5703,5.5703,5.5703,5.5703,5.5703,5.5703,5.5703,5.5703,5.5703,5.5703,5.5703,5.6126,5.7049,5.8357,5.9165,6.0012,6.0781,6.0781,0.0,0.0,0.0,0.0,0.0,6.4282,6.5166,0.0,6.5897,6.6436,6.7244,0.0,0.0,0.0,0.0,7.0898,7.1206,7.2552,7.2738,7.2955,7.4473,7.519,7.543,7.5129,7.5111,7.4848,7.4003,7.4956,7.5705,7.5048,7.6536,7.8524,8.043,8.0465,8.1021,8.3426,8.4547,8.5113,8.5086,8.7123,8.8309,8.7586,8.813,8.8279,8.7554,8.7197,8.6995,8.6995,8.6995,8.6995,8.6995,8.6995,8.6995,8.6995,8.6995,8.6995,8.6995,8.6995,8.6995,8.6995,8.6995,8.6995,8.6995,8.6995,8.6995,8.6995,8.6995,8.6995,8.6995,8.6995,8.746,8.8137,8.8446,8.9187,9.016,0.0,0.0,0.0,0.0,0.0,0.0,0.0,0.0,0.0,0.0,0.0,0.0,0.0,0.0,0.0,0.0,0.0,0.0,0.0,0.0,0.0,0.0,0.0,5.5703,5.5703,5.5703,5.5703,5.5703,5.5703,5.5703,5.5703,5.5703,5.578,5.5934,5.6945,5.778,5.855,5.9358,6.0127,6.0781,6.0781,0.0,0.0,0.0,0.0,0.0,0.0,0.0,0.0,6.6051,6.6628,6.7436,6.8321,0.0,0.0,0.0,0.0,0.0,7.2129,7.2937,7.386,7.5438,7.5899,7.6015,7.6015,7.56,7.5054,7.4422,7.5606,7.6382,7.5264,7.7188,7.9393,8.0735,8.1163,8.1744,8.2888,8.3997,8.4907,8.5379,8.7482,8.8678,8.813,8.8801,8.8937,8.8167,8.7521,8.7132,8.7031,8.6995,8.6995,8.6995,8.6995,8.6995,8.6995,8.6995,8.6995,8.6995,8.6995,8.6995,8.6995,8.6995,8.6995,8.6995,8.6995,8.6995,8.6995,8.6995,8.6995,8.6995,8.6995,8.746,8.8197,8.8719,8.9451,9.0203,0.0,0.0,0.0,0.0,0.0,0.0,0.0,0.0,0.0,0.0,0.0,0.0,0.0,0.0,0.0,0.0,0.0,0.0,0.0,0.0,0.0,5.5703,5.5703,5.5703,5.5703,5.5703,5.5703,5.5703,5.5703,5.5703,5.5703,5.5703,5.6088,5.6868,5.8434,5.9204,5.9358,6.0242,6.0666,6.0781,6.0781,0.0,0.0,0.0,0.0,0.0,0.0,0.0,0.0,6.6667,6.7475,6.8359,6.9244,0.0,0.0,0.0,0.0,0.0,7.286,7.3399,7.3745,7.4668,7.5438,7.6015,7.6015,7.5932,7.5551,7.4506,7.6349,7.7676,7.6069,7.759,7.9683,8.1304,8.3165,8.3936,8.2548,8.4038,8.5143,8.4825,8.6714,8.8103,8.8093,8.9213,8.9413,8.816,8.7985,8.7683,8.7029,8.6995,8.6995,8.6995,8.6995,8.6995,8.6995,8.6995,8.6995,8.6995,8.6995,8.6995,8.6995,8.6995,8.6995,8.6995,8.6995,8.6995,8.6995,8.6995,8.6995,8.6995,8.6995,8.746,8.8107,8.819,8.9043,9.0203,0.0,0.0,0.0,0.0,0.0,0.0,0.0,0.0,0.0,0.0,0.0,0.0,0.0,0.0,0.0,0.0,0.0,0.0,0.0,0.0,5.5703,5.5703,5.5703,5.5703,5.5703,5.5703,5.5703,5.5703,5.5703,5.5703,5.5703,5.6175,5.6857,5.7742,5.8973,5.9511,5.955,6.0435,6.0781,6.0819,0.0,0.0,0.0,0.0,0.0,0.0,0.0,0.0,0.0,0.0,6.7667,6.8552,6.9436,0.0,0.0,0.0,0.0,0.0,7.3168,7.3822,7.4361,7.5207,7.5707,7.6015,7.6015,7.6015,7.5772,7.4905,7.6752,7.8041,7.6609,7.8157,8.0037,8.098,8.2786,8.3772,8.2883,8.3641,8.4518,8.5064,8.6437,8.7548,8.8063,8.8673,8.8746,8.8167,8.7709,8.7361,8.6995,8.6995,8.6995,8.6995,8.6995,8.6995,8.6995,8.6995,8.6995,8.6995,8.6995,8.6995,8.6995,8.6995,8.6995,8.6995,8.6995,8.6995,8.6995,8.6995,8.6995,8.6995,8.6995,8.7197,8.7554,8.7923,8.8719,8.9621,0.0,0.0,0.0,0.0,0.0,0.0,0.0,0.0,0.0,0.0,0.0,0.0,0.0,0.0,0.0,0.0,0.0,0.0,0.0,0.0,5.5703,5.5703,5.5703,5.5703,5.5703,5.5703,5.5703,5.5703,5.5703,5.578,5.6011,5.7099,5.7934,5.8627,5.9435,5.9819,5.9858,6.0512,6.0781,6.0858,0.0,0.0,0.0,0.0,0.0,0.0,0.0,0.0,0.0,0.0,0.0,0.0,0.0,0.0,0.0,7.0898,7.1514,7.2399,7.3283,7.4091,7.4899,7.5784,7.6015,7.6015,7.6015,7.6015,7.5833,7.5236,7.6803,7.7973,7.6884,7.8652,8.031,8.0461,8.2032,8.3132,8.2994,8.3201,8.3778,8.4953,8.5976,8.6945,8.7734,8.8137,8.8279,8.8107,8.7586,8.7163,8.6995,8.6995,8.6995,8.6995,8.6995,8.6995,8.6995,8.6995,8.6995,8.6995,8.6995,8.6995,8.6995,8.6995,8.6995,8.6995,8.6995,8.6995,8.6995,8.6995,8.6995,8.6995,8.6995,8.6995,8.7098,8.7836,8.8417,8.8883,0.0,0.0,0.0,0.0,0.0,0.0,0.0,0.0,0.0,0.0,0.0,0.0,0.0,0.0,0.0,0.0,0.0,0.0,0.0,0.0,5.5703,5.5703,5.5703,5.5703,5.5703,5.5703,5.5703,5.5703,5.5703,5.6088,5.6945,5.855,5.9358,5.9435,6.0319,6.0704,6.0704,6.0781,6.0781,6.0858,6.1755,0.0,0.0,0.0,0.0,0.0,0.0,0.0,0.0,0.0,0.0,0.0,0.0,0.0,7.0898,7.0898,7.1514,7.2399,7.3283,7.4091,7.4899,7.5784,7.6015,7.6015,7.6015,7.6015,7.5833,7.5236,7.6482,7.7474,7.6819,7.8866,8.0479,7.9977,8.1719,8.2994,8.2375,8.2837,8.3314,8.3525,8.4824,8.605,8.6907,8.8213,8.8774,8.8167,8.8046,8.7709,8.7029,8.6995,8.6995,8.6995,8.6995,8.6995,8.6995,8.6995,8.6995,8.6995,8.6995,8.6995,8.6995,8.6995,8.6995,8.6995,8.6995,8.6995,8.6995,8.6995,8.6995,8.6995,8.6995,8.6995,8.7098,8.7836,8.8137,8.8249,0.0,0.0,0.0,0.0,0.0,0.0,0.0,0.0,0.0,0.0,0.0,0.0,0.0,0.0,0.0,0.0,0.0,0.0,0.0,5.5703,5.5703,5.5703,5.6214,5.6522,5.6522,5.6522,5.6522,5.6522,5.7049,5.7742,5.855,5.9204,5.9781,6.0319,6.0666,6.0781,6.0781,6.0781,6.1089,6.1678,6.2512,6.3358,0.0,0.0,0.0,0.0,0.0,0.0,0.0,0.0,6.8975,6.986,7.0667,7.0898,7.1014,7.1552,7.2322,7.3206,7.4014,7.4861,7.5592,7.5938,7.6015,7.6015,7.6015,7.6015,7.6086,7.6392,7.7082,7.764,7.7678,7.9216,8.0341,7.9872,8.0929,8.1944,8.2178,8.2439,8.276,8.332,8.3913,8.4732,8.6094,8.6714,8.7153,8.7423,8.7427,8.7261,8.6995,8.6995,8.6995,8.6995,8.6995,8.6995,8.6995,8.6995,8.6995,8.6995,8.6995,8.6995,8.6995,8.6995,8.6995,8.6995,8.6995,8.6995,8.6995,8.6995,8.6995,8.6995,8.6995,8.6995,8.7029,8.7295,8.7427,8.7423,0.0,0.0,0.0,0.0,0.0,0.0,0.0,0.0,0.0,0.0,0.0,0.0,0.0,0.0,0.0,0.0,0.0,0.0,5.5724,5.5972,5.613,5.6184,5.6949,5.745,5.7466,5.7681,5.7665,5.7407,5.8242,5.8973,5.9511,5.9781,6.0242,6.0781,6.0781,6.0935,6.1204,6.1204,6.1704,6.2551,6.3397,6.4089,0.0,0.0,0.0,0.0,0.0,0.0,0.0,0.0,6.9398,7.0167,7.0744,7.0898,7.1052,7.1937,7.2822,7.3668,7.4476,7.5361,7.5947,7.5749,7.5718,7.567,7.5501,7.5756,7.6201,7.6846,7.7227,7.7515,7.7913,7.8996,7.9817,7.9805,8.0461,8.1269,8.2076,8.2186,8.2406,8.2957,8.3251,8.3838,8.4939,8.549,8.604,8.6591,8.6885,8.6995,8.6995,8.6995,8.6995,8.6995,8.6995,8.6995,8.6995,8.6995,8.6995,8.6995,8.6995,8.6995,8.6995,8.6995,8.6995,8.6995,8.6995,8.6995,8.6995,8.6995,8.6995,8.6995,8.6995,8.6995,8.6995,8.6995,8.6995,8.6995,0.0,0.0,0.0,0.0,0.0,0.0,0.0,0.0,0.0,0.0,0.0,0.0,0.0,0.0,0.0,0.0,0.0,0.0,5.5724,5.6522,5.7071,5.721,5.7939,5.8382,5.8527,5.9163,5.9127,5.8319,5.9127,5.9511,5.9511,6.0396,6.0781,6.0781,6.0819,6.1281,6.2101,6.2101,6.2589,6.3397,6.4243,6.4589,6.4705,0.0,0.0,0.0,0.0,0.0,0.0,0.0,7.0244,7.0898,7.0898,7.0898,7.1091,7.1937,7.2822,7.3692,7.4514,7.5308,7.5833,7.5254,7.5091,7.4961,7.4422,7.5147,7.6033,7.6252,7.6685,7.707,7.7279,7.8002,7.8846,7.9653,8.0461,8.1269,8.2076,8.2186,8.2186,8.2186,8.292,8.3398,8.3398,8.4829,8.5783,8.5783,8.6518,8.6995,8.6995,8.6995,8.6995,8.6995,8.6995,8.6995,8.6995,8.6995,8.6995,8.6995,8.6995,8.6995,8.6995,8.6995,8.6995,8.6995,8.6995,8.6995,8.6995,8.6995,8.6995,8.6995,8.6995,8.6995,8.6995,8.6995,8.6995,8.6995,0.0,0.0,0.0,0.0,0.0,0.0,0.0,0.0,0.0,0.0,0.0,0.0,0.0,0.0,0.0,0.0,0.0,0.0,5.6631,5.7516,5.8071,5.8101,5.8922,5.9386,5.9418,6.005,6.0281,6.005,6.0281,6.0396,6.0435,6.0666,6.0781,6.0819,6.1435,6.187,6.2139,6.2704,6.3435,6.4243,6.4512,6.4974,6.5551,0.0,0.0,0.0,0.0,0.0,0.0,0.0,0.0,0.0,7.0898,7.1321,7.1975,7.286,7.3423,7.4068,7.5287,7.5226,7.4847,7.5054,7.4828,7.4506,7.4336,7.4547,7.5008,7.5793,7.7338,7.8303,7.7473,7.7902,7.8512,7.8903,7.9617,8.0424,8.1232,8.1819,8.2186,8.2186,8.2406,8.2774,8.3361,8.3838,8.4352,8.4903,8.571,8.6151,8.6151,8.6701,8.6995,8.6995,8.6995,8.6995,8.6995,8.6995,8.6995,8.6995,8.6995,8.6995,8.6995,8.6995,8.6995,8.6995,8.6995,8.6995,8.6995,8.6995,8.6995,8.6995,8.6995,8.6995,8.6995,8.6995,8.6995,8.6995,0.0,0.0,0.0,0.0,0.0,0.0,0.0,0.0,0.0,0.0,0.0,0.0,0.0,0.0,0.0,0.0,0.0,0.0,0.0,5.8543,5.912,5.9185,5.9894,6.0265,6.0201,6.0614,6.0781,6.0781,6.0781,6.0781,6.0819,6.1127,6.132,6.1358,6.2204,6.2781,6.3128,6.3628,6.432,6.5128,6.5128,6.5436,6.5936,0.0,0.0,0.0,0.0,0.0,0.0,0.0,0.0,0.0,7.0898,7.1514,7.236,7.3245,7.369,7.4153,7.5321,7.4999,7.4336,7.4405,7.419,7.3888,7.3664,7.4271,7.5092,7.5678,7.7222,7.8218,7.742,7.7622,7.8093,7.8535,7.9286,8.0057,8.0901,8.1672,8.2186,8.2186,8.2186,8.237,8.2884,8.3214,8.3618,8.4095,8.4866,8.5306,8.5306,8.6077,8.6518,8.6518,8.6848,8.6995,8.6995,8.6995,8.6995,8.6995,8.6995,8.6995,8.6995,8.6995,8.6995,8.6995,8.6995,8.6995,8.6995,8.6995,8.6995,8.6995,8.6995,8.6995,8.6995,8.6995,8.6995,8.6995,0.0,0.0,0.0,0.0,0.0,0.0,0.0,0.0,0.0,0.0,5.6719,0.0,0.0,0.0,0.0,0.0,0.0,0.0,0.0,0.0,6.0209,6.0297,6.0767,6.0944,6.0793,6.0858,6.0935,6.0935,6.0935,6.0935,6.0935,6.1793,6.2216,6.2243,6.3051,6.3858,6.4628,6.4666,6.5166,6.5897,6.5974,6.6013,6.609,6.6898,0.0,0.0,0.0,0.0,0.0,0.0,0.0,0.0,7.0898,7.1552,7.2476,7.3202,7.3664,7.4103,7.4845,7.4571,7.4026,7.3504,7.3366,7.3172,7.263,7.4136,7.5607,7.5681,7.6565,7.7273,7.7273,7.7273,7.753,7.8369,7.914,7.9947,8.0791,8.1562,8.2113,8.2186,8.2186,8.2186,8.2186,8.2884,8.3287,8.3287,8.4058,8.4499,8.4499,8.5233,8.5673,8.5673,8.6407,8.6811,8.6885,8.6885,8.6921,8.6995,8.6995,8.6995,8.6995,8.6995,8.6995,8.6995,8.6995,8.6995,8.6995,8.6995,8.6995,8.6995,8.6995,8.6995,8.6995,8.6995,8.6995,8.6995,0.0,0.0,0.0,0.0,0.0,0.0,0.0,0.0,0.0,0.0,0.0,0.0,0.0,0.0,0.0,0.0,0.0,0.0,0.0,0.0,6.1173,6.1231,6.1222,6.1112,6.0793,6.1485,6.1831,6.1831,6.1831,6.1831,6.1831,6.2666,6.3051,6.3089,6.3935,6.4436,6.4628,6.532,6.5743,6.5974,6.659,6.6821,6.6936,6.7782,6.8552,0.0,0.0,0.0,0.0,0.0,0.0,0.0,7.0898,7.1975,7.3149,7.2887,7.3478,7.4258,7.4447,7.3699,7.297,7.3315,7.3013,7.2658,7.2524,7.3345,7.4335,7.4969,7.6257,7.7273,7.7273,7.7273,7.7347,7.753,7.8295,7.914,7.9947,8.0755,8.1489,8.2113,8.2186,8.2186,8.2186,8.237,8.2443,8.2443,8.3214,8.3654,8.3654,8.4425,8.4866,8.4866,8.5049,8.5416,8.604,8.604,8.6371,8.6995,8.6995,8.6995,8.6995,8.6995,8.6995,8.6995,8.6995,8.6995,8.6995,8.6995,8.6995,8.6995,8.6995,8.6995,8.6995,8.6995,8.6995,8.6995,0.0,0.0,0.0,0.0,0.0,0.0,0.0,0.0,0.0,0.0,0.0,0.0,0.0,0.0,0.0,0.0,0.0,0.0,0.0,0.0,6.1525,6.14,6.1642,6.1664,6.1408,6.2243,6.2666,6.2666,6.3089,6.3089,6.2704,6.3551,6.3935,6.3974,6.482,6.5205,6.5243,6.5705,6.6128,6.6513,6.6936,6.7359,6.7821,6.8706,6.9321,6.9744,7.0129,0.0,0.0,0.0,0.0,0.0,0.0,0.0,7.3089,7.3198,7.3505,7.3865,7.3865,7.3198,7.2582,7.2862,7.2705,7.2496,7.2496,7.312,7.3927,7.4735,7.5873,7.6864,7.7237,7.7273,7.7273,7.7273,7.8038,7.8736,7.9176,8.0241,8.1158,8.1562,8.1966,8.2186,8.2186,8.2186,8.2186,8.2186,8.259,8.2847,8.2847,8.3581,8.4022,8.4022,8.4389,8.4792,8.5233,8.5233,8.5637,8.6444,8.6444,8.6628,8.6995,8.6995,8.6995,8.6995,8.6995,8.6995,8.6995,8.6995,8.6995,8.6995,8.6995,8.6995,8.6995,8.6995,8.6995,8.6995,0.0,0.0,0.0,0.0,0.0,0.0,0.0,0.0,0.0,0.0,0.0,0.0,0.0,0.0,0.0,0.0,0.0,0.0,0.0,0.0,0.0,6.1729,6.223,6.2462,6.2293,6.3128,6.3512,6.3512,6.4397,6.4474,6.3782,6.4474,6.482,6.4859,6.559,6.5974,6.609,6.609,6.659,6.7321,6.7475,6.7975,6.8744,6.959,0.0,6.9975,7.0667,7.0898,7.0898,7.0898,0.0,0.0,0.0,0.0,7.2872,7.3551,7.3635,7.3516,7.329,7.2899,7.2496,7.2496,7.2496,7.2496,7.2496,7.301,7.3707,7.4551,7.5432,7.635,7.7127,7.7273,7.7273,7.7273,7.7928,7.8442,7.8589,7.9874,8.0828,8.0975,8.1709,8.2186,8.2186,8.2186,8.2186,8.2186,8.2186,8.2186,8.2186,8.2847,8.3214,8.3214,8.3838,8.4242,8.4389,8.4389,8.4792,8.56,8.571,8.6151,8.6811,8.6958,8.6995,8.6995,8.6995,8.6995,8.6995,8.6995,8.6995,8.6995,8.6995,8.6995,8.6995,8.6995,8.6995,8.6995,0.0,0.0,0.0,0.0,0.0,0.0,0.0,0.0,0.0,0.0,0.0,0.0,0.0,0.0,0.0,0.0,0.0,0.0,6.1678,0.0,0.0,6.3435,6.3432,6.3341,6.3128,6.3974,6.4436,6.4436,6.5282,6.5667,6.5551,6.5667,6.5743,6.5743,6.5859,6.6282,6.6936,6.6936,6.7436,6.8282,6.9052,6.9436,6.9629,0.0,0.0,7.0744,7.086,7.0898,7.0898,7.0898,7.0898,0.0,0.0,0.0,7.3369,7.3191,7.3592,7.3957,7.2889,7.2582,7.2496,7.2496,7.2496,7.2496,7.2496,7.2569,7.2899,7.367,7.5065,7.635,7.7127,7.7273,7.7273,7.7273,7.7384,7.7745,7.8479,7.9396,8.0204,8.0938,8.1709,8.2186,8.2186,8.2186,8.2186,8.2186,8.2186,8.2186,8.2186,8.2296,8.237,8.237,8.2443,8.2847,8.3581,8.3581,8.3985,8.4756,8.5453,8.5857,8.5967,8.6701,8.6995,8.6995,8.6995,8.6995,8.6995,8.6995,8.6995,8.6995,8.6995,8.6995,8.6995,8.6995,8.6995,8.6995,0.0,0.0,0.0,0.0,0.0,0.0,0.0,0.0,0.0,0.0,0.0,0.0,0.0,0.0,0.0,6.2422,6.2808,6.308,6.3164,6.3375,6.3608,6.3786,6.41,6.4201,6.4012,6.4897,6.532,6.532,6.5705,6.6128,6.6551,6.6551,6.6551,6.6551,6.6551,6.7051,6.7821,6.7821,6.8321,6.9167,6.9552,6.9975,7.0398,0.0,0.0,0.0,0.0,0.0,7.0898,7.0898,7.1206,7.1783,7.2668,0.0,0.0,0.0,7.3748,7.3615,7.2742,7.2496,7.2496,7.2496,7.2496,7.2496,7.2496,7.2496,7.2716,7.3523,7.4258,7.5139,7.6423,7.7011,7.7273,7.7273,7.7273,7.742,7.7818,7.8589,7.9433,8.0241,8.1048,8.1709,8.215,8.2186,8.2186,8.2186,8.2186,8.2186,8.2186,8.2186,8.2186,8.2186,8.2186,8.237,8.2737,8.2737,8.3141,8.3948,8.4756,8.5123,8.5159,8.5967,8.6591,8.6995,8.6995,8.6995,8.6995,8.6995,8.6995,8.6995,8.6995,8.6995,8.6995,8.6995,8.6995,8.6995,0.0,0.0,0.0,0.0,0.0,0.0,0.0,0.0,0.0,0.0,0.0,0.0,0.0,0.0,0.0,0.0,6.3906,6.4375,6.4609,6.4507,6.4431,6.4447,6.4876,6.5062,6.4948,6.5551,6.6013,6.6205,6.6205,6.6628,6.7436,6.7436,6.7552,6.7744,6.7513,6.7898,6.8744,6.8744,6.9206,7.0014,7.0014,7.036,0.0,0.0,0.0,0.0,0.0,0.0,0.0,0.0,7.1822,7.2668,7.3553,7.3843,0.0,0.0,0.0,7.3066,7.2602,7.2496,7.2496,7.2496,7.2496,7.2496,7.2496,7.2496,7.2679,7.3266,7.356,7.4111,7.5542,7.646,7.7053,7.7273,7.7273,7.7273,7.7273,7.8075,7.8809,7.9396,8.0388,8.1232,8.1819,8.2076,8.2186,8.2186,8.2186,8.2186,8.2186,8.2186,8.2186,8.2186,8.2186,8.2186,8.2186,8.2186,8.2517,8.3104,8.3911,8.4315,8.4315,8.5123,8.593,8.6701,8.6921,8.6995,8.6995,8.6995,8.6995,8.6995,8.6995,8.6995,8.6995,8.6995,8.6995,8.6995,0.0,0.0,0.0,0.0,0.0,0.0,0.0,0.0,0.0,0.0,0.0,0.0,0.0,6.4219,6.4219,6.4219,6.4258,6.4648,6.5469,6.5366,6.5558,6.6238,6.6118,0.0,6.5833,6.5859,6.6282,6.7051,6.7051,6.7475,6.8321,6.8321,6.8783,6.9513,6.8706,6.8821,6.9629,6.9629,7.009,7.0821,7.0821,0.0,0.0,0.0,0.0,0.0,0.0,0.0,0.0,0.0,0.0,7.3591,7.4399,7.4303,7.397,0.0,0.0,0.0,7.2496,7.2496,7.2496,7.2496,7.2496,7.2496,7.2496,7.2496,7.2496,7.2569,7.3156,7.3964,7.4808,7.5616,7.6423,7.7163,7.7273,7.7273,7.7273,7.8075,7.8626,7.8662,8.0057,8.1012,8.1048,8.1746,8.2186,8.2186,8.2186,8.2186,8.2186,8.2186,8.2186,8.2186,8.2186,8.2186,8.2186,8.2186,8.2223,8.226,8.3104,8.3471,8.3508,8.4315,8.5086,8.5894,8.6664,8.6995,8.6995,8.6995,8.6995,8.6995,8.6995,8.6995,8.6995,8.6995,8.6995,8.6995,0.0,0.0,0.0,0.0,0.0,0.0,0.0,0.0,0.0,0.0,0.0,0.0,0.0,6.4805,6.5117,6.5117,6.5664,6.6053,6.6225,6.6163,6.642,6.7027,6.6969,6.71,6.7513,6.7513,6.7667,6.7936,6.7936,6.8398,6.9244,6.9244,6.9667,7.0437,6.959,6.9706,7.0475,7.0475,7.0629,7.0937,7.1514,0.0,0.0,0.0,0.0,0.0,0.0,0.0,0.0,0.0,0.0,0.0,0.0,0.0,7.4562,7.3891,7.3145,7.2496,7.2496,7.2496,7.2496,7.2496,7.2496,7.2496,7.2496,7.2496,7.2496,7.2496,7.312,7.3927,7.4771,7.5579,7.635,7.7163,7.7273,7.7273,7.7273,7.7598,7.7965,7.8516,7.9103,7.9653,8.0167,8.0975,8.1415,8.1415,8.1893,8.2186,8.2186,8.2186,8.2186,8.2186,8.2186,8.2186,8.2186,8.2186,8.2186,8.2186,8.248,8.2627,8.2663,8.3471,8.3985,8.4352,8.5673,8.6518,8.6995,8.6995,8.6995,8.6995,8.6995,8.6995,8.6995,8.6995,8.6995,8.6995,0.0,0.0,0.0,0.0,0.0,0.0,0.0,0.0,0.0,0.0,0.0,0.0,0.0,0.0,6.6133,6.6445,6.6992,6.7378,6.7478,6.7475,6.7564,6.7784,6.7803,6.7978,6.8398,6.8385,6.8552,6.8859,6.8859,6.9283,7.009,7.009,7.0552,7.1321,7.0783,7.0667,7.0937,7.1206,7.1321,7.1398,7.2283,0.0,7.2706,0.0,0.0,0.0,0.0,0.0,0.0,0.0,0.0,0.0,0.0,0.0,0.0,7.3467,7.2816,7.2496,7.2496,7.2496,7.2496,7.2496,7.2496,7.2496,7.2496,7.2496,7.2569,7.2863,7.334,7.4037,7.5102,7.5726,7.635,7.7163,7.7273,7.7273,7.7273,7.7273,7.7494,7.8112,7.8405,7.8809,7.9323,8.0131,8.0718,8.0975,8.1489,8.1929,8.2186,8.2186,8.2186,8.2186,8.2186,8.2186,8.2186,8.2186,8.2186,8.2186,8.2186,8.2186,8.2223,8.2737,8.3141,8.3471,8.4829,8.5857,8.6628,8.6885,8.6995,8.6995,8.6995,8.6995,8.6995,8.6995,8.6995,8.6995,0.0,0.0,0.0,0.0,0.0,0.0,0.0,0.0,0.0,6.5547,0.0,0.0,0.0,0.0,0.0,6.8164,6.8203,6.8507,6.9146,6.9181,6.9034,6.8655,6.8635,6.8585,6.8475,6.8475,6.8898,6.9744,6.9744,7.0167,7.0937,7.0937,7.1398,7.2245,7.2245,7.1783,7.1014,7.186,7.2245,7.2322,0.0,7.3538,7.3538,0.0,0.0,0.0,7.386,7.463,0.0,7.5014,0.0,0.0,0.0,0.0,0.0,0.0,7.2496,7.2496,0.0,0.0,0.0,7.2496,7.2496,7.2496,7.2496,7.2532,7.2753,7.3523,7.3744,7.4258,7.5799,7.613,7.6387,7.7163,7.7273,7.7273,7.7273,7.7273,7.7273,7.7273,7.8075,7.8552,7.8552,7.9286,8.0094,8.0865,8.0975,8.1342,8.2113,8.2186,8.2186,8.2186,8.2186,8.2186,8.2186,8.2186,8.2186,8.2186,8.2186,8.2186,8.2186,8.2186,8.2627,8.3434,8.4242,8.5013,8.582,8.6664,8.6995,8.6995,8.6995,8.6995,8.6995,8.6995,8.6995,8.6995,0.0,0.0,0.0,0.0,0.0,0.0,6.6094,6.6172,6.6484,0.0,0.0,0.0,0.0,0.0,6.8674,6.8908,6.8808,6.8733,6.8746,6.8768,6.8946,6.9398,6.9412,6.9644,7.0206,7.0206,7.0321,7.0552,7.0552,7.1014,7.1822,7.1822,7.2322,7.3129,7.3129,7.3014,7.2822,7.3053,7.3129,7.3206,7.4053,7.4361,0.0,0.0,0.0,0.0,0.0,7.563,7.5976,0.0,7.5784,7.5932,0.0,0.0,0.0,0.0,0.0,0.0,7.2496,0.0,0.0,0.0,0.0,0.0,7.2496,7.2936,7.3413,7.3634,7.4625,7.5579,7.6019,7.6607,7.7017,7.7237,7.7273,7.7273,7.7273,7.7273,7.7273,7.7273,7.7494,7.7671,7.7671,7.8442,7.9029,7.925,8.0351,8.1122,8.1342,8.1893,8.2186,8.2186,8.2186,8.2186,8.2186,8.2186,8.2186,8.2186,8.2186,8.2186,8.2186,8.2186,8.2333,8.259,8.3398,8.4205,8.5049,8.6444,8.6995,8.6995,8.6995,8.6995,8.6995,8.6995,8.6995,8.6995,0.0,0.0,0.0,0.0,0.0,6.6875,6.7344,6.7734,6.8125,0.0,0.0,0.0,0.0,0.0,0.0,6.9692,6.9635,6.9636,6.9791,6.9822,6.9933,7.0194,7.0206,7.0591,7.1398,7.1437,7.1629,7.1975,7.1975,7.2245,7.2745,7.2745,7.3206,7.4014,7.4014,7.4207,7.4553,7.4553,7.4322,7.4091,7.4899,0.0,0.0,7.5822,7.6015,0.0,0.0,0.0,7.6015,7.6015,7.6015,0.0,0.0,0.0,0.0,0.0,0.0,0.0,0.0,0.0,7.2496,7.2496,0.0,0.0,7.2936,7.334,7.3891,7.4551,7.5432,7.6203,7.6533,7.698,7.7273,7.7273,7.7273,7.7273,7.7273,7.7273,7.7273,7.7273,7.7273,7.7273,7.7273,7.7781,7.8222,7.8552,7.947,8.0277,8.0975,8.1746,8.2186,8.2186,8.2186,8.2186,8.2186,8.2186,8.2186,8.2186,8.2186,8.2186,8.2186,8.2186,8.2186,8.2223,8.3067,8.3691,8.4242,8.5857,8.6701,8.6995,8.6995,8.6995,8.6995,8.6995,8.6995,8.6995,0.0,0.0,6.7187,6.7187,6.7812,6.8359,6.8359,6.8945,6.9413,0.0,6.9503,6.9432,0.0,0.0,0.0,0.0,7.0801,7.1092,7.1661,7.1723,7.1542,7.1195,7.1206,7.1552,7.2322,7.2322,7.2706,7.3514,7.3514,7.3553,7.363,7.363,7.4091,7.4861,7.4861,7.5284,7.6015,7.6015,7.5553,7.4899,7.5707,7.6015,0.0,0.0,7.6015,7.6015,7.6015,7.6015,7.6015,7.6015,7.6015,0.0,0.0,0.0,0.0,0.0,7.297,0.0,0.0,0.0,0.0,0.0,7.2642,0.0,7.3634,7.3891,7.4368,7.5799,7.6166,7.646,7.7163,7.7273,7.7273,7.7273,7.7273,7.7273,7.7273,7.7273,7.7273,7.7273,7.7273,7.7273,7.7273,7.7273,7.7604,7.8405,7.8626,7.9396,8.0938,8.1746,8.2186,8.2186,8.2186,8.2186,8.2186,8.2186,8.2186,8.2186,8.2186,8.2186,8.2186,8.2186,8.2186,8.2223,8.2957,8.3324,8.3544,8.5049,8.6151,8.6885,8.6995,8.6995,8.6995,8.6995,8.6995,8.6995,0.0,0.0,6.8984,6.8906,6.9062,6.918,6.9258,6.9243,6.9486,7.0189,7.0841,7.124,0.0,0.0,0.0,0.0,7.2796,7.3121,7.3112,7.3099,7.3073,7.3014,7.3014,7.3091,7.3245,7.3245,7.3322,7.3514,7.3514,7.3808,7.4476,7.4476,7.4938,7.5745,7.5745,7.5822,7.6015,7.6015,7.5899,7.5745,7.5938,7.6015,7.6015,7.6015,7.6015,7.6015,7.6015,7.6015,7.6015,7.6015,7.6015,7.5902,0.0,0.0,0.0,0.0,0.0,0.0,0.0,0.0,0.0,0.0,0.0,0.0,7.4478,7.5175,7.5726,7.6056,7.6644,7.709,7.7273,7.7273,7.7273,7.7273,7.7273,7.7273,7.7273,7.7273,7.7273,7.7273,7.7273,7.7273,7.7273,7.7273,7.7347,7.7561,7.8809,7.9984,8.0938,8.1746,8.2186,8.2186,8.2186,8.2186,8.2186,8.2186,8.2186,8.2186,8.2186,8.2186,8.2186,8.2186,8.2186,8.2186,8.237,8.281,8.3471,8.4462,8.5306,8.6077,8.6738,8.6995,8.6995,8.6995,8.6995,8.6995,0.0,0.0,6.9492,6.9453,6.9765,7.0078,7.0078,7.0384,7.0764,7.1194,7.1792,7.2378,0.0,0.0,0.0,0.0,0.0,0.0,0.0,7.3613,7.3575,7.3514,7.3514,7.3707,7.4091,7.4091,7.4322,7.4745,7.4745,7.4938,7.5361,7.5361,7.5592,7.6015,7.6015,7.6015,7.6015,7.6015,7.6015,7.6015,7.6015,7.6015,7.6015,7.6015,7.6015,7.6015,7.6015,7.6015,7.6015,7.6015,7.6015,0.0,0.0,7.4961,7.4228,0.0,7.3224,7.2606,0.0,0.0,0.0,7.4111,0.0,0.0,0.0,7.5799,7.6203,7.6644,7.7047,7.7273,7.7273,7.7273,7.7273,7.7273,7.7273,7.7273,7.7273,7.7273,7.7273,7.7273,7.7273,7.7273,7.7273,7.7273,7.7457,7.7928,7.947,8.0571,8.0975,8.1746,8.2186,8.2186,8.2186,8.2186,8.2186,8.2186,8.2186,8.2186,8.2186,8.2186,8.2186,8.2186,8.2186,8.2186,8.2186,8.2443,8.2847,8.3691,8.4499,8.5306,8.6554,8.6995,8.6995,8.6995,8.6995,8.6995,6.9646,0.0,6.9959,6.9961,7.0508,7.1015,7.1172,7.1757,7.2222,7.2373,7.2662,7.3121,0.0,0.0,0.0,0.0,0.0,0.0,0.0,0.0,7.4113,7.399,7.3976,7.4284,7.4938,7.4938,7.5284,7.6015,7.6015,7.6015,7.6015,7.6015,7.6015,7.6015,7.6015,7.6015,7.6015,7.6015,7.6015,7.6015,7.6015,7.6015,7.6015,7.6015,7.6015,7.6015,7.6015,7.6015,7.6015,7.6015,7.6015,7.5947,7.5756,7.5037,0.0,0.0,0.0,0.0,0.0,0.0,0.0,0.0,0.0,7.5359,0.0,0.0,0.0,7.7163,7.7273,7.7273,7.7273,7.7273,7.7237,7.709,7.72,7.7237,7.709,7.72,7.7273,7.7273,7.7273,7.7273,7.7273,7.742,7.7928,7.8772,8.0167,8.1012,8.1012,8.1746,8.2186,8.2186,8.2186,8.2186,8.2186,8.2186,8.2186,8.2186,8.2186,8.2186,8.2186,8.2186,8.2186,8.2186,8.2186,8.2186,8.226,8.3067,8.3801,8.4535,8.6151,8.6885,8.6995,8.6995,8.6995,8.6995,7.0545,7.0964,0.0,7.1679,7.1797,7.2109,7.289,7.2951,7.308,7.3703,7.3678,7.3695,0.0,0.0,0.0,0.0,0.0,0.0,7.5754,0.0,0.0,7.5707,7.5707,7.5745,7.5861,7.5861,7.5899,7.6015,7.6015,7.6015,7.6015,7.6015,7.6015,7.6015,7.6015,7.6015,7.6015,7.6015,7.6015,7.6015,7.6015,7.6015,7.6015,7.6015,7.6015,7.6015,7.6015,7.6015,7.6015,0.0,7.6015,7.5818,0.0,7.4401,7.4245,0.0,0.0,0.0,0.0,0.0,0.0,0.0,7.5946,0.0,0.0,0.0,7.7163,7.7273,0.0,7.7273,7.7273,0.0,0.0,7.635,7.6827,7.7053,7.635,7.6864,7.7273,7.7273,7.7273,7.7273,7.7273,7.8002,7.8772,7.958,8.0498,8.1012,8.1012,8.1746,8.2186,8.2186,8.2186,8.2186,8.2186,8.2186,8.2186,8.2186,8.2186,8.2186,8.2186,8.2186,8.2186,8.2186,8.2186,8.2186,8.226,8.3067,8.3471,8.3728,8.5306,8.6371,8.6995,8.6995,8.6995,8.6995,0.0,7.2411,0.0,0.0,7.3391,7.3451,7.3803,7.3692,7.3853,7.4637,7.4586,7.47,0.0,0.0,0.0,0.0,0.0,7.6106,0.0,0.0,0.0,0.0,7.6015,7.6015,7.6015,7.6015,7.6015,7.6015,7.6015,7.6015,7.6015,7.6015,7.6015,7.6015,7.6015,7.6015,7.6015,7.6015,7.6015,7.6015,7.6015,7.6015,7.6015,7.6015,7.6015,7.6015,7.6015,7.6015,7.6092,0.0,7.6501,0.0,0.0,0.0,0.0,0.0,0.0,0.0,0.0,0.0,0.0,0.0,0.0,0.0,7.72,0.0,7.7273,0.0,0.0,0.0,0.0,0.0,0.0,0.0,7.7053,7.7163,7.6864,7.709,7.7273,7.7273,7.7273,7.7494,7.8002,7.925,8.0131,8.0461,8.1232,8.1709,8.1709,8.2003,8.2186,8.2186,8.2186,8.2186,8.2186,8.2186,8.2186,8.2186,8.2186,8.2186,8.2186,8.2186,8.2186,8.2186,8.2186,8.2186,8.226,8.3067,8.3691,8.4205,8.5343,8.6004,8.6371,8.6848,8.6995,8.6995,0.0,0.0,0.0,0.0,7.4363,7.4294,7.4524,7.4625,7.4847,7.5478,7.5408,0.0,7.6157,7.6093,0.0,0.0,7.6015,7.6015,0.0,0.0,7.6015,0.0,0.0,0.0,0.0,7.6015,7.6015,7.6015,7.6015,7.6015,7.6015,7.6015,7.6015,7.6015,7.6015,7.6015,7.6015,7.6015,7.6015,7.6015,7.6245,7.6476,7.663,7.6169,7.613,7.6361,7.6361,7.6515,7.6769,7.7223,7.7075,0.0,7.7007,0.0,0.0,0.0,0.0,0.0,7.6203,0.0,0.0,0.0,0.0,0.0,0.0,0.0,0.0,0.0,0.0,0.0,0.0,0.0,7.7237,0.0,0.0,7.72,7.698,7.7163,7.7273,7.7273,7.7494,7.8075,7.914,8.0314,8.1085,8.1305,8.1856,8.2186,8.2186,8.2186,8.2186,8.2186,8.2186,8.2186,8.2186,8.2186,8.2186,8.2186,8.2186,8.2186,8.2186,8.2186,8.2186,8.2223,8.2443,8.2517,8.259,8.3398,8.4058,8.4682,8.549,8.5783,8.5894,8.6701,8.6995,8.6995,7.5072,7.4573,0.0,0.0,7.4121,7.4279,7.5142,7.5817,7.6228,7.6267,0.0,0.0,0.0,0.0,0.0,0.0,0.0,7.6015,7.6015,0.0,7.6015,0.0,0.0,7.6015,0.0,0.0,7.6015,7.6015,7.6015,7.6015,7.6015,7.6015,7.6015,7.6015,7.6015,7.6015,7.6015,7.6015,7.6015,7.6053,7.6899,7.7707,7.8246,7.663,7.6515,7.7246,7.7246,7.7746,7.8339,7.7773,7.757,0.0,0.0,0.0,0.0,0.0,0.0,0.0,0.0,0.0,0.0,7.7273,0.0,0.0,0.0,0.0,7.7273,0.0,0.0,0.0,0.0,0.0,0.0,0.0,0.0,0.0,0.0,7.6827,7.7273,7.7273,7.8038,7.9176,8.0791,8.0975,8.1342,8.2113,8.2186,8.2186,8.2186,8.2186,8.2186,8.2186,8.2186,8.2186,8.2186,8.2186,8.2186,8.2186,8.2186,8.2186,8.2186,8.2186,8.2186,8.2223,8.303,8.3361,8.3434,8.4242,8.4572,8.4682,8.549,8.5783,8.5894,8.6701,8.6995,8.6995,0.0,0.0,0.0,0.0,7.5657,7.5594,7.5743,7.5967,7.6095,0.0,7.6048,0.0,0.0,7.6015,7.6015,0.0,0.0,7.6015,7.6015,7.6015,0.0,0.0,0.0,7.6015,0.0,0.0,0.0,0.0,7.6015,7.6015,7.6015,7.6015,7.6015,7.6015,7.6592,7.6861,7.6899,7.7438,7.763,7.7669,7.7977,7.8246,7.8438,7.7861,7.7823,7.8092,7.8092,7.8246,7.8492,7.8461,7.8154,7.7748,7.7553,7.7135,7.6825,7.6851,7.69,7.6943,0.0,0.0,7.7273,7.7273,0.0,0.0,0.0,0.0,0.0,0.0,0.0,0.0,0.0,0.0,0.0,0.0,0.0,0.0,0.0,7.8772,7.914,7.969,8.0021,8.0388,8.0938,8.1489,8.1893,8.2186,8.2186,8.2186,8.2186,8.2186,8.2186,8.2186,8.2186,8.2186,8.2186,8.2186,8.2186,8.2186,8.2186,8.2186,8.2223,8.2737,8.2994,8.303,8.3838,8.4205,8.4278,8.5049,8.538,8.5453,8.6297,8.6591,8.6628,8.6921,8.6995,8.6995,7.6381,0.0,0.0,7.6466,7.6338,7.6135,7.602,7.6015,7.6015,0.0,7.6015,0.0,7.6015,0.0,7.6015,0.0,7.6015,7.6015,7.6015,7.6015,0.0,7.6015,7.6015,0.0,0.0,0.0,0.0,0.0,7.6476,7.6592,7.6899,7.6899,7.6899,7.6899,7.7476,7.7707,7.7746,7.8284,7.8477,7.8515,7.8823,7.9131,7.9385,7.9149,7.9006,7.8923,7.8727,7.8832,7.9037,7.8756,7.8383,7.8041,7.7997,7.7622,7.7273,7.7273,7.7273,7.7273,7.7273,7.7273,0.0,7.7273,7.7273,0.0,7.7708,0.0,7.7855,0.0,0.0,0.0,0.0,0.0,0.0,0.0,0.0,0.0,0.0,8.0021,8.0424,8.0938,8.1012,8.1122,8.1415,8.1893,8.2186,8.2186,8.2186,8.2186,8.2186,8.2186,8.2186,8.2186,8.2186,8.2186,8.2186,8.2186,8.2186,8.2186,8.248,8.2627,8.2663,8.3471,8.3838,8.3875,8.4682,8.5013,8.5086,8.5894,8.6224,8.6261,8.6811,8.6995,8.6995,8.6995,8.6995,8.6995,7.6015,7.6015,7.6052,7.6254,7.6134,7.6015,7.6015,7.6015,7.6015,0.0,7.6015,7.6015,7.6015,7.6015,7.6015,7.6015,7.6015,7.6015,7.6015,7.6053,0.0,0.0,7.6092,7.613,7.613,0.0,0.0,0.0,0.0,7.7746,7.8477,7.8477,7.8477,7.8477,7.8554,7.8554,7.8554,7.8592,7.8646,7.8707,7.9485,8.0331,8.0975,8.0315,7.9948,7.9697,7.9112,7.94,7.9888,7.8678,7.8309,7.8173,7.751,7.7273,7.7273,7.7273,7.731,7.7347,7.7347,7.7384,7.742,7.742,7.742,0.0,0.0,0.0,7.8883,0.0,0.0,0.0,0.0,0.0,0.0,0.0,0.0,0.0,0.0,8.0571,8.1048,8.1048,8.1048,8.1379,8.2113,8.2186,8.2186,8.2186,8.2186,8.2186,8.2186,8.2186,8.2186,8.2186,8.2186,8.2186,8.2186,8.2223,8.226,8.226,8.3067,8.3471,8.3508,8.4278,8.4646,8.4682,8.549,8.5857,8.593,8.6701,8.6995,8.6995,8.6995,8.6995,8.6995,8.6995,8.6995,8.6995,7.6015,7.6015,7.6005,7.6066,7.6048,7.6015,7.6015,7.6015,0.0,0.0,7.6015,7.6015,7.6015,7.6015,7.6015,7.6015,7.6015,0.0,0.0,0.0,0.0,7.6976,7.7553,7.7861,7.7861,7.7861,0.0,7.8169,0.0,7.8284,7.8477,7.8477,7.8477,7.8515,7.9169,7.9477,7.9515,8.0169,8.0439,8.0407,8.0113,8.0161,8.0296,7.9642,7.9421,7.9339,7.9188,7.9236,7.9313,7.8562,7.8309,7.8173,7.751,7.7273,7.7273,7.7273,7.7781,7.8259,7.8259,7.8699,7.914,7.914,7.914,7.9213,0.0,0.0,0.0,0.0,0.0,0.0,0.0,0.0,0.0,0.0,0.0,0.0,0.0,0.0,8.1893,8.1893,8.1893,8.1966,8.2186,8.2186,8.2186,8.2186,8.2186,8.2186,8.2186,8.2186,8.2186,8.2186,8.2186,8.2186,8.2186,8.281,8.3104,8.3104,8.3911,8.4278,8.4315,8.5123,8.549,8.5527,8.6334,8.6701,8.6701,8.6921,8.6995,8.6995,8.6995,8.6995,8.6995,8.6995,8.6995,8.6995,7.6015,7.6015,7.6015,7.6015,7.6015,7.6015,7.6015,7.6015,0.0,7.6515,7.6245,0.0,7.6515,7.6553,7.6553,7.6553,7.6899,0.0,7.7092,0.0,0.0,7.7823,7.8246,7.8477,7.8477,7.8477,0.0,7.9054,0.0,7.9246,7.9631,7.9631,7.9631,7.9669,8.0169,8.0362,8.04,8.09,8.0943,8.0626,8.0239,7.9949,0.0,7.9034,7.8991,7.9304,7.9033,7.8887,7.8704,7.8063,7.8105,7.838,7.7978,7.8112,7.8405,7.8405,7.8736,7.9103,7.9103,7.9433,7.98,7.98,7.98,7.9874,8.0241,8.0314,8.0424,0.0,8.0828,8.0828,0.0,0.0,0.0,0.0,0.0,0.0,0.0,0.0,8.2186,8.2186,8.2186,8.2186,8.2186,8.2186,8.2186,8.2186,8.2186,8.2186,8.2186,8.2186,8.2186,8.2186,8.2186,8.237,8.2737,8.3177,8.3581,8.3948,8.4756,8.5123,8.5159,8.5967,8.6334,8.6334,8.6811,8.6995,8.6995,8.6995,8.6995,8.6995,8.6995,8.6995,8.6995,8.6995,8.6995,8.6995,7.6015,7.6092,7.6169,7.6169,7.6245,7.6322,7.6322,7.6245,7.6438,7.7207,0.0,7.663,7.7361,7.7438,7.7438,7.7438,0.0,7.8477,7.8477,7.8592,7.8669,7.8669,7.8784,7.8823,7.8823,7.8823,0.0,0.0,0.0,8.0362,8.1093,8.1093,8.1093,8.1093,8.1093,8.1061,8.0975,8.0975,8.0667,8.0121,8.004,7.9762,7.9349,7.8741,7.8926,7.9474,7.8946,7.864,7.8397,7.7811,7.8148,7.8772,7.8772,7.9213,7.98,7.98,7.9874,7.9947,7.9947,8.0021,8.0094,8.0094,8.0094,8.0277,8.1012,8.1158,8.1379,8.2039,8.2186,8.2186,8.2186,0.0,0.0,0.0,0.0,0.0,0.0,0.0,0.0,0.0,8.2186,0.0,8.2186,8.2186,8.2186,8.2186,8.2186,8.2186,8.2186,8.2186,8.226,8.2333,8.237,8.2737,8.3581,8.3654,8.4058,8.4756,8.5563,8.5967,8.5967,8.6701,8.6995,8.6995,8.6995,8.6995,8.6995,8.6995,8.6995,8.6995,8.6995,8.6995,8.6995,8.6995,8.6995,8.6995,7.6015,7.6592,7.7053,7.7053,7.763,7.8054,7.8054,7.7476,7.713,7.7284,7.7746,7.813,7.8246,7.8299,7.8299,7.8299,7.84,0.0,0.0,0.0,0.0,7.9592,8.0246,8.0631,8.0631,8.0631,8.0708,0.0,0.0,8.0939,8.1093,8.1093,8.1093,8.1093,8.1093,8.0783,8.0296,8.0296,8.0327,8.031,7.9817,7.9919,8.0366,7.9771,7.9615,7.9725,7.9643,7.9564,7.951,7.9423,7.9433,7.958,7.958,7.969,7.98,7.98,8.0277,8.0791,8.0791,8.1269,8.1782,8.1782,8.1782,8.1819,8.1966,8.2003,8.2039,8.215,8.2186,8.2186,8.2186,0.0,0.0,0.0,0.0,0.0,0.0,0.0,0.0,0.0,0.0,8.2186,8.2186,8.2186,8.2186,8.2186,8.2186,8.2186,8.2186,8.2186,8.2517,8.3177,8.3214,8.3581,8.4389,8.5049,8.5453,8.56,8.6407,8.6811,8.6811,8.6958,8.6995,8.6995,8.6995,8.6995,8.6995,8.6995,8.6995,8.6995,8.6995,8.6995,8.6995,8.6995,8.6995,8.6995,7.7284,7.763,7.79,7.79,7.8246,7.8477,7.8477,7.8554,7.8592,7.8592,7.8554,7.8669,7.9131,7.9169,7.9169,7.9169,7.9592,7.9862,7.9862,8.0246,8.0477,8.0477,8.09,0.0,8.1093,8.1093,8.1093,8.1093,0.0,8.1093,8.1093,8.1093,8.1093,8.1077,8.1193,8.1288,8.1382,8.1018,8.0754,8.0526,8.0244,8.018,8.0177,7.9921,8.0057,8.0424,8.0424,8.0681,8.0901,8.0057,8.0057,8.0424,8.0424,8.0718,8.1048,8.1048,8.1305,8.1636,8.1636,8.1893,8.2186,8.2186,8.2186,8.2186,8.2186,8.2186,8.2186,8.2186,8.2186,8.2186,8.2186,8.2186,0.0,0.0,0.0,0.0,0.0,0.0,0.0,0.0,0.0,0.0,8.2186,8.2186,8.2186,8.2186,8.2186,8.237,8.281,8.281,8.3214,8.4022,8.4022,8.4425,8.5196,8.56,8.6004,8.6444,8.6811,8.6995,8.6995,8.6995,8.6995,8.6995,8.6995,8.6995,8.6995,8.6995,8.6995,8.6995,8.6995,8.6995,8.6995,8.6995,8.6995,8.6995,7.8477,7.8631,7.8784,7.8784,7.8938,7.9054,7.9054,7.9631,8.0015,7.9823,7.9361,7.9323,8.0015,8.0092,8.0092,8.0092,8.0708,8.1093,8.1093,8.1093,8.1093,8.1093,8.1093,8.1093,8.1093,8.1093,8.1093,0.0,0.0,8.117,8.0823,8.1362,8.1545,8.1431,8.1538,8.1794,8.2147,8.1627,8.1147,8.0745,8.0745,8.0577,8.0314,8.0314,8.0681,8.1269,8.1269,8.1672,8.2003,8.0718,8.0718,8.1269,8.1269,8.1672,8.2186,8.2186,8.2186,8.2186,8.2186,8.2186,8.2186,8.2186,8.2186,8.2186,8.2186,8.2186,8.2186,8.2186,8.2186,8.2186,8.2186,8.2186,0.0,0.0,0.0,0.0,0.0,0.0,0.0,0.0,0.0,0.0,8.2443,8.2443,8.2517,8.27,8.2553,8.2737,8.3398,8.3581,8.4022,8.4829,8.4866,8.5233,8.604,8.604,8.6371,8.6995,8.6995,8.6995,8.6995,8.6995,8.6995,8.6995,8.6995,8.6995,8.6995,8.6995,8.6995,8.6995,8.6995,8.6995,8.6995,8.6995,8.6995,8.6995,7.8477,7.9131,7.9669,7.9669,8.0323,8.0862,8.0862,8.0939,8.0708,7.99,8.0439,8.09,8.0977,8.0977,8.0977,8.0977,8.1054,8.1093,8.1093,8.1093,8.1093,8.1093,8.1093,8.1093,8.1093,8.1093,8.1093,0.0,0.0,8.14,7.9977,8.2285,8.303,8.2472,8.2451,8.1892,8.0858,8.0813,8.0881,8.0961,8.0961,8.137,8.1966,8.1966,8.2003,8.2076,8.2076,8.215,8.2186,8.2039,8.2039,8.2076,8.2076,8.215,8.2186,8.2186,8.2186,8.2186,8.2186,8.2186,8.2186,8.2186,8.2186,8.2186,8.2186,8.2186,8.2186,8.2186,8.2186,8.2186,8.2186,8.2186,8.2186,0.0,0.0,0.0,0.0,0.0,0.0,0.0,0.0,0.0,8.3214,8.3287,8.3581,8.4315,8.3691,8.3324,8.3398,8.4095,8.4866,8.5637,8.5673,8.6077,8.6885,8.6885,8.6921,8.6995,8.6995,8.6995,8.6995,8.6995,8.6995,8.6995,8.6995,8.6995,8.6995,8.6995,8.6995,8.6995,8.6995,8.6995,8.6995,8.6995,8.6995,8.6995,8.0054,8.0323,8.0592,8.0592,8.0862,8.1093,8.1093,8.1093,8.0977,8.0631,8.09,8.1093,8.1093,8.1093,8.1093,8.1093,8.1093,8.1093,8.1093,8.1093,8.1093,8.1093,8.1554,8.1823,8.1823,8.2324,8.2593,0.0,0.0,0.0,8.2093,8.2692,8.2929,8.2771,8.2357,8.2215,8.2164,8.177,8.1629,8.1709,8.1709,8.1893,8.2186,8.2186,8.2186,8.2186,8.2186,8.2186,8.2186,8.2186,8.2186,8.2186,8.2186,8.2186,8.2186,8.2186,8.2186,8.2186,8.2186,8.2186,8.2186,8.2186,8.2186,8.2186,8.2186,8.2186,8.2186,8.2186,8.2186,8.2186,8.2186,8.2186,8.2186,8.2186,0.0,0.0,0.0,0.0,0.0,0.0,0.0,0.0,8.4095,8.4132,8.4242,8.4572,8.4315,8.4352,8.4792,8.5159,8.5673,8.6481,8.6518,8.6664,8.6995,8.6995,8.6995,8.6995,8.6995,8.6995,8.6995,8.6995,8.6995,8.6995,8.6995,8.6995,8.6995,8.6995,8.6995,8.6995,8.6995,8.6995,8.6995,8.6995,8.6995,8.6995,8.1093,8.1093,8.1093,8.1093,8.1093,8.1093,8.1093,8.1093,8.1093,8.1093,8.1093,8.1093,8.1093,8.1093,8.1093,8.1093,8.1323,8.1439,8.1439,8.1708,8.1823,8.1823,8.2362,0.0,8.267,8.3285,8.3593,8.3593,8.3862,0.0,8.2932,8.2489,8.2559,8.2986,8.2491,8.2524,8.2846,8.2407,8.2186,8.2186,8.2186,8.2186,8.2186,8.2186,8.2186,8.2186,8.2186,8.2186,8.2186,8.2186,8.2186,8.2186,8.2186,8.2186,8.2186,8.2186,8.2186,8.2186,8.2186,8.2186,8.2186,8.2186,8.2186,8.2186,8.2186,8.2186,8.226,8.2517,8.2553,8.2627,8.2847,8.292,8.292,8.292,0.0,0.0,0.0,8.4242,0.0,0.0,8.4609,8.4682,8.4939,8.4939,8.5049,8.5306,8.5306,8.5453,8.5783,8.6004,8.6407,8.6995,8.6995,8.6995,8.6995,8.6995,8.6995,8.6995,8.6995,8.6995,8.6995,8.6995,8.6995,8.6995,8.6995,8.6995,8.6995,8.6995,8.6995,8.6995,8.6995,8.6995,8.6995,8.6995,8.6995,8.6995,8.1093,8.1093,8.1093,8.1093,8.1093,8.1093,8.1093,8.1093,8.1093,8.1093,8.1093,8.1093,8.1093,8.1093,8.1093,8.1093,8.1823,8.2285,8.2285,8.3093,8.3555,0.0,0.0,8.3555,8.3555,8.3593,8.3593,8.3593,0.0,0.0,8.1344,8.1529,8.2158,8.3218,8.3189,8.2853,8.2219,8.2186,8.2186,8.2186,8.2186,8.2186,8.2186,8.2186,8.2186,8.2186,8.2186,8.2186,8.2186,8.2186,8.2186,8.2186,8.2186,8.2186,8.2186,8.2186,8.2186,8.2186,8.2186,8.2186,8.2186,8.2186,8.2186,8.2186,8.2186,8.2186,8.2443,8.3251,8.3398,8.3654,8.4425,8.4572,8.4572,8.4572,0.0,0.0,0.0,0.0,0.0,8.4609,8.4609,8.4903,8.571,8.5783,8.6114,8.6921,8.6995,8.6628,8.582,8.6554,8.6995,8.6995,8.6995,8.6995,8.6995,8.6995,8.6995,8.6995,8.6995,8.6995,8.6995,8.6995,8.6995,8.6995,8.6995,8.6995,8.6995,8.6995,8.6995,8.6995,8.6995,8.6995,8.6995,8.6995,8.6995,8.6995,8.1093,8.1093,8.1093,8.1093,8.1093,8.1093,8.1093,8.1093,8.1285,8.1862,8.19,8.2131,8.2747,8.2285,8.217,8.2747,8.3016,8.317,8.317,8.3439,8.3593,8.3593,8.417,8.4478,8.4478,8.5016,8.5096,8.4595,8.4901,8.4203,8.2608,8.2661,8.2648,8.2528,8.2528,8.2407,8.2186,8.2186,8.2186,8.2186,8.2186,8.2186,8.2186,8.2186,8.2186,8.2186,8.2186,8.2186,8.2186,8.2186,8.2553,8.303,8.303,8.2627,8.2186,8.2186,8.2186,8.2186,8.2186,8.2186,8.2333,8.2884,8.303,8.3177,8.3728,8.3838,8.3911,8.4168,8.4242,8.4315,8.4535,8.4609,8.4609,8.4609,8.5049,0.0,8.5416,0.0,8.6261,8.6261,8.6261,8.6334,8.6591,8.6628,8.6738,8.6995,8.6995,8.6885,8.6628,8.6885,8.6995,8.6995,8.6995,8.6995,8.6995,8.6995,8.6995,8.6995,8.6995,8.6995,8.6995,8.6995,8.6995,8.6995,8.6995,8.6995,8.6995,8.6995,8.6995,8.6995,8.6995,8.6995,8.6995,8.6995,8.6995,8.6995,8.1093,8.1093,8.1093,8.1093,8.1093,8.1208,8.1516,8.1554,8.1862,8.267,8.2785,8.3131,8.3978,8.3593,8.3362,8.3555,8.3901,8.4093,8.4093,8.4362,8.4555,8.4555,8.5055,8.5363,8.5363,8.5863,8.5793,8.5121,8.4613,8.3966,8.3189,8.2935,8.2585,8.2186,8.2186,8.2186,8.2186,8.2186,8.2186,8.2186,8.2186,8.2186,8.2223,8.2553,8.2663,8.27,8.2994,8.3104,8.3104,8.3104,8.3434,8.3875,8.3875,8.3508,8.3104,8.3104,8.3104,8.3104,8.3104,8.3104,8.3214,8.3728,8.3875,8.3985,8.4499,8.4609,8.4682,8.4976,8.5049,8.5123,8.5453,8.549,8.549,8.549,8.593,8.6261,8.6261,0.0,8.6995,0.0,0.0,8.6995,8.6995,8.6995,8.6995,8.6995,8.6995,8.6995,8.6995,8.6995,8.6995,8.6995,8.6995,8.6995,8.6995,8.6995,8.6995,8.6995,8.6995,8.6995,8.6995,8.6995,8.6995,8.6995,8.6995,8.6995,8.6995,8.6995,8.6995,8.6995,8.6995,8.6995,8.6995,8.6995,8.6995,8.6995,8.1093,8.1093,8.1093,8.1093,8.1131,8.1439,8.217,8.2362,8.2708,8.3555,8.367,8.4016,8.4901,8.4978,8.467,8.3824,8.4516,8.4978,8.4978,8.567,8.6094,8.6094,8.6094,8.6094,8.6094,8.6094,8.5737,8.5058,8.3772,8.3132,8.3103,8.2497,8.2186,8.2186,8.2186,8.2186,8.2186,8.2186,8.2223,8.226,8.226,8.2333,8.2443,8.3214,8.3508,8.3581,8.4352,8.4609,8.4609,8.4609,8.4646,8.4682,8.4682,8.4719,8.4756,8.4646,8.4609,8.4609,8.4609,8.4609,8.4609,8.4682,8.4719,8.4756,8.4756,8.4756,8.4976,8.571,8.5857,8.6114,8.6885,8.6995,8.6995,8.6995,8.6995,8.6995,8.6995,8.6995,8.6995,8.6995,8.6995,8.6995,8.6995,8.6995,8.6995,8.6995,8.6995,8.6995,8.6995,8.6995,8.6995,8.6995,8.6995,8.6995,8.6995,8.6995,8.6995,8.6995,8.6995,8.6995,8.6995,8.6995,8.6995,8.6995,8.6995,8.6995,8.6995,8.6995,8.6995,8.6995,8.6995,8.6995,8.6995,8.6995,8.6995,8.6995,8.1093,8.1093,8.1093,8.1093,8.1593,8.2093,8.2285,8.2862,8.3593,8.4478,8.4593,8.4901,8.5747,8.5824,8.5747,8.5517,8.5709,8.5824,8.5824,8.5978,8.6094,8.6094,8.6094,8.6094,8.6094,8.6094,8.5571,8.4396,8.3111,8.2434,8.2402,8.2284,8.2186,8.2186,8.2186,8.2186,8.2186,8.2186,8.2553,8.3141,8.3141,8.3471,8.4058,8.4242,8.4315,8.4352,8.4535,8.4609,8.4609,8.4609,8.5013,8.5527,8.5527,8.593,8.6187,8.4976,8.4609,8.4609,8.4609,8.4609,8.4756,8.5343,8.5967,8.6444,8.6444,8.6444,8.6481,8.6701,8.6738,8.6775,8.6958,8.6995,8.6995,8.6995,8.6995,8.6995,8.6995,8.6995,8.6995,8.6995,8.6995,8.6995,8.6995,8.6995,8.6995,8.6995,8.6995,8.6995,8.6995,8.6995,8.6995,8.6995,8.6995,8.6995,8.6995,8.6995,8.6995,8.6995,8.6995,8.6995,8.6995,8.6995,8.6995,8.6995,8.6995,8.6995,8.6995,8.6995,8.6995,8.6995,8.6995,8.6995,8.6995,8.6995,8.6995,8.6995,8.1093,8.14,8.1631,8.1631,8.2324,8.3016,8.3439,8.3901,8.4516,8.5363,8.544,8.5632,8.6055,8.6094,8.6094,8.6094,8.6094,8.6094,8.6094,8.6094,8.6094,8.6094,8.6094,8.6094,8.6094,8.5811,8.5016,8.3757,8.2708,8.2186,8.2186,8.2186,8.2406,8.2737,8.2737,8.2957,8.3287,8.3287,8.3544,8.3948,8.3948,8.4205,8.4646,8.5013,8.5159,8.5196,8.5563,8.571,8.571,8.571,8.6004,8.6334,8.6334,8.6664,8.6848,8.5967,8.571,8.571,8.571,8.571,8.582,8.6224,8.6701,8.6995,8.6995,8.6995,8.6995,8.6995,8.6995,8.6995,8.6995,8.6995,8.6995,8.6995,8.6995,8.6995,8.6995,8.6995,8.6995,8.6995,8.6995,8.6995,8.6995,8.6995,8.6995,8.6995,8.6995,8.6995,8.6995,8.6995,8.6995,8.6995,8.6995,8.6995,8.6995,8.6995,8.6995,8.6995,8.6995,8.6995,8.6995,8.6995,8.6995,8.6995,8.6995,8.6995,8.6995,8.6995,8.6995,8.6995,8.6995,8.6995,8.6995,8.6995,8.6995,8.6995,8.1285,8.1939,8.2516,8.2516,8.3208,8.4055,8.4786,8.5016,8.5324,8.6017,8.6094,8.6094,8.6094,8.6094,8.6094,8.6094,8.6094,8.6094,8.6094,8.6094,8.6094,8.6094,8.6094,8.606,8.5954,8.5182,8.4287,8.3189,8.2639,8.237,8.237,8.2517,8.292,8.3581,8.3581,8.3985,8.4609,8.4609,8.4682,8.4792,8.4792,8.4866,8.5049,8.571,8.5967,8.6077,8.6775,8.6995,8.6995,8.6995,8.6995,8.6995,8.6995,8.6995,8.6995,8.6995,8.6995,8.6995,8.6995,8.6995,8.6995,8.6995,8.6995,8.6995,8.6995,8.6995,8.6995,8.6995,8.6995,8.6995,8.6995,8.6995,8.6995,8.6995,8.6995,8.6995,8.6995,8.6995,8.6995,8.6995,8.6995,8.6995,8.6995,8.6995,8.6995,8.6995,8.6995,8.6995,8.6995,8.6995,8.6995,8.6995,8.6995,8.6995,8.6995,8.6995,8.6995,8.6995,8.6995,8.6995,8.6995,8.6995,8.6995,8.6995,8.6995,8.6995,8.6995,8.6995,8.6995,8.6995,8.6995,8.6995,8.6995,8.6995,8.6995,8.6995,8.2093,8.2824,8.3401,8.3401,8.4132,8.4747,8.4901,8.5478,8.5978,8.6094,8.6094,8.6094,8.6094,8.6094,8.6094,8.6094,8.6094,8.6094,8.6094,8.6094,8.6094,8.6094,8.6094,8.5828,8.528,8.4092,8.3405,8.3189,8.3229,8.3214,8.3251,8.3911,8.4278,8.4425,8.4425,8.4499,8.4609,8.4609,8.4976,8.56,8.56,8.6004,8.6664,8.6775,8.6811,8.6848,8.6958,8.6995,8.6995,8.6995,8.6995,8.6995,8.6995,8.6995,8.6995,8.6995,8.6995,8.6995,8.6995,8.6995,8.6995,8.6995,8.6995,8.6995,8.6995,8.6995,8.6995,8.6995,8.6995,8.6995,8.6995,8.6995,8.6995,8.6995,8.6995,8.6995,8.6995,8.6995,8.6995,8.6995,8.6995,8.6995,8.6995,8.6995,8.6995,8.6995,8.6995,8.6995,8.6995,8.6995,8.6995,8.6995,8.6995,8.6995,8.6995,8.6995,8.6995,8.6995,8.6995,8.6995,8.6995,8.6995,8.6995,8.6995,8.6995,8.6995,8.6995,8.6995,8.6995,8.6995,8.6995,8.6995,8.6995,8.6995,8.6995,8.6995,8.2978,8.3708,8.4286,8.4286,8.4978,8.5555,8.5555,8.5863,8.6094,8.6094,8.6094,8.6094,8.6094,8.6094,8.6094,8.6094,8.6094,8.6094,8.6094,8.6094,8.6094,8.6094,8.5737,8.5291,8.4745,8.4161,8.3878,8.394,8.4036,8.4058,8.4058,8.4425,8.4829,8.5233,8.5233,8.549,8.5894,8.5894,8.6114,8.6444,8.6444,8.6664,8.6995,8.6995,8.6995,8.6995,8.6995,8.6995,8.6995,8.6995,8.6995,8.6995,8.6995,8.6995,8.6995,8.6995,8.6995,8.6995,8.6995,8.6995,8.6995,8.6995,8.6995,8.6995,8.6995,8.6995,8.6995,8.6995,8.6995,8.6995,8.6995,8.6995,8.6995,8.6995,8.6995,8.6995,8.6995,8.6995,8.6995,8.6995,8.6995,8.6995,8.6995,8.6995,8.6995,8.6995,8.6995,8.6995,8.6995,8.6995,8.6995,8.6995,8.6995,8.6995,8.6995,8.6995,8.6995,8.6995,8.6995,8.6995,8.6995,8.6995,8.6995,8.6995,8.6995,8.6995,8.6995,8.6995,8.6995,8.6995,8.6995,8.6995,8.6995,8.6995,8.6995,8.6995,8.3901,8.4593,8.517,8.517,8.5709,8.6094,8.6094,8.6094,8.6094,8.6094,8.6094,8.6094,8.6094,8.6094,8.6094,8.6094,8.5954,8.5864,8.5864,8.5757,8.57,8.5846,8.5291,8.4845,8.4679,8.451,8.4484,8.4609,8.4792,8.4866,8.4866,8.5086,8.549,8.6077,8.6077,8.6407,8.6995,8.6995,8.6995,8.6995,8.6995,8.6995,8.6995,8.6995,8.6995,8.6995,8.6995,8.6995,8.6995,8.6995,8.6995,8.6995,8.6995,8.6995,8.6995,8.6995,8.6995,8.6995,8.6995,8.6995,8.6995,8.6995,8.6995,8.6995,8.6995,8.6995,8.6995,8.6995,8.6995,8.6995,8.6995,8.6995,8.6995,8.6995,8.6995,8.6995,8.6995,8.6995,8.6995,8.6995,8.6995,8.6995,8.6995,8.6995,8.6995,8.6995,8.6995,8.6995,8.6995,8.6995,8.6995,8.6995,8.6995,8.6995,8.6995,8.6995,8.6995,8.6995,8.6995,8.6995,8.6995,8.6995,8.6995,8.6995,8.6995,8.6995,8.6995,8.6995,8.6995,8.6995,8.6995,8.6995,8.6995,8.6995,8.6995,8.6995,8.4786,8.5478,8.6017,8.6017,8.6055,8.6094,8.6094,8.6094,8.6094,8.6094,8.6094,8.6094,8.6094,8.6094,8.6094,8.6094,8.5532,8.5182,8.5182,8.4651,8.4583,8.5162,8.4719,8.4766,8.5507,8.488,8.4602,8.4609,8.5343,8.571,8.571,8.6481,8.6848,8.6921,8.6921,8.6958,8.6995,8.6995,8.6995,8.6995,8.6995,8.6995,8.6995,8.6995,8.6995,8.6995,8.6995,8.6995,8.6995,8.6995,8.6995,8.6995,8.6995,8.6995,8.6995,8.6995,8.6995,8.6995,8.6995,8.6995,8.6995,8.6995,8.6995,8.6995,8.6995,8.6995,8.6995,8.6995,8.6995,8.6995,8.6995,8.6995,8.6995,8.6995,8.6995,8.6995,8.6995,8.6995,8.6995,8.6995,8.6995,8.6995,8.6995,8.6995,8.6995,8.6995,8.6995,8.6995,8.6995,8.6995,8.6995,8.6995,8.6995,8.6995,8.6995,8.6995,8.6995,8.6995,8.6995,8.6995,8.6995,8.6995,8.6995,8.6995,8.6995,8.6995,8.6995,8.6995,8.6995,8.6995,8.6995,8.6995,8.6995,8.6995,8.6995,8.6995,8.5632,8.5901,8.6094,8.6094,8.6094,8.6094,8.6094,8.6094,8.5954,8.5532,8.5495,8.5495,8.5495,8.5159,8.5058,8.5456,8.491,8.4764,8.5233,8.4654,8.4427,8.4654,8.4966,8.5305,8.5729,8.5474,8.56,8.6114,8.6407,8.6554,8.6554,8.6885,8.6995,8.6995,8.6995,8.6995,8.6995,8.6995,8.6995,8.6995,8.6995,8.6995,8.6995,8.6995,8.6995,8.6995,8.6995,8.6995,8.6995,8.6995,8.6995,8.6995,8.6995,8.6995,8.6995,8.6995,8.6995,8.6995,8.6995,8.6995,8.6995,8.6995,8.6995,8.6995,8.6995,8.6995,8.6995,8.6995,8.6995,8.6995,8.6995,8.6995,8.6995,8.6995,8.6995,8.6995,8.6995,8.6995,8.6995,8.6995,8.6995,8.6995,8.6995,8.6995,8.6995,8.6995,8.6995,8.6995,8.6995,8.6995,8.6995,8.6995,8.6995,8.6995,8.6995,8.6995,8.6995,8.6995,8.6995,8.6995,8.6995,8.6995,8.6995,8.6995,8.6995,8.6995,8.6995,8.6995,8.6995,8.6995,8.6995,8.6995,8.6995,8.6995,8.6995,8.6995,8.6094,8.6094,8.6094,8.6094,8.5937,8.5793,8.5793,8.5627,8.532,8.4872,8.4806,8.4806,8.4806,8.4443,8.4372,8.4785,8.4454,8.4527,8.5027,8.4932,8.4849,8.4849,8.5368,8.5826,8.6185,8.6187,8.6444,8.6995,8.6995,8.6995,8.6995,8.6995,8.6995,8.6995,8.6995,8.6995,8.6995,8.6995,8.6995,8.6995,8.6995,8.6995,8.6995,8.6995,8.6995,8.6995,8.6995,8.6995,8.6995,8.6995,8.6995,8.6995,8.6995,8.6995,8.6995,8.6995,8.6995,8.6995,8.6995,8.6995,8.6995,8.6995,8.6995,8.6995,8.6995,8.6995,8.6995,8.6995,8.6995,8.6995,8.6995,8.6995,8.6995,8.6995,8.6995,8.6995,8.6995,8.6995,8.6995,8.6995,8.6995,8.6995,8.6995,8.6995,8.6995,8.6995,8.6995,8.6995,8.6995,8.6995,8.6995,8.6995,8.6995,8.6995,8.6995,8.6995,8.6995,8.6995,8.6995,8.6995,8.6995,8.6995,8.6995,8.6995,8.6995,8.6995,8.6995,8.6995,8.6995,8.6995,8.6995,8.6995,8.6995,8.6995,8.6995,8.6995,8.6094,8.6094,8.6077,8.6077,8.5532,8.51,8.51,8.4583,8.4203,8.4179,8.4179,8.4179,8.4192,8.4216,8.4179,8.4179,8.4319,8.439,8.4427,8.5291,8.5783,8.5783,8.5783,8.6187,8.6995,8.6995,8.6995,8.6995,8.6995,8.6995,8.6995,8.6995,8.6995,8.6995,8.6995,8.6995,8.6995,8.6995,8.6995,8.6995,8.6995,8.6995,8.6995,8.6995,8.6995,8.6995,8.6995,8.6995,8.6995,8.6995,8.6995,8.6995,8.6995,8.6995,8.6995,8.6995,8.6995,8.6995,8.6995,8.6995,8.6995,8.6995,8.6995,8.6995,8.6995,8.6995,8.6995,8.6995,8.6995,8.6995,8.6995,8.6995,8.6995,8.6995,8.6995,8.6995,8.6995,8.6995,8.6995,8.6995,8.6995,8.6995,8.6995,8.6995,8.6995,8.6995,8.6995,8.6995,8.6995,8.6995,8.6995,8.6995,8.6995,8.6995,8.6995,8.6995,8.6995,8.6995,8.6995,8.6995,8.6995,8.6995,8.6995,8.6995,8.6995,8.6995,8.6995,8.6995,8.6995,8.6995,8.6995,8.6995,8.6995,8.6995,8.6995,8.6995,8.6094,8.5719,8.5399,8.5399,8.4872,8.4467,8.4467,8.4325,8.4029,8.357,8.3488,8.3488,8.3488,8.3082,8.3188,8.4255,8.3959,8.4161,8.5337,8.6176,8.6628,8.6628,8.6628,8.6775,8.6995,8.6995,8.6995,8.6995,8.6995,8.6995,8.6995,8.6995,8.6995,8.6995,8.6995,8.6995,8.6995,8.6995,8.6995,8.6995,8.6995,8.6995,8.6995,8.6995,8.6995,8.6995,8.6995,8.6995,8.6995,8.6995,8.6995,8.6995,8.6995,8.6995,8.6995,8.6995,8.6995,8.6995,8.6995,8.6995,8.6995,8.6995,8.6995,8.6995,8.6995,8.6995,8.6995,8.6995,8.6995,8.6995,8.6995,8.6995,8.6995,8.6995,8.6995,8.6995,8.6995,8.6995,8.6995,8.6995,8.6995,8.6995,8.6995,8.6995,8.6995,8.6995,8.6995,8.6995,8.6995,8.6995,8.6995,8.6995,8.6995,8.6995,8.6995,8.6995,8.6995,8.6995,8.6995,8.6995,8.6995,8.6995,8.6995,8.6995,8.6995,8.6995,8.6995,8.6995,8.6995,8.6995,8.6995,8.6995,8.6995,8.6995,8.6995,8.7064,8.57,8.52,8.474,8.474,8.4228,8.3798,8.3798,8.3597,8.3275,8.2883,8.2793,8.2793,8.2793,8.2434,8.2707,8.388,8.4207,8.4903,8.6187,8.6738,8.6995,8.6995,8.6995,8.6995,8.6995,8.6995,8.6995,8.6995,8.6995,8.6995,8.6995,8.6995,8.6995,8.6995,8.6995,8.6995,8.6995,8.6995,8.6995,8.6995,8.6995,8.6995,8.6995,8.6995,8.6995,8.6995,8.6995,8.6995,8.6995,8.6995,8.6995,8.6995,8.6995,8.6995,8.6995,8.6995,8.6995,8.6995,8.6995,8.6995,8.6995,8.6995,8.6995,8.6995,8.6995,8.6995,8.6995,8.6995,8.6995,8.6995,8.6995,8.6995,8.6995,8.6995,8.6995,8.6995,8.6995,8.6995,8.6995,8.6995,8.6995,8.6995,8.6995,8.6995,8.6995,8.6995,8.6995,8.6995,8.6995,8.6995,8.6995,8.6995,8.6995,8.6995,8.6995,8.6995,8.6995,8.6995,8.6995,8.6995,8.6995,8.6995,8.6995,8.6995,8.6995,8.6995,8.6995,8.6995,8.6995,8.6995,8.6995,8.6995,8.6995,8.6995,8.7163,8.7489,8.5121,8.456,8.4117,8.4104,8.357,8.3103,8.3103,8.2585,8.2186,8.2186,8.2186,8.2186,8.2186,8.226,8.2627,8.3471,8.4976,8.6224,8.6958,8.6995,8.6995,8.6995,8.6995,8.6995,8.6995,8.6995,8.6995,8.6995,8.6995,8.6995,8.6995,8.6995,8.6995,8.6995,8.6995,8.6995,8.6995,8.6995,8.6995,8.6995,8.6995,8.6995,8.6995,8.6995,8.6995,8.6995,8.6995,8.6995,8.6995,8.6995,8.6995,8.6995,8.6995,8.6995,8.6995,8.6995,8.6995,8.6995,8.6995,8.6995,8.6995,8.6995,8.6995,8.6995,8.6995,8.6995,8.6995,8.6995,8.6995,8.6995,8.6995,8.6995,8.6995,8.6995,8.6995,8.6995,8.6995,8.6995,8.6995,8.6995,8.6995,8.6995,8.6995,8.6995,8.6995,8.6995,8.6995,8.6995,8.6995,8.6995,8.6995,8.6995,8.6995,8.6995,8.6995,8.6995,8.6995,8.6995,8.6995,8.6995,8.6995,8.6995,8.6995,8.6995,8.6995,8.6995,8.6995,8.6995,8.6995,8.6995,8.6995,8.6995,8.6995,8.7064,8.7521,8.8137,8.5121,8.4166,8.3443,8.3405,8.2883,8.2439,8.2439,8.2279,8.2186,8.2186,8.2186,8.2186,8.2186,8.2774,8.3471,8.4278,8.582,8.6811,8.6995,8.6995,8.6995,8.6995,8.6995,8.6995,8.6995,8.6995,8.6995,8.6995,8.6995,8.6995,8.6995,8.6995,8.6995,8.6995,8.6995,8.6995,8.6995,8.6995,8.6995,8.6995,8.6995,8.6995,8.6995,8.6995,8.6995,8.6995,8.6995,8.6995,8.6995,8.6995,8.6995,8.6995,8.6995,8.6995,8.6995,8.6995,8.6995,8.6995,8.6995,8.6995,8.6995,8.6995,8.6995,8.6995,8.6995,8.6995,8.6995,8.6995,8.6995,8.6995,8.6995,8.6995,8.6995,8.6995,8.6995,8.6995,8.6995,8.6995,8.6995,8.6995,8.6995,8.6995,8.6995,8.6995,8.6995,8.6995,8.6995,8.6995,8.6995,8.6995,8.6995,8.6995,8.6995,8.6995,8.6995,8.6995,8.6995,8.6995,8.6995,8.6995,8.6995,8.6995,8.6995,8.6995,8.6995,8.6995,8.6995,8.6995,8.6995,8.6995,8.6995,8.6995,8.7064,8.7651,8.7954,8.8249,8.4239,8.3405,8.2702,8.2702,8.2402,8.2186,8.2186,8.2186,8.2186,8.2186,8.2186,8.2333,8.2737,8.3141,8.3875,8.5086,8.6297,8.6995,8.6995,8.6995,8.6995,8.6995,8.6995,8.6995,8.6995,8.6995,8.6995,8.6995,8.6995,8.6995,8.6995,8.6995,8.6995,8.6995,8.6995,8.6995,8.6995,8.6995,8.6995,8.6995,8.6995,8.6995,8.6995,8.6995,8.6995,8.6995,8.6995,8.6995,8.6995,8.6995,8.6995,8.6995,8.6995,8.6995,8.6995,8.6995,8.6995,8.6995,8.6995,8.6995,8.6995,8.6995,8.6995,8.6995,8.6995,8.6995,8.6995,8.6995,8.6995,8.6995,8.6995,8.6995,8.6995,8.6995,8.6995,8.6995,8.6995,8.6995,8.6995,8.6995,8.6995,8.6995,8.6995,8.6995,8.6995,8.6995,8.6995,8.6995,8.6995,8.6995,8.6995,8.6995,8.6995,8.6995,8.6995,8.6995,8.6995,8.6995,8.6995,8.6995,8.6995,8.6995,8.6995,8.6995,8.6995,8.6995,8.6995,8.6995,8.6995,8.7029,8.7394,8.7521,8.7618,8.8338,8.8774,8.9225,8.3331,8.2678,8.2186,8.2186,8.2186,8.2186,8.2186,8.2186,8.2186,8.2186,8.2333,8.2663,8.3361,8.3654,8.4389,8.5857,8.6628,8.6995,8.6995,8.6995,8.6995,8.6995,8.6995,8.6995,8.6995,8.6995,8.6995,8.6995,8.6995,8.6995,8.6995,8.6995,8.6995,8.6995,8.6995,8.6995,8.6995,8.6995,8.6995,8.6995,8.6995,8.6995,8.6995,8.6995,8.6995,8.6995,8.6995,8.6995,8.6995,8.6995,8.6995,8.6995,8.6995,8.6995,8.6995,8.6995,8.6995,8.6995,8.6995,8.6995,8.6995,8.6995,8.6995,8.6995,8.6995,8.6995,8.6995,8.6995,8.6995,8.6995,8.6995,8.6995,8.6995,8.6995,8.6995,8.6995,8.6995,8.6995,8.6995,8.6995,8.6995,8.6995,8.6995,8.6995,8.6995,8.6995,8.6995,8.6995,8.6995,8.6995,8.6995,8.6995,8.6995,8.6995,8.6995,8.6995,8.6995,8.6995,8.6995,8.6995,8.6995,8.6995,8.6995,8.6995,8.6995,8.6995,8.6995,8.6995,8.6995,8.7064,8.7804,8.8107,8.8227,8.899,8.9716,9.0367,8.3218,8.2678,8.2186,8.2186,8.2186,8.2186,8.2186,8.2186,8.2186,8.2186,8.281,8.3287,8.3398,8.4646,8.5857,8.6775,8.6958,8.6995,8.6995,8.6995,8.6995,8.6995,8.6995,8.6995,8.6995,8.6995,8.6995,8.6995,8.6995,8.6995,8.6995,8.6995,8.6995,8.6995,8.6995,8.6995,8.6995,8.6995,8.6995,8.6995,8.6995,8.6995,8.6995,8.6995,8.6995,8.6995,8.6995,8.6995,8.6995,8.6995,8.6995,8.6995,8.6995,8.6995,8.6995,8.6995,8.6995,8.6995,8.6995,8.6995,8.6995,8.6995,8.6995,8.6995,8.6995,8.6995,8.6995,8.6995,8.6995,8.6995,8.6995,8.6995,8.6995,8.6995,8.6995,8.6995,8.6995,8.6995,8.6995,8.6995,8.6995,8.6995,8.6995,8.6995,8.6995,8.6995,8.6995,8.6995,8.6995,8.6995,8.6995,8.6995,8.6995,8.6995,8.6995,8.6995,8.6995,8.6995,8.6995,8.6995,8.6995,8.6995,8.6995,8.6995,8.6995,8.6995,8.6995,8.6995,8.6995,8.7064,8.7804,8.8107,8.8249,8.9487,9.0426,9.1082,8.2702,8.2407,8.2186,8.2186,8.2186,8.2186,8.2186,8.2186,8.237,8.281,8.3177,8.3765,8.4646,8.5783,8.6628,8.6995,8.6995,8.6995,8.6995,8.6995,8.6995,8.6995,8.6995,8.6995,8.6995,8.6995,8.6995,8.6995,8.6995,8.6995,8.6995,8.6995,8.6995,8.6995,8.6995,8.6995,8.6995,8.6995,8.6995,8.6995,8.6995,8.6995,8.6995,8.6995,8.6995,8.6995,8.6995,8.6995,8.6995,8.6995,8.6995,8.6995,8.6995,8.6995,8.6995,8.6995,8.6995,8.6995,8.6995,8.6995,8.6995,8.6995,8.6995,8.6995,8.6995,8.6995,8.6995,8.6995,8.6995,8.6995,8.6995,8.6995,8.6995,8.6995,8.6995,8.6995,8.6995,8.6995,8.6995,8.6995,8.6995,8.6995,8.6995,8.6995,8.6995,8.6995,8.6995,8.6995,8.6995,8.6995,8.6995,8.6995,8.6995,8.6995,8.6995,8.6995,8.6995,8.6995,8.6995,8.6995,8.6995,8.6995,8.6995,8.6995,8.6995,8.6995,8.6995,8.6995,8.7231,8.7678,8.8388,8.9122,8.9893,9.0505,9.0914,9.121]}]]